[[{"header":{"parameterUnit":"m.s-1","parameterCategory":1,"la1":30.6,"la2":28.766,"lo1":-90.7593,"lo2":-88.6598,"dy":0.0162,"dx":0.0183,"nx":116,"ny":114,"refTime":"2024-04-21T12:00:00:Z","depth":0,"parameterNumber":2,"parameterNumberName":"U-component_of_WINDS"},"data":[0.0,0.0,0.0,0.0,0.0,0.0,0.0,0.0,0.0,0.0,0.0,0.0,0.0,0.0,0.0,0.0,0.0,0.0,0.0,0.0,0.0,0.0,0.0,0.0,0.0,0.0,0.0,0.0,0.0,0.0,0.0,0.0,0.0,0.0,0.0,0.0,0.0,0.0,0.0,0.0,0.0,0.0,0.0,0.0,0.0,0.0,0.0,0.0,0.0,0.0,0.0,0.0,0.0,0.0,0.0,0.0,0.0,0.0,0.0,0.0,0.0,0.0,0.0,0.0,0.0,0.0,0.0,0.0,0.0,0.0,0.0,0.0,0.0,0.0,0.0,0.0,0.0,0.0,0.0,0.0,0.0,0.0,0.0,0.0,0.0,0.0,0.0,0.0,0.0,0.0,0.0,0.0,0.0,0.0,0.0,0.0,0.0,0.0,0.0,0.0,0.0,0.0,0.0,0.0,0.0,0.0,0.0,0.0,0.0,0.0,0.0,0.0,0.0,0.0,0.0,0.0,0.0,0.0,0.0,0.0,0.0,0.0,0.0,0.0,0.0,0.0,0.0,0.0,0.0,0.0,0.0,0.0,0.0,0.0,0.0,0.0,0.0,0.0,0.0,0.0,0.0,0.0,0.0,0.0,0.0,0.0,0.0,0.0,0.0,0.0,0.0,0.0,0.0,0.0,0.0,0.0,0.0,0.0,0.0,0.0,0.0,0.0,0.0,0.0,0.0,0.0,0.0,0.0,0.0,0.0,0.0,0.0,0.0,0.0,0.0,0.0,0.0,0.0,0.0,0.0,0.0,0.0,0.0,0.0,0.0,0.0,0.0,0.0,0.0,0.0,0.0,0.0,0.0,0.0,0.0,0.0,0.0,0.0,0.0,0.0,0.0,0.0,0.0,0.0,0.0,0.0,0.0,0.0,0.0,0.0,0.0,0.0,0.0,0.0,0.0,0.0,0.0,0.0,0.0,0.0,0.0,0.0,0.0,0.0,0.0,0.0,0.0,0.0,0.0,0.0,0.0,0.0,0.0,0.0,0.0,0.0,0.0,0.0,0.0,0.0,0.0,0.0,0.0,0.0,0.0,0.0,0.0,0.0,0.0,0.0,0.0,0.0,0.0,0.0,0.0,0.0,0.0,0.0,0.0,0.0,0.0,0.0,0.0,0.0,0.0,0.0,0.0,0.0,0.0,0.0,0.0,0.0,0.0,0.0,0.0,0.0,0.0,0.0,0.0,0.0,0.0,0.0,0.0,0.0,0.0,0.0,0.0,0.0,0.0,0.0,0.0,0.0,0.0,0.0,0.0,0.0,0.0,0.0,0.0,0.0,0.0,0.0,0.0,0.0,0.0,0.0,0.0,0.0,0.0,0.0,0.0,0.0,0.0,0.0,0.0,0.0,0.0,0.0,0.0,0.0,0.0,0.0,0.0,0.0,0.0,0.0,0.0,0.0,0.0,0.0,0.0,0.0,0.0,0.0,0.0,0.0,0.0,0.0,0.0,0.0,0.0,0.0,0.0,0.0,0.0,0.0,0.0,0.0,0.0,0.0,0.0,0.0,0.0,0.0,0.0,0.0,0.0,0.0,0.0,0.0,0.0,0.0,0.0,0.0,0.0,0.0,0.0,0.0,0.0,0.0,0.0,0.0,0.0,0.0,0.0,0.0,0.0,0.0,0.0,0.0,0.0,0.0,0.0,0.0,0.0,0.0,0.0,0.0,0.0,0.0,0.0,0.0,0.0,0.0,0.0,0.0,0.0,0.0,0.0,0.0,0.0,0.0,0.0,0.0,0.0,0.0,0.0,0.0,0.0,0.0,0.0,0.0,0.0,0.0,0.0,0.0,0.0,0.0,0.0,0.0,0.0,0.0,0.0,0.0,0.0,0.0,0.0,0.0,0.0,0.0,0.0,0.0,0.0,0.0,0.0,0.0,0.0,0.0,0.0,0.0,0.0,0.0,0.0,0.0,0.0,0.0,0.0,0.0,0.0,0.0,0.0,0.0,0.0,0.0,0.0,0.0,0.0,0.0,0.0,0.0,0.0,0.0,0.0,0.0,0.0,0.0,0.0,0.0,0.0,0.0,0.0,0.0,0.0,0.0,0.0,0.0,0.0,0.0,0.0,0.0,0.0,0.0,0.0,0.0,0.0,0.0,0.0,0.0,0.0,0.0,0.0,0.0,0.0,0.0,0.0,0.0,0.0,0.0,0.0,0.0,0.0,0.0,0.0,0.0,0.0,0.0,0.0,0.0,0.0,0.0,0.0,0.0,0.0,0.0,0.0,0.0,0.0,0.0,0.0,0.0,0.0,0.0,0.0,0.0,0.0,0.0,0.0,0.0,0.0,0.0,0.0,0.0,0.0,0.0,0.0,0.0,0.0,0.0,0.0,0.0,0.0,0.0,0.0,0.0,0.0,0.0,0.0,0.0,0.0,0.0,0.0,0.0,0.0,0.0,0.0,0.0,0.0,0.0,0.0,0.0,0.0,0.0,0.0,0.0,0.0,0.0,0.0,0.0,0.0,0.0,0.0,0.0,0.0,0.0,0.0,0.0,0.0,0.0,0.0,0.0,0.0,0.0,0.0,0.0,0.0,0.0,0.0,0.0,0.0,0.0,0.0,0.0,0.0,0.0,0.0,0.0,0.0,0.0,0.0,0.0,0.0,0.0,0.0,0.0,0.0,0.0,0.0,0.0,0.0,0.0,0.0,0.0,0.0,0.0,0.0,0.0,0.0,0.0,0.0,0.0,0.0,0.0,0.0,0.0,0.0,0.0,0.0,0.0,0.0,0.0,0.0,0.0,0.0,0.0,0.0,0.0,0.0,0.0,0.0,0.0,0.0,0.0,0.0,0.0,0.0,0.0,0.0,0.0,0.0,0.0,0.0,0.0,0.0,0.0,0.0,0.0,0.0,0.0,0.0,0.0,0.0,0.0,0.0,0.0,0.0,0.0,0.0,0.0,0.0,0.0,0.0,0.0,0.0,0.0,0.0,0.0,0.0,0.0,0.0,0.0,0.0,0.0,0.0,0.0,0.0,0.0,0.0,0.0,0.0,0.0,0.0,0.0,0.0,0.0,0.0,0.0,0.0,0.0,0.0,0.0,0.0,0.0,0.0,0.0,0.0,0.0,0.0,0.0,0.0,0.0,0.0,0.0,0.0,0.0,0.0,0.0,0.0,0.0,0.0,0.0,0.0,0.0,0.0,0.0,0.0,0.0,0.0,0.0,0.0,0.0,0.0,0.0,0.0,0.0,0.0,0.0,0.0,0.0,0.0,0.0,0.0,0.0,0.0,0.0,0.0,0.0,0.0,0.0,0.0,0.0,0.0,0.0,0.0,0.0,0.0,0.0,0.0,0.0,0.0,0.0,0.0,0.0,0.0,0.0,0.0,0.0,0.0,0.0,0.0,0.0,0.0,0.0,0.0,0.0,0.0,0.0,0.0,0.0,0.0,0.0,0.0,0.0,0.0,0.0,0.0,0.0,0.0,0.0,0.0,0.0,0.0,0.0,0.0,0.0,0.0,0.0,0.0,0.0,0.0,0.0,0.0,0.0,0.0,0.0,0.0,0.0,0.0,0.0,0.0,0.0,0.0,0.0,0.0,0.0,0.0,0.0,0.0,0.0,0.0,0.0,0.0,0.0,0.0,0.0,0.0,0.0,0.0,0.0,0.0,0.0,0.0,0.0,0.0,0.0,0.0,0.0,0.0,0.0,0.0,0.0,0.0,0.0,0.0,0.0,0.0,0.0,0.0,0.0,0.0,0.0,0.0,0.0,0.0,0.0,0.0,0.0,0.0,0.0,0.0,0.0,0.0,0.0,0.0,0.0,0.0,0.0,0.0,0.0,0.0,0.0,0.0,0.0,0.0,0.0,0.0,0.0,0.0,0.0,0.0,0.0,0.0,0.0,0.0,0.0,0.0,0.0,0.0,0.0,0.0,0.0,0.0,0.0,0.0,0.0,0.0,0.0,0.0,0.0,0.0,0.0,0.0,0.0,0.0,0.0,0.0,0.0,0.0,0.0,0.0,0.0,0.0,0.0,0.0,0.0,0.0,0.0,0.0,0.0,0.0,0.0,0.0,0.0,0.0,0.0,0.0,0.0,0.0,0.0,0.0,0.0,0.0,0.0,0.0,0.0,0.0,0.0,0.0,0.0,0.0,0.0,0.0,0.0,0.0,0.0,0.0,0.0,0.0,0.0,0.0,0.0,0.0,0.0,0.0,0.0,0.0,0.0,0.0,0.0,0.0,0.0,0.0,0.0,0.0,0.0,0.0,0.0,0.0,0.0,0.0,0.0,0.0,0.0,0.0,0.0,0.0,0.0,0.0,0.0,0.0,0.0,0.0,0.0,0.0,0.0,0.0,0.0,0.0,0.0,0.0,0.0,0.0,0.0,0.0,0.0,0.0,0.0,0.0,0.0,0.0,0.0,0.0,0.0,0.0,0.0,0.0,0.0,0.0,0.0,0.0,0.0,0.0,0.0,0.0,0.0,0.0,0.0,0.0,0.0,0.0,0.0,0.0,0.0,0.0,0.0,0.0,0.0,0.0,0.0,0.0,0.0,0.0,0.0,0.0,0.0,0.0,0.0,0.0,0.0,0.0,0.0,0.0,0.0,0.0,0.0,0.0,0.0,0.0,0.0,0.0,0.0,0.0,0.0,0.0,0.0,0.0,0.0,0.0,0.0,0.0,0.0,0.0,0.0,0.0,0.0,0.0,0.0,0.0,0.0,0.0,0.0,0.0,0.0,0.0,0.0,0.0,0.0,0.0,0.0,0.0,0.0,0.0,0.0,0.0,0.0,0.0,0.0,0.0,0.0,0.0,0.0,0.0,0.0,0.0,0.0,0.0,0.0,0.0,0.0,0.0,0.0,0.0,0.0,0.0,0.0,0.0,0.0,0.0,0.0,0.0,0.0,0.0,0.0,0.0,0.0,0.0,0.0,0.0,0.0,0.0,0.0,0.0,0.0,0.0,0.0,0.0,0.0,0.0,0.0,0.0,0.0,0.0,0.0,0.0,0.0,0.0,0.0,0.0,0.0,0.0,0.0,0.0,0.0,0.0,0.0,0.0,0.0,0.0,0.0,0.0,0.0,0.0,0.0,0.0,0.0,0.0,0.0,0.0,0.0,0.0,0.0,0.0,0.0,0.0,0.0,0.0,0.0,0.0,0.0,0.0,0.0,0.0,0.0,0.0,0.0,0.0,0.0,0.0,0.0,0.0,0.0,0.0,0.0,0.0,0.0,0.0,0.0,0.0,0.0,0.0,0.0,0.0,0.0,0.0,0.0,0.0,0.0,0.0,0.0,0.0,0.0,0.0,0.0,0.0,0.0,0.0,0.0,0.0,0.0,0.0,0.0,0.0,0.0,0.0,0.0,0.0,0.0,0.0,0.0,0.0,0.0,0.0,0.0,0.0,0.0,0.0,0.0,0.0,0.0,0.0,0.0,0.0,0.0,0.0,0.0,0.0,0.0,0.0,0.0,0.0,0.0,0.0,0.0,0.0,0.0,0.0,0.0,0.0,0.0,0.0,0.0,0.0,0.0,0.0,0.0,0.0,0.0,0.0,0.0,0.0,0.0,0.0,0.0,0.0,0.0,0.0,0.0,0.0,0.0,0.0,0.0,0.0,0.0,0.0,0.0,0.0,0.0,0.0,0.0,0.0,0.0,0.0,0.0,0.0,0.0,0.0,0.0,0.0,0.0,0.0,0.0,0.0,0.0,0.0,0.0,0.0,0.0,0.0,0.0,0.0,0.0,0.0,0.0,0.0,0.0,0.0,0.0,0.0,0.0,0.0,0.0,0.0,0.0,0.0,0.0,0.0,0.0,0.0,0.0,0.0,0.0,0.0,0.0,0.0,0.0,0.0,0.0,0.0,0.0,0.0,0.0,0.0,0.0,0.0,0.0,0.0,0.0,0.0,0.0,0.0,0.0,0.0,0.0,0.0,0.0,0.0,0.0,0.0,0.0,0.0,0.0,0.0,0.0,0.0,0.0,0.0,0.0,0.0,0.0,0.0,0.0,0.0,0.0,0.0,0.0,0.0,0.0,0.0,0.0,0.0,0.0,0.0,0.0,0.0,0.0,0.0,0.0,0.0,0.0,0.0,0.0,-3.4936,-3.2735,0.0,0.0,0.0,0.0,0.0,0.0,0.0,0.0,0.0,0.0,0.0,0.0,0.0,0.0,0.0,0.0,0.0,0.0,0.0,0.0,0.0,0.0,0.0,-0.9389,-0.9726,-0.9621,-1.0503,-1.103,-1.0937,0.0,0.0,0.0,0.0,0.0,-1.5507,-1.6098,-1.6861,-1.7834,-1.9044,-2.0161,-2.121,-2.2886,-2.3327,-2.2729,0.0,0.0,0.0,0.0,0.0,0.0,0.0,0.0,0.0,0.0,0.0,0.0,0.0,0.0,0.0,0.0,0.0,0.0,0.0,0.0,0.0,0.0,0.0,0.0,0.0,0.0,0.0,0.0,0.0,0.0,0.0,0.0,0.0,0.0,0.0,0.0,0.0,0.0,0.0,0.0,0.0,0.0,0.0,0.0,0.0,0.0,0.0,0.0,0.0,0.0,0.0,0.0,0.0,0.0,0.0,0.0,0.0,0.0,0.0,0.0,0.0,0.0,0.0,0.0,0.0,0.0,0.0,0.0,0.0,0.0,-3.3081,-3.2532,0.0,0.0,0.0,0.0,0.0,0.0,0.0,0.0,0.0,0.0,0.0,0.0,0.0,0.0,0.0,0.0,0.0,0.0,0.0,0.0,0.0,-0.8294,-0.8581,-0.9423,-0.9805,-0.9356,-1.0032,-1.0328,-0.995,-1.0274,0.0,0.0,0.0,-1.2635,-1.3853,-1.4631,-1.5519,-1.6544,-1.8946,-2.0852,-2.229,-2.3129,-2.2809,-2.1589,-2.2649,0.0,0.0,0.0,0.0,0.0,0.0,0.0,0.0,0.0,0.0,0.0,0.0,0.0,0.0,0.0,0.0,0.0,0.0,0.0,0.0,0.0,0.0,0.0,0.0,0.0,0.0,0.0,0.0,0.0,0.0,0.0,0.0,0.0,0.0,0.0,0.0,0.0,0.0,0.0,0.0,0.0,0.0,0.0,0.0,0.0,0.0,0.0,0.0,0.0,0.0,0.0,0.0,0.0,0.0,0.0,0.0,0.0,0.0,0.0,0.0,0.0,0.0,0.0,-3.0327,-3.0846,-2.9491,-3.0941,-3.1138,-3.033,-3.0957,-3.1522,-3.1878,-3.0161,0.0,0.0,0.0,0.0,0.0,0.0,0.0,0.0,0.0,0.0,0.0,0.0,0.0,0.0,0.0,0.0,0.0,0.0,0.0,-0.7797,-0.7831,-0.8585,-0.9037,-0.8974,-0.9388,-0.9755,-0.9978,-0.9731,-0.9863,-1.0503,-1.115,-1.1736,-1.2212,-1.3333,-1.4576,-1.5925,-1.8275,-1.9402,-1.9376,-2.0299,-2.0956,-2.1459,-2.4001,0.0,0.0,0.0,0.0,0.0,0.0,0.0,0.0,0.0,0.0,0.0,0.0,0.0,0.0,0.0,0.0,0.0,0.0,0.0,0.0,0.0,0.0,0.0,0.0,0.0,0.0,0.0,0.0,0.0,0.0,0.0,0.0,0.0,0.0,0.0,0.0,0.0,0.0,0.0,0.0,0.0,0.0,0.0,-2.1446,-2.3964,0.0,0.0,0.0,0.0,0.0,0.0,0.0,0.0,0.0,0.0,0.0,0.0,0.0,-2.7273,-2.7163,-3.0253,-3.1812,-3.183,-3.4357,-3.5437,-3.5188,-3.4678,-3.4535,-3.4536,-3.2329,0.0,-3.3191,-3.2365,0.0,0.0,0.0,0.0,0.0,0.0,0.0,0.0,0.0,0.0,0.0,0.0,0.0,0.0,0.0,0.0,0.0,0.0,0.0,0.0,0.0,-0.8332,-0.9197,-0.9491,-1.0462,-1.087,-1.043,-1.0224,-0.9937,-0.9515,-0.9789,-1.0099,-1.0431,-1.1551,-1.3428,-1.6074,-1.8017,-1.9453,-2.0399,-2.1528,-2.2419,-2.3115,-2.4654,-2.4762,-2.3777,-2.4128,0.0,0.0,0.0,0.0,0.0,0.0,0.0,0.0,0.0,0.0,0.0,0.0,0.0,0.0,0.0,0.0,0.0,0.0,0.0,0.0,0.0,0.0,0.0,0.0,0.0,0.0,0.0,0.0,0.0,0.0,0.0,0.0,0.0,0.0,0.0,0.0,0.0,0.0,0.0,-2.0544,-2.2952,-2.3383,-2.4027,-2.3298,0.0,0.0,0.0,0.0,0.0,0.0,0.0,0.0,0.0,-2.7391,-2.942,-3.0503,-3.0503,-3.3275,-3.4688,-3.4706,-3.6229,-3.6725,-3.6285,-3.5899,-3.5818,-3.5858,-3.4168,-3.4136,-3.5135,-3.3157,-3.2961,-3.3543,0.0,0.0,0.0,0.0,-2.5663,-2.6511,0.0,0.0,0.0,0.0,0.0,0.0,0.0,0.0,0.0,0.0,0.0,0.0,-0.7101,-0.8462,-0.951,-0.9905,-1.1003,-1.1255,-1.0321,-1.0159,-0.9632,-0.853,-0.8587,-0.8755,-0.9006,-1.0642,-1.3031,-1.6207,-1.7865,-1.9508,-2.1124,-2.2249,-2.32,-2.3996,-2.4521,-2.4446,-2.393,-2.4569,-2.3632,0.0,0.0,0.0,0.0,0.0,0.0,0.0,0.0,0.0,0.0,0.0,0.0,0.0,0.0,0.0,0.0,0.0,0.0,0.0,0.0,0.0,0.0,0.0,0.0,0.0,0.0,0.0,0.0,0.0,0.0,0.0,0.0,0.0,0.0,0.0,0.0,0.0,0.0,-2.2032,-2.4205,-2.3394,-2.5283,-2.5123,0.0,0.0,0.0,0.0,0.0,0.0,-2.7781,-2.853,-2.9237,-2.9849,-3.2187,-3.3346,-3.316,-3.533,-3.6398,-3.6416,-3.6938,-3.6886,-3.6285,-3.6064,-3.5973,-3.5917,-3.5059,-3.5279,-3.6105,-3.3931,-3.3526,-3.4089,-3.2229,-3.0706,-2.9379,-2.7867,-2.7622,-2.7941,0.0,0.0,0.0,0.0,0.0,0.0,0.0,0.0,0.0,0.0,0.0,-0.7734,-0.7758,-0.8956,-0.9779,-0.9803,-0.9874,-0.9683,-0.913,-0.8732,-0.8262,-0.769,-0.8023,-0.8245,-0.8249,-1.1432,-1.4037,-1.6037,-1.7742,-1.8993,-1.98,-2.044,-2.1472,-2.2807,-2.3354,-2.3385,-2.3053,-2.3043,-2.217,-2.0639,0.0,0.0,0.0,0.0,0.0,0.0,0.0,0.0,0.0,0.0,0.0,0.0,0.0,0.0,0.0,0.0,0.0,0.0,0.0,0.0,0.0,0.0,0.0,0.0,0.0,0.0,0.0,0.0,0.0,0.0,0.0,0.0,0.0,0.0,0.0,0.0,0.0,0.0,0.0,-2.5892,-2.9837,0.0,0.0,0.0,0.0,-2.5908,-2.6792,-2.8122,-2.9669,-3.0525,-3.1346,-3.2202,-3.45,-3.5403,-3.4694,-3.5998,-3.6684,-3.6666,-3.6459,-3.634,-3.6266,-3.5445,-3.5078,-3.5023,-3.4211,-3.4321,-3.5096,-3.5281,-3.5522,-3.5471,-3.2204,-3.0903,-3.0405,-2.6962,-2.7315,-2.9239,0.0,0.0,0.0,0.0,0.0,-0.6106,-0.6106,-0.6106,-0.6106,-0.6106,-0.6642,-0.709,-0.7269,-0.8548,-0.9708,-1.0436,-1.0847,-1.079,-1.0072,-0.952,-0.87,-0.7526,-0.7233,-0.7517,-0.8378,-1.0669,-1.2432,-1.362,-1.5526,-1.695,-1.7864,-1.8847,-2.004,-2.1366,-2.1562,-2.1835,-2.2271,-2.3762,-2.3219,-2.1375,-2.0957,-1.9253,0.0,0.0,0.0,0.0,0.0,0.0,0.0,0.0,0.0,0.0,0.0,0.0,0.0,0.0,0.0,0.0,0.0,0.0,0.0,0.0,0.0,0.0,0.0,0.0,0.0,0.0,0.0,0.0,0.0,0.0,0.0,0.0,0.0,0.0,0.0,0.0,0.0,-2.5979,-2.8653,0.0,-2.7656,-2.859,-2.9119,-2.866,-3.0745,-3.241,-3.3342,-3.4109,-3.4802,-3.5473,-3.5791,-3.5827,-3.5562,-3.5544,-3.5541,-3.5541,-3.5442,-3.513,-3.4629,-3.4307,-3.3878,-3.3394,-3.3414,-3.3295,-3.311,-3.3479,-3.4426,-3.5499,-3.3943,-3.3344,-3.3108,-3.1299,-3.1127,-3.1624,0.0,0.0,0.0,0.0,0.0,-0.5641,-0.5493,-0.5462,-0.5436,-0.5402,-0.5982,-0.6504,-0.6763,-0.8259,-0.9418,-0.9877,-1.0718,-1.0617,-0.9134,-0.8994,-0.8146,-0.6338,-0.6437,-0.742,-0.9326,-1.0415,-1.1419,-1.2391,-1.3615,-1.4679,-1.5616,-1.6627,-1.7847,-1.918,-1.9544,-2.0077,-2.0877,-2.2564,-2.2935,-2.2375,-2.2149,-2.0369,-1.7872,0.0,0.0,0.0,0.0,0.0,0.0,0.0,0.0,0.0,0.0,0.0,0.0,0.0,0.0,0.0,0.0,0.0,0.0,0.0,0.0,0.0,0.0,0.0,0.0,0.0,0.0,0.0,0.0,0.0,0.0,0.0,0.0,0.0,0.0,-2.3222,-2.6525,-2.6125,-2.8756,-3.0119,-2.8796,-3.0021,-3.1004,-3.1236,-3.3503,-3.5035,-3.5383,-3.5864,-3.617,-3.63,-3.602,-3.5758,-3.5496,-3.4916,-3.4621,-3.4639,-3.4252,-3.3808,-3.3295,-3.3295,-3.2729,-3.1806,-3.261,-3.2376,-3.1487,-3.2133,-3.3161,-3.4257,-3.3769,-3.3743,-3.3874,-3.2735,-3.2213,-3.1892,0.0,0.0,0.0,0.0,0.0,-0.5119,-0.4666,-0.458,-0.4543,-0.4402,-0.5326,-0.6087,-0.6348,-0.8119,-0.8909,-0.8081,-0.9233,-0.888,-0.6184,-0.691,-0.6431,-0.4119,-0.5671,-0.796,-1.0891,-1.0673,-1.1142,-1.2485,-1.2157,-1.2384,-1.3131,-1.3801,-1.4852,-1.6261,-1.7277,-1.8116,-1.8792,-1.9196,-2.0903,-2.3203,-2.2308,-2.1138,-1.9893,0.0,0.0,0.0,0.0,0.0,0.0,0.0,0.0,0.0,0.0,0.0,0.0,0.0,0.0,0.0,0.0,0.0,0.0,0.0,0.0,0.0,0.0,0.0,0.0,0.0,0.0,0.0,0.0,0.0,0.0,0.0,0.0,0.0,-1.9362,-2.4095,-2.7348,-2.6608,-3.0653,-3.2682,-3.0482,-3.2853,-3.4248,-3.3573,-3.4799,-3.5577,-3.5577,-3.5526,-3.5172,-3.445,-3.5092,-3.5126,-3.4399,-3.4137,-3.4017,-3.4034,-3.2967,-3.2451,-3.2451,-3.2451,-3.1687,-3.0422,-3.1846,-3.1632,-3.0361,-3.149,-3.1928,-3.1881,-3.1519,-3.188,-3.2362,-3.0779,-3.0161,-2.9867,0.0,0.0,0.0,-0.5293,-0.5017,-0.4746,-0.4612,-0.4361,-0.4149,-0.4121,-0.5206,-0.6026,-0.6092,-0.7445,-0.8185,-0.7818,-0.8125,-0.7805,-0.6523,-0.6294,-0.5674,-0.449,-0.555,0.0,-0.7823,-0.8271,-0.881,-0.948,-0.959,-1.0164,-1.1164,-1.1661,-1.2662,-1.406,-1.4364,-1.4893,-1.5643,-1.6547,-1.765,-1.8832,-2.0368,-2.0516,-1.9838,0.0,0.0,0.0,0.0,0.0,0.0,0.0,0.0,0.0,0.0,0.0,0.0,0.0,0.0,0.0,0.0,0.0,0.0,0.0,0.0,0.0,0.0,0.0,0.0,0.0,0.0,0.0,0.0,0.0,0.0,0.0,-2.0545,-2.3227,-2.3031,-2.6094,-2.8591,-2.9294,-3.0964,-3.2041,-3.1939,-3.2667,-3.326,-3.3537,-3.4381,-3.4871,-3.4871,-3.3966,-3.3323,-3.3145,-3.2274,-3.1991,-3.2302,-3.2117,-3.2273,-3.2784,-3.1948,-3.1562,-3.1562,-3.1562,-3.1339,-3.098,-3.1688,-3.1133,-2.9772,-3.0431,-3.038,-3.0001,-3.1016,-3.1544,-3.1604,-3.0577,-2.9302,-2.7761,0.0,0.0,0.0,-0.5001,-0.465,-0.4274,-0.4092,-0.3853,-0.3685,-0.3634,-0.4509,-0.5179,-0.5232,-0.6496,-0.7103,-0.6591,-0.7099,-0.6796,-0.5222,-0.4327,-0.4148,-0.477,0.0,-0.5245,-0.6037,-0.6348,-0.6588,-0.6837,-0.6872,-0.725,-0.7886,-0.8412,-0.9098,-0.9977,-1.0763,-1.1331,-1.1831,-1.3294,-1.4365,-1.5252,-1.7006,-1.8179,-1.889,-1.9097,-1.8486,-1.7598,-1.7782,-1.8382,-1.894,-1.8156,0.0,0.0,0.0,0.0,0.0,0.0,0.0,0.0,0.0,0.0,0.0,0.0,0.0,0.0,0.0,0.0,0.0,0.0,0.0,0.0,0.0,0.0,0.0,0.0,-2.2022,-2.4703,-2.5412,-2.7752,-2.9774,-3.0806,-3.1256,-3.1668,-3.2092,-3.241,-3.2761,-3.3145,-3.3811,-3.4186,-3.4186,-3.3452,-3.2765,-3.2184,-3.1893,-3.155,-3.1127,-3.1518,-3.1645,-3.1542,-3.1053,-3.0679,-3.0456,-3.0699,-3.0483,-2.997,-3.1083,-3.0688,-2.9317,-2.9755,-2.9653,-2.9308,0.0,0.0,0.0,0.0,-2.7825,-2.6283,0.0,0.0,-0.4602,-0.4602,-0.4231,-0.3777,-0.336,-0.3257,-0.3206,-0.3118,-0.3539,-0.3906,-0.4072,-0.5221,-0.5631,-0.4719,-0.5827,-0.5556,-0.3115,-0.1914,-0.234,-0.4647,-0.3735,-0.3738,-0.4988,-0.471,-0.4544,-0.4544,-0.4276,-0.4205,-0.4283,-0.4885,-0.5195,-0.536,-0.7041,-0.7761,-0.7894,-0.9695,-1.1007,-1.1942,-1.2829,-1.4841,-1.7328,-1.7328,-1.7099,-1.6784,-1.6784,-1.7494,-1.8394,-1.827,0.0,0.0,0.0,0.0,0.0,0.0,0.0,0.0,0.0,0.0,0.0,0.0,0.0,0.0,0.0,0.0,0.0,0.0,0.0,0.0,0.0,0.0,0.0,0.0,-2.3349,-2.5243,-2.6858,-2.8958,-3.0594,-3.1276,-3.1438,-3.1511,-3.1511,-3.2092,-3.2492,-3.2492,-3.3119,-3.3495,-3.3495,-3.3335,0.0,0.0,0.0,-3.2237,-3.0612,-3.1655,-3.1655,-3.0612,-3.0413,-2.9995,-2.9429,-2.9935,-2.9518,-2.8445,-3.0288,-3.0357,-2.913,-2.9368,-2.9334,-2.9108,-2.8237,-2.8351,-2.8752,-2.7008,-2.5977,-2.5314,0.0,-0.4922,-0.4602,-0.4602,-0.3946,-0.3409,-0.3311,-0.3019,-0.2888,-0.3083,-0.3005,-0.3053,-0.3295,-0.3384,-0.3303,-0.2996,-0.3216,-0.3006,-0.2116,-0.1572,-0.1693,-0.2572,-0.2366,-0.2538,-0.3175,-0.3038,-0.2951,-0.2951,-0.2741,-0.2938,-0.3506,-0.3638,-0.4011,-0.4602,-0.4981,-0.5128,-0.523,-0.6497,-0.7158,-0.7507,-0.9296,-1.226,-1.5666,-1.5666,-1.6342,-1.7269,-1.7269,-1.8137,-1.9108,-1.8075,-1.7871,-1.8106,-1.8574,0.0,0.0,0.0,0.0,0.0,0.0,0.0,0.0,0.0,0.0,0.0,0.0,0.0,0.0,0.0,0.0,0.0,0.0,0.0,0.0,-2.3233,-2.513,-2.6831,-2.8006,-2.8826,-2.961,-3.0435,-3.1087,-3.1511,-3.1511,-3.164,-3.171,-3.171,-3.2367,-3.2788,-3.2788,-3.1779,-3.1054,-3.0789,-2.9942,-2.9833,-3.0595,-3.072,-3.0956,-3.131,-3.0667,0.0,-2.9406,-2.9518,-2.9681,-2.9897,-3.0282,-3.0256,-2.9837,-2.9321,-2.8354,-2.7299,-2.7727,-2.8,-2.7759,-2.4704,-2.4252,-2.476,0.0,-0.4274,-0.3946,-0.3946,-0.3425,-0.292,-0.2689,-0.2477,-0.2307,-0.2213,-0.2281,-0.2375,-0.245,-0.2529,-0.253,-0.2371,-0.2016,-0.1866,-0.1996,-0.1146,-0.0915,-0.1528,-0.0852,-0.0562,-0.0779,-0.0377,-0.0143,-0.0143,-0.0056,-0.0194,-0.0553,-0.0553,-0.0745,-0.11,-0.1484,-0.1648,-0.1763,-0.3423,-0.4227,-0.4515,-0.6242,-0.826,-1.0486,-1.2628,-1.4125,-1.5173,-1.5584,-1.6454,-1.7324,-1.7081,-1.722,-1.759,-1.8,-1.829,-1.8174,0.0,0.0,0.0,0.0,0.0,0.0,0.0,0.0,0.0,0.0,0.0,0.0,0.0,0.0,-1.8728,-1.9046,0.0,-2.1941,-2.4056,-2.5074,-2.6147,-2.7683,-2.8146,-2.8684,-2.9535,-3.0011,-3.0238,-3.0238,-3.0644,-3.0896,-3.0896,-3.1623,-3.2064,-3.2064,-3.1101,-3.0273,-2.9617,-2.955,-2.9215,-2.8604,-2.9822,-3.0165,-2.9561,-2.9476,-2.9132,-2.8519,-2.881,-2.9111,-2.9406,-2.9717,-2.9613,-2.918,-2.8075,-2.6986,-2.5982,-2.6387,-2.6853,-2.6993,-2.4551,-2.4136,-2.4421,0.0,-0.3495,-0.3212,-0.329,-0.2887,-0.243,-0.2064,-0.1931,-0.1758,-0.1446,-0.1596,-0.1727,-0.1665,-0.1884,-0.1911,-0.1657,-0.1036,-0.0897,0.0,-0.025,0.0158,-0.0434,0.068,0.1301,0.1307,0.1895,0.2258,0.2421,0.2421,0.2476,0.2639,0.2639,0.2639,0.2583,0.1857,0.1524,0.1415,-0.0489,-0.142,-0.1729,-0.327,-0.4041,-0.4706,-0.8687,-1.088,-1.198,-1.301,-1.3883,-1.4637,-1.5455,-1.6107,-1.6625,-1.7031,-1.8016,-1.8481,-1.5741,-1.6167,0.0,0.0,0.0,0.0,0.0,0.0,0.0,0.0,-1.7082,-1.7546,-1.7683,-1.8345,-1.9143,-1.9868,-2.0599,-2.1912,-2.4432,-2.4507,-2.4849,-2.6478,-2.6983,-2.7445,-2.8141,-2.8671,-2.9002,-2.9002,-2.9628,-3.0042,-3.0042,-3.0644,-3.1087,-3.1248,-3.0481,-2.9638,-2.8768,-2.937,-2.8823,-2.6956,-2.8925,-2.9188,-2.7794,-2.8305,-2.8204,-2.7625,-2.8091,-2.8391,-2.8535,-2.8992,-2.882,-2.8078,-2.6828,-2.5862,-2.5202,-2.5202,-2.5691,-2.6234,-2.476,-2.4224,-2.3959,0.0,-0.3052,-0.2874,-0.3245,-0.2623,-0.2064,-0.2014,-0.1642,-0.1472,-0.1708,-0.1227,-0.0938,-0.1154,-0.063,-0.011,0.0345,0.0667,0.0987,0.1333,0.172,0.1926,0.1845,0.1984,0.2068,0.2076,0.2151,0.253,0.3182,0.3182,0.3506,0.4151,0.4151,0.4151,0.4123,0.3394,0.3042,0.3,0.2286,0.1955,0.1786,0.013,-0.0565,-0.0898,-0.3772,-0.6331,-0.8581,-1.0302,-1.1412,-1.2226,-1.308,-1.3429,-1.3742,-1.5129,-1.5216,-1.4917,-1.5648,-1.5527,-1.4862,-1.339,-1.2855,-1.2853,-1.3592,-1.5121,-1.6678,0.0,-1.9814,-2.1571,-2.0721,-2.2391,-2.3745,-2.298,-2.3627,-2.4441,-2.4907,-2.4536,-2.4318,-2.4619,-2.5013,-2.5346,-2.544,-2.7538,-2.9002,-2.9002,-2.9097,-2.916,-2.916,-2.9223,-2.9628,-3.0389,-2.9171,-2.8716,-2.9291,-2.7712,-2.7272,-2.819,-2.7953,-2.8074,-2.8487,-2.8565,-2.8235,-2.76,-2.7675,-2.7993,-2.8504,-2.8507,-2.8084,-2.7363,-2.6615,-2.5862,-2.5202,-2.5202,-2.5278,-2.5196,-2.3776,-2.3259,-2.305,0.0,-0.2593,-0.2344,-0.2507,-0.2245,-0.1828,-0.1326,-0.1074,-0.0904,-0.0766,-0.0484,-0.0336,-0.0452,0.0062,0.0579,0.1011,0.1158,0.1377,0.1779,0.1903,0.2025,0.2197,0.3028,0.3467,0.3467,0.4323,0.4925,0.5222,0.5222,0.5489,0.5984,0.5984,0.6042,0.6173,0.5728,0.5514,0.5466,0.4597,0.4079,0.3684,0.2493,0.1512,0.0567,-0.1046,-0.2654,-0.4362,-0.6908,-0.8398,0.0,0.0,-1.0732,-1.1391,-1.2763,-1.3262,-1.3362,-1.3478,-1.3482,-1.3341,-1.2758,-1.272,-1.3041,-1.3731,-1.497,-1.6369,-1.7751,-1.909,-2.0178,-2.0651,-2.201,-2.2968,-2.2546,-2.2833,-2.3407,-2.4387,-2.3636,-2.3242,-2.4171,-2.4209,-2.412,-2.412,-2.4927,-2.5732,-2.6472,-2.7586,-2.7983,-2.7359,-2.8351,-2.9039,-2.909,-2.8154,-2.7623,-2.7654,-2.6846,-2.6468,-2.6638,-2.6792,-2.6805,-2.6737,-2.6737,-2.642,-2.5816,-2.6177,-2.6474,-2.6748,-2.6764,-2.6363,-2.5641,-2.4639,-2.424,-2.4225,-2.3882,-2.396,-2.422,-2.3837,-2.3453,-2.2922,0.0,-0.2231,-0.1931,-0.1678,-0.1644,-0.1427,-0.079,-0.0588,-0.0387,-0.005,0.0118,0.0242,0.0355,0.0658,0.1038,0.1451,0.157,0.183,0.2264,0.2359,0.2618,0.3076,0.4128,0.4835,0.5128,0.6197,0.6874,0.7157,0.7367,0.77,0.8165,0.8385,0.8459,0.8434,0.8017,0.7677,0.7344,0.6396,0.5626,0.4985,0.4154,0.3085,0.188,0.0959,0.0,-0.1228,-0.4295,-0.5819,0.0,0.0,-0.8277,-0.9121,-1.0258,-1.0927,-1.1249,-1.1102,-1.1172,-1.1384,-1.1699,-1.2011,-1.2527,-1.3581,-1.4647,-1.5851,-1.7357,-1.7978,-1.8496,-1.9474,-2.0476,-2.1189,-2.1377,-2.1591,-2.2133,-2.336,-2.2661,-2.2265,-2.3172,-2.3181,-2.3066,-2.2934,-2.2903,-2.3098,-2.3604,-2.5542,-2.6607,-2.6231,-2.7506,-2.817,-2.7855,-2.7009,-2.6465,-2.6325,-2.578,-2.5424,-2.5308,-2.5667,-2.5698,-2.5398,-2.5398,-2.5163,-2.4748,-2.5038,-2.5184,-2.5217,-2.5091,-2.476,-2.4244,-2.312,-2.2838,-2.3024,-2.2575,-2.2688,-2.3084,-2.3183,-2.3009,-2.2543,0.0,0.0,-0.1728,-0.089,-0.0739,-0.0723,-0.0706,-0.0319,-0.0017,0.0,0.0403,0.0824,0.1211,0.1278,0.1462,0.1947,0.2273,0.2766,0.3492,0.3781,0.4375,0.5362,0.5429,0.5958,0.6989,0.7051,0.756,0.8528,0.9333,1.008,1.0799,1.1567,1.1539,1.0785,1.0029,0.9134,0.8123,0.7515,0.6754,0.5898,0.5008,0.43,0.3612,0.2549,0.1388,-0.0028,-0.2984,0.0,0.0,-0.5558,-0.63,-0.6852,-0.7647,-0.7709,-0.7716,-0.9005,-0.887,-0.865,-1.008,-1.0193,-1.0447,-1.2677,-1.4143,-1.5225,-1.6079,-1.7158,-1.7879,-1.749,-1.8362,-1.9407,-2.0108,-2.0829,-2.1471,-2.1896,-2.1948,-2.1624,-2.082,-2.1489,-2.1907,-2.1502,-2.2308,-2.2341,-2.0878,-2.296,-2.4973,-2.6399,-2.6543,-2.6696,-2.6937,-2.5634,-2.5262,-2.6074,-2.421,-2.3812,-2.5094,-2.4612,-2.4723,-2.5398,-2.5398,-2.5384,-2.5356,-2.4776,-2.4526,-2.4497,-2.3903,-2.364,-2.3571,-2.2884,-2.2263,-2.1767,-2.1744,-2.1744,-2.1698,-2.1199,-2.1298,-2.1559,0.0,0.0,0.0,0.0,0.0,-0.0235,-0.0235,-0.0101,0.0118,0.042,0.0839,0.0,0.0,0.0,0.0,0.0,0.2815,0.3239,0.3702,0.4444,0.5119,0.5664,0.6725,0.7455,0.7824,0.8991,0.9914,1.0512,1.1354,1.2153,1.2832,1.3114,1.3216,1.3112,1.2375,1.157,1.0684,0.998,0.9111,0.8095,0.6887,0.5829,0.4768,0.3355,0.2174,0.1167,0.0,0.0,-0.2326,-0.3065,-0.38,-0.4513,-0.5083,-0.559,-0.6049,-0.6522,-0.687,-0.7217,-0.7628,-0.86,-0.9758,-1.1019,-1.257,-1.4101,-1.5334,-1.6033,-1.6619,-1.7204,-1.7396,-1.7502,-1.7769,-1.8127,-1.8399,-1.8449,-1.8443,-1.8689,-1.9444,-1.8985,-1.9117,-2.0661,-2.0368,-2.0444,-2.1421,-2.2639,-2.3248,-2.3011,-2.4548,-2.5373,-2.5117,-2.492,-2.4621,-2.4255,-2.2982,-2.2354,-2.2515,-2.2079,-2.1961,-2.2201,-2.2039,-2.2242,-2.2813,-2.3111,-2.299,-2.2602,-2.33,-2.3119,-2.2307,-2.1675,-2.1532,-2.1649,-2.1245,-2.1342,-2.1627,-2.1061,-2.0955,-2.0933,0.0,0.0,0.0,0.0,0.0,0.0,0.0,0.0,0.0,0.0,0.0,0.0,0.0,0.0,0.0,0.0,0.0,0.3676,0.4001,0.4613,0.5305,0.6044,0.7081,0.7858,0.8378,0.9819,1.0747,1.1107,1.2438,1.3364,1.3937,1.4418,1.466,1.4711,1.4089,1.33,1.238,1.1454,1.0422,0.9291,0.7878,0.6706,0.5666,0.4151,0.3185,0.0,0.0,0.0,-0.0232,-0.1027,-0.1861,-0.2644,-0.2942,-0.3462,-0.4029,-0.4357,-0.4874,-0.5526,-0.629,-0.7466,-0.869,-0.9682,-1.0968,-1.2186,-1.3147,-1.3933,-1.4641,-1.5355,-1.5619,-1.5764,-1.601,-1.6305,-1.6555,-1.6517,-1.6716,-1.7188,-1.811,-1.7753,-1.8018,-1.9572,-1.9367,-1.9565,-2.09,-2.1502,-2.1745,-2.1565,-2.3064,-2.3711,-2.3021,-2.3389,-2.3293,-2.263,-2.2001,-2.1525,-2.1274,-2.0837,-2.0533,-2.0342,-2.0189,-2.0205,-2.0431,-2.0924,-2.0743,-2.0102,-2.1563,-2.1521,-2.049,-2.0677,-2.0867,-2.0988,-2.0584,-2.067,-2.0946,-2.0374,-2.004,-1.9775,0.0,0.0,0.0,0.0,0.0,0.0,0.0,0.0,0.0,0.0,0.0,0.0,0.0,0.0,0.0,0.0,0.0,0.0,0.4361,0.0,0.0,0.6554,0.666,0.7312,0.867,0.958,1.018,1.0466,1.2541,1.3764,1.4212,1.5425,1.5796,1.5414,1.4982,1.4214,1.3082,1.1814,1.0632,0.9484,0.7925,0.6937,0.6262,0.4925,0.0,0.0,0.0,0.0,0.1827,0.0522,-0.0486,-0.1204,-0.126,-0.1446,-0.1801,-0.2594,-0.2984,-0.3635,-0.5932,-0.6702,-0.7207,-0.8652,-0.9362,-0.9744,-0.9873,-1.1007,-1.204,-1.212,-1.309,-1.4022,-1.4587,-1.5219,-1.5714,-1.5938,-1.6472,-1.6849,-1.6804,-1.7618,-1.8224,-1.8201,-1.9061,-1.9538,-1.9228,-1.9538,-2.0363,-2.185,-2.2103,-2.1801,-2.09,-2.1261,-2.143,-2.1397,-2.1241,-2.1174,-2.1263,-2.0739,-2.0227,-1.9806,-1.9806,-1.9321,-1.8447,-1.8498,-1.8024,-1.7299,-1.8881,-1.9072,-1.8378,-1.9911,-2.0209,-1.9695,-1.9695,-1.9695,-1.9633,-1.9083,-1.8572,-1.8188,0.0,0.0,0.0,0.0,0.0,0.0,0.0,0.0,0.0,0.0,0.0,0.0,0.0,0.0,0.0,0.0,0.0,0.0,0.4099,0.0,0.0,0.0,0.0,0.0,0.0,0.0,0.0,1.1291,1.2487,1.3436,1.4123,1.4453,1.4573,1.4439,1.3968,1.3315,1.2463,1.1391,1.0559,0.9818,0.0,0.7067,0.6541,0.0,0.0,0.0,0.0,0.2768,0.2259,0.1576,0.0888,0.0178,-0.0718,-0.1484,-0.206,-0.2083,-0.273,-0.3643,-0.4355,-0.5294,-0.6367,-0.7599,-0.8716,-0.9586,-0.9734,-1.0244,-1.0606,-1.0422,-1.0539,-1.0629,-1.0547,-1.131,-1.2164,-1.2892,-1.3301,-1.4032,-1.5495,-1.5006,-1.5077,-1.6687,-1.6601,-1.6789,-1.7713,-1.7713,-1.8002,-1.881,-2.0833,-2.1944,-2.1709,-2.2116,-2.2066,-2.1428,-2.0639,-1.9947,-1.9312,-1.8876,-1.8543,-1.8339,-1.8339,-1.8167,-1.7835,-1.8312,-1.8132,-1.7558,-1.8396,-1.84,-1.7828,-1.8216,-1.8294,-1.8167,-1.8167,-1.8167,-1.812,-1.7676,-1.741,-1.7217,0.0,0.0,0.0,0.0,0.0,0.0,0.0,0.0,0.0,0.0,0.0,0.0,0.0,0.0,0.0,0.0,0.0,0.0,0.0,0.0,0.0,0.0,0.0,0.0,0.0,0.0,0.0,0.0,0.0,0.0,1.328,1.3671,1.3926,1.4086,1.3646,1.3212,1.2739,1.1387,0.0,0.0,0.0,0.0,0.0,0.0,0.0,0.0,0.0,0.2995,0.2491,0.1917,0.1169,0.0392,-0.0294,-0.0853,-0.1286,-0.151,-0.205,-0.277,-0.3665,-0.4548,-0.548,-0.6491,-0.7426,-0.8062,-0.8001,-0.8593,-0.9052,-0.8627,-0.8891,-0.9051,-0.8541,-0.9449,-1.0515,-1.1146,-1.1844,-1.2791,-1.4194,-1.3828,-1.3975,-1.5346,-1.5429,-1.5783,-1.6818,-1.6774,-1.6864,-1.7336,-1.909,-2.0148,-2.0262,-2.087,-2.0895,-2.0196,-1.9976,-1.9494,-1.8607,-1.8188,-1.7767,-1.7326,-1.7326,-1.7081,-1.6641,-1.7002,-1.6758,-1.6115,-1.7171,-1.7213,-1.6617,-1.7317,-1.7605,-1.7605,-1.7605,-1.7605,-1.7572,-1.7357,-1.7014,-1.6564,0.0,0.0,0.0,0.0,0.0,0.0,0.0,0.0,0.0,0.0,0.1678,0.0,0.0,0.0,0.0,0.0,0.0,0.0,0.0,0.0,0.0,0.0,0.0,0.0,0.0,0.0,0.0,0.0,0.0,0.0,0.0,0.0,0.0,0.0,0.0,0.0,0.0,0.0,0.0,0.0,0.0,0.0,0.0,0.0,0.0,0.0,0.0,0.3156,0.2478,0.1831,0.0953,0.0095,0.0029,-0.0088,-0.0293,-0.0937,-0.1224,-0.1667,-0.3385,-0.4052,-0.4549,-0.5568,-0.6034,-0.6197,-0.5895,-0.6691,-0.7365,-0.6894,-0.7671,-0.827,-0.7781,-0.8888,-1.0086,-1.0571,-1.1633,-1.2565,-1.2973,-1.3461,-1.3843,-1.4044,-1.4629,-1.53,-1.5918,-1.5861,-1.6051,-1.6587,-1.7038,-1.7533,-1.8014,-1.8893,-1.9068,-1.8431,-1.9114,-1.9041,-1.8158,-1.7943,-1.7369,-1.6529,-1.6634,-1.6239,-1.541,-1.541,-1.4981,-1.4346,-1.5757,-1.5939,-1.5321,-1.6732,-1.7302,-1.7302,-1.7302,-1.7302,-1.728,-1.7186,-1.6614,-1.5913,0.0,0.0,0.0,0.0,0.0,0.0,0.0,0.0,0.0,0.0,0.151,0.2064,0.0,0.0,0.0,0.0,0.0,0.0,0.0,0.0,0.0,0.0,0.0,0.0,0.0,0.7746,0.8374,0.9094,0.9747,0.0,0.0,0.0,0.0,0.0,0.0,0.0,0.0,0.0,0.0,0.0,0.0,0.0,0.0,0.0,0.0,0.0,0.3615,0.2891,0.1945,0.0,0.1319,0.0668,0.0157,-0.0491,-0.0972,-0.0379,-0.0739,-0.1547,-0.2758,-0.3133,-0.3619,-0.5482,-0.5993,-0.602,-0.5966,-0.5964,-0.5839,-0.5367,-0.5838,-0.6595,-0.7516,-0.8888,-1.0344,-1.1729,-1.2576,-1.2832,-1.2191,-1.2611,-1.2842,-1.2396,-1.22,-1.2564,-1.3666,-1.3117,-1.3359,-1.5042,-1.525,-1.6166,-1.8159,-1.9221,-1.9065,-1.7495,-1.7266,-1.674,-1.5787,-1.6499,-1.6416,-1.5556,-1.6329,-1.6239,-1.541,-1.541,-1.5332,-1.5195,-1.5458,-1.5496,-1.5386,-1.5688,-1.5767,-1.5767,-1.5767,-1.5767,-1.5687,-1.4957,-1.4597,-1.4366,0.0,0.0,0.0,0.0,0.0,0.0,0.0,-0.0151,0.0084,0.0303,0.0906,0.1526,0.2034,0.2304,0.2504,0.0,0.0,0.0,0.0,0.0,0.0,0.0,0.0,0.0,0.0,0.7176,0.7594,0.8006,0.0,0.9013,0.9279,0.9663,0.9828,0.9828,0.9828,0.9469,0.8827,0.0,0.0,0.7396,0.6494,0.5719,0.0,0.0,0.0,0.0,0.0,0.2597,0.1844,0.1456,0.0922,0.0393,0.0096,-0.0303,-0.053,-0.0123,-0.0286,-0.0829,-0.1809,-0.2515,-0.3369,-0.4846,-0.5691,-0.6047,-0.5619,-0.5417,-0.5159,-0.4473,-0.4667,-0.5136,-0.5665,-0.6915,-0.8538,-1.0617,-1.1646,-1.2318,-1.2747,-1.2804,-1.2623,-1.2144,-1.1697,-1.1615,-1.2225,-1.1891,-1.209,-1.3218,-1.3815,-1.4988,-1.6911,-1.7498,-1.7455,-1.6807,-1.6389,-1.5975,-1.5508,-1.5752,-1.5781,-1.5617,-1.6071,-1.61,-1.5752,-1.5752,-1.5752,-1.5732,-1.5508,-1.511,-1.4716,-1.5206,-1.4974,-1.4392,-1.5119,-1.541,-1.5361,-1.4923,-1.4494,-1.4046,0.0,0.0,0.0,0.0,0.0,0.0,0.0,-0.0391,-0.012,-0.0017,0.0325,0.0855,0.1641,0.1895,0.2146,0.0,0.0,0.0,0.0,0.0,0.0,0.0,0.0,0.0,0.0,0.0,0.0,0.7207,0.7938,0.0,0.0,0.0,0.0,0.0,0.9165,0.8697,0.7928,0.7411,0.7025,0.0,0.0,0.526,0.0,0.0,0.0,0.0,0.0,0.2409,0.1887,0.1161,0.0487,0.0,0.0,0.0,0.0,0.0,0.0,-0.0195,-0.1115,-0.2193,-0.3285,-0.43,-0.5389,-0.6037,-0.5379,-0.5147,-0.4864,-0.406,-0.4055,-0.4255,-0.4477,-0.5432,-0.7017,-0.9531,-1.0385,-1.1396,-1.316,-1.283,-1.2396,-1.2418,-1.1692,-1.1294,-1.1568,-1.1283,-1.1327,-1.1937,-1.2706,-1.3919,-1.5723,-1.5727,-1.5708,-1.5839,-1.5503,-1.5247,-1.5064,-1.4944,-1.5008,-1.529,-1.5493,-1.5557,-1.5527,-1.5527,-1.5501,-1.5406,-1.5045,-1.4379,-1.365,-1.4521,-1.4155,-1.3168,-1.44,-1.4903,-1.4884,-1.4724,-1.4213,-1.361,0.0,0.0,0.0,0.0,0.0,0.0,0.0,-0.0666,-0.0488,-0.0054,0.0036,0.0253,0.0759,0.1159,0.1563,0.0,0.0,0.0,0.0,0.0,0.0,0.0,0.0,0.0,0.0,0.0,0.0,0.7544,0.829,0.0,0.0,0.0,0.0,0.0,0.0,0.767,0.7182,0.6755,0.0,0.0,0.0,0.0,0.0,0.0,0.0,0.0,0.0,0.2389,0.188,0.1154,0.0504,0.0,0.0,0.0,0.0,0.0,0.0,-0.0244,-0.1276,-0.2222,-0.3187,-0.4377,-0.5349,-0.5925,-0.5623,-0.5332,-0.4924,-0.4281,-0.4177,-0.4615,-0.5937,-0.6543,-0.7683,-1.0266,-0.9918,-1.012,-1.2546,-1.1898,-1.1565,-1.2634,-1.1432,-1.0936,-1.2118,-1.0906,-1.0649,-1.2145,-1.2125,-1.315,-1.565,-1.5458,-1.4836,-1.3973,-1.3906,-1.3499,-1.2627,-1.3433,-1.3688,-1.3364,-1.4207,-1.4272,-1.3663,-1.3663,-1.352,-1.3272,-1.323,-1.2848,-1.2307,-1.2957,-1.2814,-1.2282,-1.2966,-1.3221,-1.3137,-1.247,-1.2175,-1.2024,0.0,0.0,0.0,0.0,0.0,0.0,-0.1527,-0.1353,-0.1036,-0.0492,-0.0491,-0.0327,0.0219,0.0418,0.08,0.1514,0.0,0.0,0.0,0.0,0.0,0.0,0.0,0.0,0.0,0.0,0.5393,0.5553,0.613,0.0,0.0,0.0,0.0,0.0,0.0,0.636,0.5473,0.5308,0.0,0.0,0.0,0.0,0.0,0.0,0.0,0.0,0.0,0.0,0.1354,0.0609,0.021,0.0,0.0,0.0,0.0,0.0,0.0,-0.009,-0.0527,-0.1755,-0.3028,-0.3578,-0.4823,-0.5789,-0.5403,-0.5081,-0.4694,-0.4097,-0.4021,-0.4247,-0.4861,-0.5218,-0.6122,-0.8136,-0.8199,-0.8727,-1.0757,-1.0627,-1.0771,-1.1899,-1.0743,-1.0353,-1.1633,-1.0633,-1.0422,-1.1651,-1.1278,-1.1728,-1.3359,-1.3116,-1.2912,-1.2865,-1.2704,-1.2516,-1.2298,-1.2659,-1.307,-1.3487,-1.3828,-1.3953,-1.3835,-1.3835,-1.3637,-1.3345,-1.3099,-1.2355,-1.1343,-1.2524,-1.215,-1.0982,-1.2429,-1.3009,-1.2967,-1.267,-1.2282,-1.1853,0.0,0.0,0.0,0.0,0.0,-0.2175,-0.2074,-0.1862,-0.1533,-0.1041,-0.099,-0.0817,-0.0273,-0.0216,0.0088,0.0843,0.1208,0.0,0.0,0.0,0.0,0.0,0.0,0.0,0.0,0.0,0.4412,0.4412,0.4809,0.5209,0.0,0.0,0.5833,0.5515,0.0,0.0,0.0,0.0,0.0,0.0,0.0,0.0,0.0,0.0,0.0,0.0,0.0,0.0,0.0,0.0,0.0,0.0,0.0,0.0,0.0,0.0,-0.0181,-0.0374,-0.0377,-0.1803,-0.3336,-0.346,-0.4624,-0.5576,-0.5181,-0.4867,-0.4505,-0.3965,-0.3957,-0.4062,-0.4062,-0.4294,-0.5032,0.0,-0.6801,-0.7457,-0.9545,-0.955,-0.9756,-1.0897,-0.9846,-0.9509,-1.0737,-1.0367,-1.0452,-1.1487,-1.1022,-1.1096,-1.1977,-1.1637,-1.1657,-1.2158,-1.2094,-1.2098,-1.2298,-1.2305,-1.2629,-1.328,-1.328,-1.3244,-1.3179,-1.3281,-1.3023,-1.2562,-1.2367,-1.1575,-1.0496,-1.1773,-1.1356,-1.0063,-1.1674,-1.2274,-1.2281,-1.2078,-1.1688,-1.1235,0.0,0.0,0.0,0.0,0.0,0.0,-0.2246,-0.2082,-0.1899,-0.1633,-0.1425,-0.1144,-0.0728,-0.0695,-0.0499,-0.0036,0.0556,0.0,0.0,0.0,0.0,0.0,0.0,0.0,0.0,0.0,0.4888,0.4888,0.517,0.5303,0.5298,0.5039,0.4813,0.4607,0.0,0.0,0.0,0.0,0.0,0.0,0.0,0.0,0.0,0.0,0.0,0.0,0.0,0.0,0.0,0.0,0.0,0.0,0.0,0.0,0.0,0.0,-0.0612,-0.1289,-0.1286,-0.2691,-0.4246,-0.4429,-0.4951,-0.5358,-0.5133,-0.4785,-0.4406,-0.408,-0.4112,-0.4194,-0.4194,-0.4365,-0.5032,-0.6639,-0.6068,-0.6425,-0.9294,-0.8739,-0.8492,-0.9745,-0.8812,-0.8415,-0.9423,-1.0064,-1.0803,-1.1828,-1.159,-1.1642,-1.2265,-1.1744,-1.1563,-1.1899,-1.2151,-1.2298,-1.2305,-1.2305,-1.2305,-1.2298,-1.2298,-1.1844,-1.1042,-1.1323,-1.0949,-1.014,-1.0466,-1.0288,-0.9755,-1.0376,-1.0268,-0.9762,-1.0389,-1.0624,-1.0551,-0.9966,-0.9715,-0.9628,0.0,0.0,0.0,0.0,0.0,0.0,0.0,-0.3035,-0.2799,-0.1981,-0.1904,-0.1703,-0.1162,-0.1109,-0.1113,-0.1102,-0.0256,0.0,0.0,0.0,0.0,0.0,0.0,0.0,0.0,0.0,0.2651,0.2651,0.2829,0.2907,0.2904,0.3013,0.287,0.2564,0.2652,0.2496,0.0,0.0,0.0,0.0,0.0,0.0,0.1885,0.0,0.0,0.0,0.0,0.0,0.0,0.0,0.0,0.0,0.0,0.0,0.0,-0.1227,-0.1197,-0.1004,-0.0913,-0.2065,-0.335,-0.351,-0.4057,-0.456,-0.451,-0.4311,-0.4104,-0.3904,-0.396,-0.4099,-0.4177,-0.4365,-0.4717,-0.5411,-0.5275,-0.5614,-0.7153,-0.7061,-0.7317,-0.8604,-0.8819,-0.8751,-0.836,-0.8291,-0.8779,-1.002,-0.919,-0.8989,-0.9876,-0.9957,-1.0632,-1.2128,-1.2094,-1.2098,-1.2298,-1.2104,-1.204,-1.204,-1.204,-1.1584,-1.0747,-1.1202,-1.0909,-1.0134,-1.0459,-1.0258,-0.9755,-1.0352,-1.0244,-0.9769,-1.0358,-1.0593,-1.0573,-1.0385,-1.0184,-0.9953,0.0,0.0,0.0,0.0,0.0,0.0,0.0,-0.3697,-0.3478,-0.2704,-0.261,-0.2353,-0.164,-0.1556,-0.1576,-0.1591,-0.098,0.0,0.0,0.0,0.0,0.0,0.0,0.0,0.1677,0.1677,0.1669,0.1676,0.1764,0.1792,0.1807,0.1966,0.1885,0.1612,0.178,0.164,0.0,0.0,0.0,0.0,0.0,0.0,0.0509,0.0,0.0,0.0,0.0,0.0,0.0,0.0,0.0,0.0,0.0,0.0,0.0,0.0,-0.1806,-0.1578,-0.1592,-0.2489,-0.3425,-0.3591,-0.3877,-0.4127,-0.4184,-0.4058,-0.3924,-0.3883,-0.4134,-0.4324,-0.4304,-0.4541,-0.4741,-0.4819,-0.507,-0.543,-0.5972,-0.6143,-0.6426,-0.715,-0.7728,-0.7937,-0.7631,-0.7416,-0.7811,-0.9028,-0.8357,-0.8187,-0.8953,-0.9183,-0.9857,-1.1059,-1.0998,-1.0955,-1.1095,-1.093,-1.098,-1.1205,-1.1349,-1.1129,-1.0613,-1.1162,-1.0909,-1.0134,-1.0459,-1.0385,0.0,-1.0445,-1.0378,-1.0084,-1.0445,-1.0593,-1.0579,-1.0466,-1.0274,-1.01,0.0,0.0,0.0,0.0,0.0,0.0,0.0,-0.4091,-0.3865,-0.3603,-0.3386,-0.2949,-0.2145,-0.2047,-0.1964,-0.1727,0.0,0.0,0.0,0.0,0.0,0.0,0.0,0.0,0.1511,0.1553,0.1542,0.1538,0.1555,0.1566,0.1567,0.1582,0.1506,0.1389,0.1384,0.1274,0.1024,0.0,0.0,0.0,-0.1808,-0.1808,0.0,0.0,0.0,0.0,0.0,0.0,0.0,0.0,0.0,0.0,0.0,0.0,0.0,0.0,0.0,0.0,0.0,-0.363,-0.418,-0.4389,-0.4185,-0.3987,-0.4113,-0.3957,0.0,-0.4012,-0.4469,-0.4806,-0.4573,-0.486,-0.5032,-0.4758,-0.5315,-0.5739,-0.561,-0.5854,-0.5928,-0.561,-0.5864,-0.6336,-0.7086,-0.7224,-0.7614,-0.8565,-0.8639,-0.8768,-0.9059,-0.9054,-0.9025,-0.889,-0.9001,-0.907,-0.9083,-0.9083,-0.9353,-0.9978,-1.0272,-1.0408,-1.0388,-1.0949,-1.0725,-0.9945,-1.0271,-1.0428,-1.0428,-1.0428,-1.046,-1.0498,-1.0498,-1.0561,-1.0559,-1.0247,-1.0147,-1.0107,0.0,0.0,0.0,0.0,0.0,0.0,0.0,0.0,0.0,0.0,-0.3062,-0.2759,-0.2563,-0.253,-0.259,0.0,0.0,0.0,0.0,0.0,0.0,0.0,0.0,0.0,-0.0965,-0.0943,-0.0948,-0.0958,-0.0842,-0.0804,-0.0795,-0.0646,-0.0592,-0.0624,-0.0619,-0.073,-0.0944,-0.1271,0.0,0.0,-0.1808,-0.1808,0.0,0.0,0.0,0.0,-0.1808,-0.1796,0.0,0.0,0.0,0.0,0.0,0.0,0.0,0.0,-0.3474,-0.3427,-0.3589,0.0,-0.3428,-0.3744,-0.3646,-0.3504,0.0,-0.3683,-0.3791,-0.4283,-0.4498,-0.4648,-0.4782,-0.5179,-0.5345,-0.4935,-0.5301,-0.563,-0.5596,-0.5945,-0.6047,-0.5511,-0.6016,-0.6266,-0.6015,-0.6333,-0.6618,-0.6885,-0.6885,-0.6904,-0.6984,-0.6859,-0.6768,-0.673,-0.6676,-0.7358,-0.8872,-0.8776,-0.8676,-0.8641,-0.8844,-0.8624,-0.8108,-0.8777,-0.8756,-0.814,-0.8472,-0.8608,-0.8608,-0.8608,-0.9,-0.9594,-0.9594,-1.0009,-1.0586,-1.0512,-1.0486,-1.0479,0.0,0.0,0.0,0.0,0.0,0.0,0.0,0.0,0.0,0.0,0.0,-0.3495,-0.3323,-0.3303,0.0,0.0,0.0,0.0,0.0,0.0,0.0,0.0,0.0,-0.208,-0.1798,-0.1798,-0.1778,-0.1715,-0.1686,-0.1612,-0.1457,-0.145,-0.1393,-0.1303,-0.1304,-0.1607,-0.21,-0.2125,-0.2317,-0.2635,-0.2635,0.0,0.0,0.0,0.0,0.0,-0.2635,-0.2635,0.0,-0.2635,-0.2635,-0.2679,0.0,0.0,0.0,0.0,-0.3809,-0.3665,-0.3924,-0.36,-0.3293,-0.369,-0.3542,-0.34,-0.3782,-0.3778,-0.3849,-0.4378,-0.4604,-0.4721,-0.486,-0.5172,-0.5325,-0.5152,-0.5267,-0.543,-0.5569,-0.5835,-0.587,-0.5539,-0.5794,-0.5955,-0.5803,-0.6135,-0.6371,-0.6306,-0.63,-0.6269,-0.6159,-0.6142,-0.6071,-0.5928,-0.5911,-0.6371,-0.742,-0.7307,-0.7316,-0.753,-0.7717,-0.7699,-0.7517,-0.8125,-0.8169,-0.7748,-0.7827,-0.7925,-0.7984,-0.7909,-0.8191,-0.8716,-0.8716,-0.9005,-0.9454,-0.9849,-1.0009,-1.0047,0.0,0.0,0.0,0.0,0.0,0.0,0.0,0.0,0.0,0.0,0.0,0.0,0.0,0.0,0.0,0.0,0.0,0.0,0.0,0.0,0.0,0.0,-0.3106,-0.284,-0.2294,-0.2308,-0.2268,-0.2113,-0.2197,-0.2081,-0.1813,-0.1924,-0.1867,-0.1719,-0.1744,-0.2214,-0.2978,-0.2945,-0.3296,-0.384,-0.3755,0.0,0.0,0.0,0.0,0.0,0.0,0.0,0.0,-0.3604,-0.3604,-0.3604,-0.3604,0.0,0.0,0.0,0.0,0.0,-0.3994,-0.3725,-0.348,-0.395,-0.3708,-0.3494,-0.4066,0.0,-0.3935,-0.4481,-0.4772,-0.4935,-0.5013,-0.5197,-0.5356,-0.5368,-0.5274,-0.5299,-0.5616,-0.5694,-0.5691,-0.5599,-0.561,-0.5713,-0.5929,-0.6264,-0.6429,-0.631,-0.63,-0.6242,-0.6071,-0.6146,-0.6108,-0.581,-0.5884,-0.5878,-0.5769,-0.565,-0.5902,-0.6453,-0.6714,-0.7014,-0.7322,-0.7752,-0.7807,-0.7595,-0.7407,-0.7431,-0.759,-0.7433,-0.7531,-0.78,-0.78,-0.7897,-0.8091,-0.8844,-0.9107,-0.9204,0.0,0.0,0.0,0.0,0.0,0.0,0.0,0.0,0.0,0.0,0.0,0.0,0.0,0.0,0.0,0.0,0.0,0.0,0.0,0.0,0.0,-0.4914,-0.4909,-0.474,-0.4421,-0.4642,-0.4646,-0.44,-0.4237,-0.4141,-0.4084,-0.3773,-0.3616,-0.3595,-0.3712,-0.3953,-0.4325,-0.4714,-0.4943,-0.5005,-0.4478,0.0,0.0,0.0,0.0,0.0,0.0,0.0,0.0,-0.3604,-0.3604,-0.3604,-0.3604,0.0,0.0,0.0,0.0,0.0,-0.3494,-0.358,-0.3832,-0.431,-0.3989,-0.3666,-0.409,-0.3893,-0.388,-0.4833,-0.5032,-0.5147,-0.5437,-0.6125,-0.6286,-0.5295,-0.5467,-0.5759,-0.5899,-0.6179,-0.619,-0.565,-0.6125,-0.6322,-0.5878,-0.6153,-0.6323,-0.6303,-0.63,-0.6289,-0.6265,-0.6,-0.585,-0.5803,-0.5617,-0.5549,-0.5623,-0.5599,-0.5514,-0.5353,-0.5548,-0.5596,-0.5512,-0.5734,-0.5841,-0.5785,-0.576,-0.5763,-0.5782,-0.576,-0.6216,-0.6915,-0.6915,-0.734,-0.8027,-0.8156,-0.8188,-0.8285,0.0,0.0,0.0,0.0,0.0,0.0,0.0,0.0,0.0,0.0,0.0,0.0,0.0,0.0,0.0,0.0,0.0,0.0,0.0,0.0,-0.6225,-0.6225,-0.6225,-0.5875,-0.5135,-0.5231,-0.5197,-0.5015,-0.4989,-0.4898,-0.4754,-0.457,-0.4436,-0.4335,-0.4495,-0.4719,-0.4979,-0.5127,-0.5234,-0.5291,0.0,0.0,0.0,0.0,0.0,0.0,0.0,0.0,0.0,0.0,-0.3734,-0.3464,-0.3358,0.0,0.0,0.0,0.0,0.0,-0.3445,-0.3489,-0.3714,-0.4514,-0.4167,-0.3866,-0.4827,-0.4365,-0.4036,-0.5243,-0.5015,-0.479,-0.5399,-0.5803,-0.6006,-0.5779,-0.6183,-0.6464,-0.6295,-0.6247,-0.619,-0.6081,-0.6227,-0.6261,-0.6105,-0.6286,-0.6381,-0.6306,-0.63,-0.6262,-0.6139,-0.6003,-0.5888,-0.5803,-0.5596,-0.5552,-0.5589,-0.5542,-0.5429,-0.5257,-0.5361,-0.5281,-0.5103,-0.5324,-0.5395,-0.5388,-0.5274,-0.5317,-0.5388,-0.527,-0.5542,-0.6009,-0.6009,-0.6239,-0.6662,-0.7116,-0.76,-0.8021,0.0,0.0,0.0,0.0,0.0,0.0,0.0,0.0,0.0,0.0,0.0,0.0,0.0,0.0,0.0,0.0,0.0,0.0,0.0,-0.7294,-0.7335,-0.7217,-0.7217,-0.6708,-0.563,-0.5663,-0.5613,-0.5453,-0.5558,-0.5458,-0.5203,-0.5066,-0.4985,-0.498,-0.5143,-0.5347,-0.5598,-0.5571,-0.5605,-0.5712,0.0,0.0,0.0,0.0,0.0,0.0,0.0,0.0,0.0,0.0,0.0,0.0,0.0,0.0,0.0,-0.3182,-0.3172,-0.3192,-0.3378,-0.3412,-0.3593,-0.4463,-0.4141,-0.3993,-0.546,-0.4758,-0.4192,-0.5616,-0.5189,-0.4739,-0.5481,-0.5549,-0.5696,-0.6303,-0.6742,-0.6953,-0.6757,-0.6454,-0.6323,-0.6556,-0.6349,-0.622,-0.634,-0.6419,-0.6416,-0.631,-0.6265,-0.6156,-0.6,-0.5929,-0.5888,-0.5803,-0.563,-0.5552,-0.5589,-0.5474,-0.5395,-0.5395,-0.5395,-0.533,-0.5189,-0.5341,-0.5395,-0.5388,-0.5237,-0.525,-0.5385,-0.5233,-0.5254,-0.5395,-0.5395,-0.5395,-0.5495,-0.6137,-0.6822,-0.7405,0.0,0.0,0.0,0.0,0.0,0.0,0.0,0.0,0.0,0.0,0.0,0.0,0.0,0.0,0.0,0.0,0.0,0.0,0.0,-0.8119,-0.8349,-0.785,-0.7829,-0.7415,-0.6521,-0.6757,-0.675,-0.6488,-0.6507,-0.6363,-0.6097,-0.554,-0.5559,-0.608,-0.6092,-0.6257,-0.6514,-0.6757,-0.6875,-0.6851,-0.6633,0.0,0.0,0.0,0.0,0.0,0.0,0.0,0.0,0.0,0.0,0.0,0.0,0.0,-0.3077,-0.2956,-0.3088,-0.3236,-0.3007,-0.3253,-0.3646,-0.3971,-0.3829,-0.3993,-0.546,-0.4758,-0.4283,-0.5928,-0.5873,-0.5637,-0.6146,-0.5999,-0.5966,-0.6569,-0.6705,-0.6868,-0.7299,-0.7163,-0.6974,-0.6866,-0.6753,-0.66,-0.6511,-0.6385,-0.631,-0.63,-0.6129,-0.6003,-0.5993,-0.5772,-0.5677,-0.5796,-0.5559,-0.5481,-0.5589,-0.5474,-0.5395,-0.5395,-0.5395,-0.5388,-0.5378,-0.5388,-0.5395,-0.5395,-0.5382,-0.5385,-0.5395,-0.5382,-0.5385,-0.5395,-0.5395,-0.5395,-0.5395,-0.5458,-0.5524,-0.5591,0.0,0.0,0.0,0.0,0.0,0.0,0.0,0.0,0.0,0.0,0.0,-0.6088,-0.6648,0.0,0.0,0.0,0.0,0.0,0.0,-0.808,-0.8306,-0.839,-0.8398,-0.8253,-0.791,-0.7672,-0.7515,-0.7399,-0.7749,-0.7753,-0.7447,-0.7686,-0.7497,-0.697,-0.7426,-0.7341,-0.6847,-0.6953,-0.7,-0.7018,-0.7306,-0.7023,0.0,0.0,0.0,0.0,0.0,0.0,0.0,0.0,-0.3647,-0.2953,-0.2876,-0.2849,-0.2839,-0.2781,-0.2913,-0.305,-0.3027,-0.3216,-0.3596,-0.4362,-0.4073,-0.402,-0.5583,-0.5043,-0.4679,-0.6213,-0.5878,-0.5386,-0.5689,-0.6064,-0.6464,-0.679,-0.6997,-0.7143,-0.7217,-0.7058,-0.691,-0.6803,-0.6651,-0.6576,-0.6518,-0.6381,-0.63,-0.63,-0.6118,-0.5993,-0.5993,-0.5749,-0.5613,-0.5667,-0.5501,-0.5423,-0.5481,-0.5423,-0.5395,-0.5395,-0.5395,-0.5395,-0.5395,-0.5395,-0.5395,-0.5395,-0.5395,-0.5395,-0.5395,-0.5395,-0.5395,-0.5395,-0.5395,-0.5453,-0.5525,-0.5533,-0.5511,-0.5528,0.0,0.0,0.0,0.0,0.0,0.0,0.0,0.0,-0.6373,0.0,0.0,0.0,0.0,-0.7117,0.0,0.0,0.0,0.0,-0.8303,-0.8583,-0.8783,-0.895,-0.8958,-0.8878,-0.8695,-0.85,-0.8316,-0.8152,-0.8407,-0.8475,-0.837,-0.8773,-0.846,-0.7621,-0.8121,-0.7957,-0.7312,-0.7312,-0.7307,-0.7335,-0.7912,-0.7575,0.0,0.0,0.0,0.0,0.0,0.0,0.0,0.0,-0.3863,-0.3125,-0.2794,-0.2696,-0.2706,-0.2757,-0.2859,-0.298,-0.3074,-0.3249,-0.3596,-0.4405,-0.4066,-0.3938,-0.5583,-0.522,-0.4952,-0.6281,-0.6061,-0.563,-0.5678,-0.6187,-0.6597,-0.6702,-0.6926,-0.7085,-0.7031,-0.6906,-0.68,-0.6647,-0.6576,-0.6494,-0.645,-0.6358,-0.6279,-0.6193,-0.6044,-0.5902,-0.5891,-0.5654,-0.5542,-0.5589,-0.5474,-0.5419,-0.5467,-0.5419,-0.5395,-0.5395,-0.5395,-0.5395,-0.5395,-0.5395,-0.5395,-0.5395,-0.5395,-0.5395,-0.5395,-0.5395,-0.5395,-0.5395,-0.5395,-0.5494,-0.5586,-0.5539,-0.5562,-0.5583,0.0,0.0,0.0,0.0,0.0,0.0,0.0,0.0,-0.8492,-0.7974,-0.7624,0.0,0.0,0.0,0.0,0.0,0.0,0.0,-0.9013,-0.982,-1.0059,-0.9538,-0.9498,-0.9259,-0.8716,-0.9239,-0.9239,-0.8716,-0.839,-0.8398,-0.8707,-0.8381,-0.8158,-0.8024,-0.8024,-0.8024,-0.8005,-0.8005,-0.798,-0.7951,-0.8483,-0.8014,-0.7047,0.0,0.0,0.0,0.0,0.0,0.0,0.0,-0.4136,-0.3673,-0.2925,-0.2699,-0.2733,-0.2869,-0.2993,-0.3104,-0.3108,-0.3347,-0.3672,-0.3923,-0.3641,-0.3735,-0.5416,-0.522,-0.4989,-0.6078,-0.6491,-0.6603,-0.6344,-0.63,-0.6306,-0.6296,-0.6419,-0.658,-0.6839,-0.6751,-0.66,-0.6488,-0.6468,-0.6413,-0.6313,-0.6257,-0.6193,-0.6003,-0.5851,-0.5739,-0.5596,-0.5477,-0.5467,-0.5583,-0.5474,-0.5467,-0.5586,-0.547,-0.5395,-0.5395,-0.5395,-0.5395,-0.5395,-0.5395,-0.5395,-0.5395,-0.5395,-0.5395,-0.5395,-0.5395,-0.5395,-0.5395,-0.5395,-0.5498,-0.5573,-0.5438,-0.5474,-0.5575,0.0,0.0,0.0,0.0,0.0,0.0,0.0,0.0,-0.7652,-0.8069,-0.8024,0.0,0.0,0.0,0.0,0.0,0.0,0.0,-0.9428,-0.9664,-0.9886,-1.0069,-1.0059,-0.9981,-0.9824,-0.9649,-0.9649,-0.9824,-0.9722,-0.9741,-0.9814,-0.9732,-0.9463,-0.9061,-0.9345,-0.9108,-0.8515,-0.8803,-0.8745,-0.85,-0.8842,-0.8175,-0.7071,0.0,0.0,0.0,0.0,0.0,0.0,0.0,0.0,0.0,-0.2895,-0.2822,-0.3042,-0.3303,-0.3313,-0.3309,-0.3644,-0.3566,-0.3519,-0.4028,-0.3974,-0.3954,-0.4544,-0.4753,-0.5087,-0.5925,-0.6166,-0.6105,-0.5736,-0.623,-0.6593,-0.6169,-0.5876,-0.5692,-0.5509,-0.4803,-0.4252,-0.4112,-0.4101,-0.4406,-0.5121,-0.4505,-0.4599,-0.5918,-0.5177,-0.4961,-0.5558,-0.5477,-0.5416,-0.5463,-0.5419,-0.5416,-0.5463,-0.5419,-0.5395,-0.5395,-0.5395,-0.5395,-0.5395,-0.5395,-0.5395,-0.5395,-0.5395,-0.5395,-0.5395,-0.5395,-0.5395,-0.5395,-0.5498,-0.5622,-0.5741,-0.5791,-0.5779,-0.5742,0.0,0.0,0.0,0.0,0.0,0.0,-0.8984,-0.862,-0.8409,-0.8688,-0.8604,-0.877,0.0,0.0,0.0,-0.9575,-0.9592,0.0,0.0,-0.9505,-0.9728,-1.001,-1.0205,-1.0215,-1.0029,-0.9747,-0.9659,-0.9775,-0.9775,-0.9775,-0.9775,-0.9775,-0.9513,-0.9078,-0.9477,-0.9351,-0.8847,-0.9246,-0.9153,-0.8762,-0.9055,-0.8331,-0.7157,0.0,0.0,0.0,0.0,0.0,0.0,0.0,0.0,0.0,-0.3228,-0.317,-0.3388,-0.3395,-0.3456,-0.3549,-0.3788,-0.3708,-0.3728,-0.4405,-0.4324,-0.4156,-0.4426,-0.4739,-0.5218,-0.6081,-0.6247,-0.6122,-0.589,-0.6318,-0.6463,-0.5679,-0.537,-0.5009,-0.4389,-0.3692,-0.3175,-0.3129,-0.3085,-0.3346,-0.4011,-0.3463,-0.3552,-0.4686,-0.4086,-0.3924,-0.4429,-0.4697,-0.4686,-0.435,-0.4652,-0.4855,-0.4855,-0.4855,-0.5024,-0.5395,-0.5395,-0.5395,-0.5395,-0.5395,-0.5395,-0.5395,-0.5395,-0.5395,-0.5395,-0.5395,-0.5395,-0.5395,-0.5498,-0.5608,-0.5737,-0.5751,-0.5742,-0.5701,0.0,0.0,-0.9725,-1.0215,0.0,0.0,-1.0303,-1.0264,-1.005,-0.9571,-0.9242,-0.916,0.0,0.0,0.0,-0.9516,-0.9534,-0.9396,0.0,-0.9348,-0.9534,-0.9534,-0.9951,-0.998,-0.9562,-0.9513,-0.9309,-0.8945,-0.8984,-0.9004,-0.9004,-0.8965,-0.877,-0.8473,-0.8838,-0.9004,-0.9033,-0.9474,-0.9365,-0.8892,-0.9202,-0.8512,-0.734,-0.7533,0.0,0.0,0.0,0.0,0.0,0.0,0.0,0.0,-0.374,-0.3566,-0.3697,-0.3293,-0.349,-0.3795,-0.3747,-0.3846,-0.4142,-0.4783,-0.4442,-0.4141,-0.4735,-0.4883,-0.5214,-0.6414,-0.6529,-0.6417,-0.6364,-0.6341,-0.5981,-0.4924,-0.4688,-0.4288,-0.335,-0.301,-0.2812,-0.2812,-0.2806,-0.286,-0.2959,-0.2859,-0.2835,-0.2882,-0.2825,-0.2751,-0.2714,-0.3447,-0.3513,-0.2711,-0.348,-0.3882,-0.3882,-0.3882,-0.4317,-0.516,-0.516,-0.516,-0.516,-0.5329,-0.5395,-0.5395,-0.5395,-0.5395,-0.5395,-0.5395,-0.5395,-0.5395,-0.5428,-0.5428,-0.5462,-0.5428,-0.5454,-0.5478,0.0,0.0,-1.0157,-1.0283,0.0,0.0,-1.0244,-0.9942,-0.9644,-0.9591,-0.9522,-0.9378,-0.9138,-0.905,0.0,-0.9123,-0.9123,-0.9084,-0.9014,-0.9075,-0.9123,-0.9123,-0.9228,-0.9238,-0.9123,-0.8818,-0.862,-0.8532,-0.8848,-0.9004,-0.8994,-0.8688,-0.8659,-0.8877,-0.8965,-0.9004,-0.9053,-0.9814,-0.9866,-0.9438,-0.9505,-0.8977,-0.8104,-0.7745,-0.6949,0.0,0.0,0.0,0.0,0.0,0.0,0.0,-0.3654,-0.3476,-0.3675,-0.3765,-0.3869,-0.4041,-0.4511,-0.4243,-0.3812,-0.3705,-0.3006,-0.273,-0.4381,-0.3854,-0.3703,-0.5922,-0.6135,-0.579,-0.5196,-0.5155,-0.4866,-0.3671,-0.2919,-0.2334,-0.2017,-0.1218,-0.0666,-0.0666,-0.0655,-0.0996,-0.1825,-0.1145,-0.1287,-0.2771,-0.2113,-0.1955,-0.2678,-0.2878,-0.2878,-0.2711,-0.2878,-0.2978,-0.2978,-0.2978,-0.3078,-0.328,-0.328,-0.328,-0.3345,-0.4755,-0.5395,-0.5395,-0.5395,-0.5395,-0.5395,-0.5395,-0.5395,-0.5395,-0.5531,-0.512,-0.461,-0.5428,-0.5201,-0.4586,0.0,0.0,0.0,0.0,0.0,0.0,0.0,0.0,-0.9488,-0.9331,-0.9309,-0.9231,-0.9023,-0.9004,0.0,0.0,-0.8718,-0.8613,-0.8392,-0.8594,-0.8799,-0.8994,-0.9004,-0.8906,-0.8711,-0.8512,-0.8297,-0.8066,-0.8275,-0.8383,-0.8373,-0.8364,-0.8465,-0.8688,-0.9076,-0.9249,-0.9291,-0.9926,-0.9835,-0.9248,-0.9053,-0.8576,-0.7923,-0.7447,-0.6771,-0.6132,-0.6389,0.0,0.0,0.0,0.0,0.0,0.0,0.0,-0.3849,-0.3714,-0.3826,-0.4048,-0.4314,-0.4304,-0.4137,-0.3725,-0.3404,-0.3266,-0.3564,-0.3215,-0.3168,-0.4496,-0.4629,-0.4378,-0.4022,-0.3995,-0.3671,-0.2546,-0.2,-0.1509,-0.0904,-0.0353,0.0,0.0,0.0,-0.0226,-0.0783,-0.0324,-0.0421,-0.1436,-0.099,-0.0907,-0.1376,-0.181,-0.1843,-0.141,-0.181,-0.2043,-0.2043,-0.2043,-0.2243,-0.2711,-0.2711,-0.2711,-0.2744,-0.4115,-0.4722,-0.4722,-0.4722,-0.4486,-0.4118,-0.4118,-0.4112,-0.4105,-0.4171,-0.39,-0.3566,-0.4095,-0.3959,-0.3542,0.0,0.0,0.0,0.0,0.0,0.0,0.0,0.0,0.0,-0.8955,-0.8896,-0.8867,-0.8789,-0.8772,-0.8643,0.0,0.0,0.0,-0.7725,-0.8066,-0.8418,-0.877,-0.8772,-0.8623,-0.8287,-0.8277,-0.8086,-0.7695,-0.7773,-0.7955,-0.8229,-0.8563,-0.8755,-0.8849,-0.9514,-0.9653,-0.9407,-0.9824,-0.9614,-0.8966,-0.8567,-0.8138,-0.768,-0.7135,-0.6732,-0.6473,-0.6642,-0.6328,-0.5848,-0.6138,0.0,0.0,0.0,0.0,-0.4011,-0.349,-0.3684,-0.3986,-0.3788,-0.3949,-0.413,-0.4014,-0.3952,-0.3614,-0.2587,-0.2445,-0.2579,-0.2572,-0.2842,-0.3049,-0.2879,-0.2827,-0.2496,-0.1477,-0.1307,-0.1015,-0.0118,0.0,0.0,0.0,0.0,0.0,0.0,0.0,0.0,0.0,0.0,0.0,0.0,-0.0669,-0.0735,-0.0034,-0.0702,-0.1068,-0.1073,-0.1073,-0.1475,-0.2243,-0.2243,-0.231,-0.2477,-0.3211,-0.3613,-0.3782,-0.3782,-0.338,-0.2711,-0.2711,-0.2704,-0.2694,-0.2699,-0.2601,-0.2469,-0.2624,-0.2591,-0.2477,0.0,0.0,0.0,0.0,0.0,0.0,0.0,0.0,0.0,0.0,-0.8483,-0.8336,-0.7924,-0.787,-0.7856,-0.7793,-0.7783,-0.7763,-0.7705,0.0,0.0,-0.787,-0.787,-0.7841,-0.7798,-0.7783,-0.7754,-0.7695,-0.8105,-0.8983,-1.0306,-1.0357,-1.057,-1.0905,-1.1006,-1.0262,-0.8923,-0.9385,-0.9518,-0.9376,-0.898,-0.8787,-0.8592,-0.7489,-0.7041,-0.6941,-0.6507,-0.6304,-0.6155,-0.5758,-0.5186,0.0,0.0,0.0,-0.3653,-0.3593,-0.3842,-0.4056,-0.3582,-0.274,-0.232,-0.3676,-0.2303,-0.0828,-0.1541,-0.1038,-0.04,-0.0426,-0.1848,-0.2841,-0.1964,-0.1785,-0.1441,-0.0377,-0.0228,-0.0153,-0.0039,0.0,0.0,0.0,0.0,0.0,0.0,0.0,0.0,0.0,0.0,0.0,0.0,-0.0099,-0.0131,0.0,-0.0099,-0.0164,-0.0168,-0.0168,-0.0236,-0.037,-0.037,-0.0773,-0.1507,-0.1608,-0.2108,-0.2878,-0.2878,-0.2811,-0.2711,-0.2711,-0.2704,-0.2696,-0.2688,-0.219,-0.1581,-0.2386,-0.2186,-0.1616,0.0,0.0,0.0,0.0,0.0,0.0,0.0,0.0,0.0,0.0,0.0,-0.7924,-0.7725,-0.7899,-0.8033,-0.8033,-0.8209,-0.8237,-0.8048,-0.8033,-0.7932,-0.771,-0.7695,-0.7695,-0.7695,-0.7695,-0.7695,-0.7695,-0.8164,-0.9793,-1.2446,-1.268,-1.2346,-1.1625,-1.2788,-1.185,-0.9482,-1.0633,-1.0478,-0.9384,-0.8767,-0.8528,-0.8459,-0.7467,-0.7096,-0.7077,-0.6832,-0.6459,-0.6098,-0.6192,-0.5584,-0.4771,-0.4812,0.0,0.0,0.0,-0.3698,-0.3651,-0.3407,-0.2736,-0.2202,-0.2571,-0.1782,-0.0872,-0.0721,-0.0334,0.0,0.0,-0.0731,-0.1241,-0.0779,-0.0705,-0.0555,-0.0073,0.0,0.0,0.0,0.0,0.0,0.0,0.0,0.0,0.0,0.0,0.0,0.0,0.0,0.0,0.0,0.0,0.0,0.0,0.0,0.0,0.0,0.0,0.0,0.0,0.0,-0.0202,-0.0572,-0.0572,-0.1074,-0.1909,-0.1909,-0.1642,-0.1176,-0.1176,-0.1174,-0.1173,-0.1178,-0.0944,-0.0607,-0.1043,-0.0942,-0.064,0.0,0.0,0.0,0.0,0.0,0.0,0.0,0.0,0.0,0.0,0.0,-0.7875,-0.7966,0.0,0.0,0.0,-0.8662,-0.8651,-0.8322,-0.8305,-0.8119,-0.771,-0.7695,-0.7695,-0.7695,-0.7695,-0.7695,-0.7695,-0.8164,-1.005,-1.321,-1.4032,-1.3763,-1.268,-1.4225,-1.3514,-1.1224,-1.2052,-1.1536,-1.0095,-0.9398,-0.8839,-0.8361,-0.7664,-0.7347,-0.7246,-0.7133,-0.6654,-0.6114,-0.645,-0.5793,-0.4848,-0.4977,-0.4488,0.0,0.0,0.0,-0.2967,-0.3234,-0.2601,-0.1827,-0.1638,-0.1394,-0.0973,-0.0182,0.0,0.0,0.0,0.0,0.0,0.0,0.0,0.0,0.0,0.0,0.0,0.0,0.0,0.0,0.0,0.0,0.0,0.0,0.0,0.0,0.0,0.0,0.0,0.0,0.0,0.0,0.0,0.0,0.0,0.0,0.0,0.0,0.0,0.0,0.0,0.0,0.0,-0.037,-0.0973,-0.0973,-0.0605,0.0,0.0,0.0,0.0,0.0,0.0,0.0,0.0,0.0,0.0,0.0,0.0,0.0,0.0,0.0,0.0,0.0,0.0,0.0,0.0,0.0,-0.8393,-0.8706,-0.8761,-0.8775,-0.8775,-0.8789,-0.8651,-0.8322,-0.8305,-0.8119,-0.771,-0.7695,0.0,-0.7695,-0.7695,-0.7695,-0.7695,-0.8164,-0.9473,-1.1574,-1.3502,-1.4566,-1.4835,-1.4876,-1.4796,-1.4532,-1.3044,-1.235,-1.2214,-1.1781,-1.0467,-0.8734,-0.8386,-0.7999,-0.7622,-0.7246,-0.6835,-0.642,-0.606,-0.5354,-0.4568,-0.4334,-0.4143,-0.391,0.0,0.0,0.0,-0.3039,-0.1754,-0.0371,-0.1348,-0.0847,-0.0058,0.0,0.0,0.0,0.0,0.0,0.0,0.0,0.0,0.0,0.0,0.0,0.0,0.0,0.0,0.0,0.0,0.0,0.0,0.0,0.0,0.0,0.0,0.0,0.0,0.0,0.0,0.0,0.0,0.0,0.0,0.0,0.0,0.0,0.0,0.0,0.0,0.0,0.0,-0.0034,-0.0067,-0.0067,-0.0034,0.0,0.0,0.0,0.0,0.0,0.0,0.0,0.0,0.0,0.0,0.0,0.0,0.0,0.0,0.0,0.0,0.0,0.0,0.0,0.0,0.0,0.0,0.0,-0.9021,-0.9195,-0.9195,-0.9383,-0.9251,-0.8651,-0.862,-0.834,-0.7725,-0.7695,-0.7695,-0.7695,-0.7695,-0.7695,-0.7695,-0.8164,-0.9266,-1.098,-1.2,-1.323,-1.4643,-1.7005,-1.6292,-1.3396,-1.494,-1.3747,-1.0957,-1.2699,-1.1564,-0.8876,-0.9564,-0.946,-0.8788,-0.7841,-0.7752,-0.7912,-0.6688,-0.5906,-0.5342,-0.4814,-0.4357,-0.3895,-0.3338,-0.2523,-0.1884,-0.2239,-0.1201,-0.0082,-0.0468,-0.0292,0.0137,0.061,0.0324,0.0257,0.1102,0.1135,0.1156,0.1526,0.1284,0.0818,0.0111,0.0586,0.0803,0.0111,0.0,0.0,0.0,0.0,0.0,0.0,0.0,0.0,0.0,0.0,0.0,0.0,0.0,0.0,0.0,0.0,0.0,0.0,0.0,0.0,0.0,0.0,0.0,0.0,0.0,0.0,0.0,0.0,0.0,0.0,0.0,0.0,0.0,0.0,0.0,0.0,0.0,0.0,0.0,0.0,0.0,0.0,-0.8474,0.0,-0.8537,-0.8761,-0.8803,-0.8844,-0.8981,0.0,0.0,0.0,0.0,-0.9567,-0.9567,-0.9764,-0.9646,-0.9035,-0.8871,-0.8537,-0.7928,-0.7768,-0.7763,-0.7924,-0.7934,-0.7934,-0.7934,-0.8248,-0.8929,-0.9942,-1.0776,-1.2005,-1.3626,-1.6618,-1.6514,-1.4224,-1.6455,-1.5475,-1.2534,-1.396,-1.2966,-1.0683,-1.0984,-1.0727,-1.0142,-0.9734,-0.9516,-0.9267,-0.8183,-0.7406,-0.6704,-0.5589,-0.4632,-0.3831,-0.3317,-0.2663,-0.2069,-0.186,-0.1069,-0.0256,-0.0058,0.0,0.0135,0.0632,0.035,0.0262,0.1143,0.1193,0.1313,0.2054,0.2129,0.1862,0.1159,0.1629,0.1731,0.07,0.0553,0.041,0.0038,0.0,0.0,0.0,0.0,0.0,0.0,0.0,0.0,0.0,0.0,0.0,0.0,0.0,0.0,0.0,0.0,0.0,0.0,0.0,0.0,0.0,0.0,0.0,0.0,0.0,0.0,0.0,0.0,0.0,0.0,0.0,0.0,0.0,0.0,0.0,0.0,-0.9485,-0.9124,-0.8803,-0.8816,-0.8816,-0.8816,-0.883,-0.883,-0.8967,-0.9356,0.0,0.0,0.0,0.0,0.0,-0.9905,-0.9905,-0.9751,-0.9422,-0.9021,-0.8648,-0.8319,-0.7924,-0.7934,-0.8385,-0.8404,-0.8404,-0.8395,-0.8395,-0.8385,-0.8411,-0.9911,-1.1034,-1.1864,-1.3495,-1.5352,-1.7262,-1.7373,-1.7322,-1.7077,-1.5715,-1.4759,-1.4028,-1.2619,-1.1797,-1.1559,-1.2861,-1.2044,-1.0377,-1.0437,-0.9768,-0.8567,-0.6524,-0.4935,-0.3753,-0.3426,-0.302,-0.2573,0.0,0.0,0.0,-0.0179,0.0,0.0,0.0026,0.003,0.0,0.0067,0.0037,0.0353,0.1445,0.246,0.3124,0.3124,0.3142,0.2795,0.1739,0.1589,0.1185,0.0118,0.0,0.0,0.0,0.0,0.0,0.0,0.0,0.0,0.0,0.0,0.0,0.0,0.0,0.0,0.0,0.0,0.0,0.0,0.0,0.0,0.0,0.0,0.0,0.0,0.0,0.0,0.0,0.0,0.0,0.0,0.0,0.0,0.0,0.0,0.0,0.0,-0.899,-0.8878,-0.8885,-0.9182,-0.9235,-0.9316,-0.9568,-0.9595,-0.9646,0.0,0.0,0.0,0.0,0.0,-0.9905,-0.9905,-0.9905,-0.9751,-0.9422,-0.9021,-0.8648,-0.8319,-0.8239,-0.8268,-0.8395,-0.8688,-0.8698,0.0,0.0,0.0,0.0,0.0,-0.8813,-0.9377,-1.1285,-1.2835,-1.4153,-1.6423,-1.5517,-1.2939,-1.7349,-1.6022,-1.1797,-1.5341,-1.4335,-1.1297,-1.3198,-1.3155,-1.2129,-1.1868,-1.069,-0.8903,-0.6409,-0.4915,-0.4076,-0.3971,-0.3293,-0.2537,-0.2461,0.0,0.0,0.0,0.0,0.0,0.0672,0.0397,0.026,0.1235,0.1297,0.1396,0.2107,0.3355,0.4021,0.324,0.3767,0.3637,0.1861,0.1615,0.1198,0.0121,0.0,0.0,0.0,0.0,0.0,0.0,0.0,0.0,0.0,0.0,0.0,0.0,0.0,0.0,0.0,0.0,0.0,0.0,0.0,0.0,0.0,0.0,0.0,0.0,0.0,0.0,0.0,0.0,0.0,0.0,0.0,0.0,0.0,0.0,0.0,0.0,-0.9264,-0.9264,-0.9331,-0.9568,-0.9607,-0.9673,-0.9867,-0.9905,-0.9905,0.0,0.0,0.0,0.0,0.0,0.0,-0.9905,-0.9905,-0.9815,-0.962,-0.9251,-0.8885,-0.8523,-0.8581,-0.8622,-0.8649,-0.9053,0.0,0.0,0.0,0.0,0.0,0.0,0.0,-0.835,-0.9533,-1.0642,-1.1817,-1.4363,-1.4953,-1.445,-1.768,-1.7371,-1.525,-1.7788,-1.6913,-1.4496,-1.5928,-1.5728,-1.4693,-1.4091,-1.2052,-0.949,-0.7756,-0.6123,-0.479,-0.4623,-0.3974,-0.3215,0.0,0.0,-0.1605,-0.1101,0.0,0.0,0.048,0.0312,0.0235,0.0999,0.1026,0.1243,0.2294,0.3251,0.3776,0.3513,0.4066,0.3819,0.1875,0.16,0.1182,0.0124,0.0,0.0,0.0,0.0,0.0,0.0,0.0,0.0,0.0,0.0,0.0,0.0,0.0,0.0,0.0,0.0,0.0,0.0,0.0,0.0,0.0,0.0,0.0,0.0,0.0,0.0,0.0,0.0,0.0,0.0,0.0,0.0,0.0,0.0,0.0,0.0,0.0,-0.9905,-0.9905,-0.9905,-0.9905,-0.9905,-0.9905,-0.9905,-0.9905,0.0,0.0,0.0,0.0,0.0,0.0,0.0,-0.9905,-0.9905,-0.9905,-0.9581,-0.9222,-0.8816,-0.8916,-0.898,-0.8994,-0.9445,0.0,0.0,0.0,0.0,0.0,0.0,0.0,0.0,-0.829,-0.8987,-1.0244,-1.1781,-1.4764,-1.8387,-1.7349,-1.8597,-2.0944,-1.9944,-1.924,-1.8917,-1.9565,-1.8763,-1.7277,-1.634,-1.3652,-1.0587,-0.9843,-0.7952,-0.5908,-0.537,-0.4835,0.0,0.0,0.0,0.0,-0.1574,-0.1191,0.0,-0.0277,-0.0063,0.0,0.0,0.0,0.0456,0.1952,0.2494,0.2904,0.3572,0.394,0.3591,0.1968,0.1638,0.123,0.025,0.0042,0.0,0.0,0.0,0.0,0.0,0.0,0.0,0.0,0.0,0.0,0.0,0.0,0.0,0.0,0.0,0.0,0.0,0.0,0.0,0.0,0.0,0.0,0.0,0.0,0.0,0.0,0.0,0.0,0.0,0.0,0.0,0.0,0.0,0.0,0.0,-0.9905,-0.9905,-0.9905,-0.9905,-0.9905,-0.9905,-0.9905,-0.9905,-0.9905,-0.9905,-0.9905,0.0,0.0,0.0,0.0,0.0,-0.9905,-0.9905,-0.9905,-0.9581,-0.9222,-0.8816,-0.9222,-0.9324,-0.9004,-0.9756,-0.998,0.0,0.0,0.0,0.0,0.0,0.0,0.0,-0.8148,-0.8861,-0.9842,-1.0496,-1.2466,-1.5376,-1.8105,-1.8808,-1.8582,-2.1303,-2.0174,-1.7452,-1.9633,-1.912,-1.7212,-1.5913,-1.4759,-1.3436,-1.0643,-0.892,-0.7686,-0.6375,-0.5229,-0.436,-0.4163,-0.3436,-0.2742,-0.2721,-0.1821,0.0,-0.1033,-0.0504,0.0,0.0,0.0,0.0108,0.0433,0.1707,0.2458,0.1784,0.2926,0.3535,0.2634,0.1981,0.1441,0.0958,0.0382,0.0,0.0,0.0,0.0,0.0,0.0,0.0,0.0,0.0,0.0,0.0,0.0,0.0,0.0,0.0,0.0,0.0,0.0,0.0,0.0,0.0,0.0,0.0,0.0,0.0,0.0,0.0,0.0,0.0,0.0,0.0,0.0,0.0,0.0,0.0,-0.9905,-0.9905,-0.9993,-1.0244,-1.0294,-1.0394,-1.0696,-1.0747,-1.0747,-1.0747,-1.0495,0.0,0.0,0.0,0.0,0.0,0.0,0.0,0.0,0.0,-0.9222,-0.8816,-0.9083,-0.9164,-0.9004,-0.9629,-0.9961,0.0,0.0,0.0,0.0,0.0,0.0,0.0,-0.8259,-0.8994,-1.0059,-1.0263,-1.1827,-1.4454,-1.7448,-1.8669,-1.9002,-2.1969,-2.1766,-1.9937,-2.0426,-1.9361,-1.7476,-1.6146,-1.5415,-1.4662,-1.2321,-1.047,-0.8812,-0.7149,-0.5997,-0.5198,-0.4683,-0.4123,-0.3598,-0.319,-0.2607,0.0,0.0,-0.0924,-0.0531,-0.0103,0.0,0.0106,0.0379,0.1234,0.1697,0.1091,0.1806,0.2308,0.1941,0.1579,0.1136,0.0609,0.0216,0.0,0.0,0.0,0.0,0.0,0.0,0.0,0.0,0.0,0.0,0.0,0.0,0.0,0.0,0.0,0.0,0.0,0.0,0.0,0.0,0.0,0.0,0.0,0.0,0.0,0.0,0.0,0.0,0.0,0.0,0.0,0.0,0.0,0.0,0.0,-1.0056,-1.0056,-1.0232,-1.0783,-1.0871,-1.1034,-1.154,-1.1603,-1.1603,-1.1603,0.0,0.0,0.0,0.0,0.0,0.0,0.0,0.0,0.0,-1.0017,-0.9678,-0.8959,-0.9072,-0.9144,-0.9121,-0.9523,-0.9932,-1.0303,0.0,0.0,0.0,0.0,0.0,0.0,0.0,-0.9308,-1.0635,-1.0635,-1.2006,-1.4372,-1.6602,-1.8203,-1.9561,-2.1938,-2.2583,-2.2066,-2.0796,-1.9332,-1.7812,-1.6535,-1.5811,-1.5209,-1.3823,-1.1802,-0.9649,-0.8067,-0.6939,-0.6031,-0.5214,-0.4896,-0.4596,-0.3711,-0.3506,-0.318,0.0,0.0,0.0,-0.0439,-0.0244,-0.0035,0.0592,0.0923,0.1051,0.097,0.1135,0.1271,0.1129,0.1097,0.0974,0.0567,0.0211,0.0087,0.0307,0.0132,0.0,0.0,0.0,0.0,0.0,0.0,0.0,0.0,0.0,0.0,0.0,0.0,0.0,0.0,0.0,0.0,0.0,0.0,0.0,0.0,0.0,0.0,0.0,0.0,0.0,0.0,0.0,0.0,0.0,0.0,0.0,0.0,-1.0606,-1.0606,-1.0795,-1.1387,-1.1487,-1.1527,-1.159,-1.1603,0.0,0.0,0.0,0.0,-1.3473,-1.2294,-1.2005,-1.3481,-1.3132,-1.2184,-1.072,-1.1576,-1.1324,-0.9504,-0.9823,-0.9884,-0.9542,-0.999,-1.0254,-1.0303,0.0,0.0,0.0,0.0,0.0,0.0,-0.877,-0.9871,-1.1466,-1.1466,-1.2497,-1.4304,-1.6508,-1.7268,-1.7422,-2.0777,-2.0806,-1.9143,-1.9382,-1.8821,-1.7812,-1.6535,-1.6064,-1.57,-1.3886,-1.2016,-1.0373,-0.9681,-0.7928,-0.6169,-0.6063,-0.5631,-0.5181,-0.493,-0.44,-0.3857,-0.3558,0.0,-0.2281,-0.1335,0.0,-0.0912,-0.0067,0.0,0.0,0.109,0.1632,0.1855,0.119,0.1106,0.1422,0.2283,0.099,0.038,0.131,0.0569,0.0,0.0,0.0,0.0,0.0,0.0,0.0,0.0,0.0,0.0,0.0,0.0,0.0,0.0,0.0,0.0,0.0,0.0,0.0,0.0,0.0,0.0,0.0,0.0,0.0,0.0,0.0,0.0,0.0,0.0,0.0,0.0,-1.1224,-1.1224,-1.1399,-1.1964,-1.2065,-1.2178,-1.2475,0.0,0.0,0.0,0.0,-1.2583,-1.3952,-1.3468,-1.3581,-1.4909,-1.4802,-1.4224,-1.3195,-1.2514,0.0,-1.0934,-0.9994,-0.9534,-0.9592,-0.9786,-1.0029,-1.0303,-1.0303,0.0,0.0,0.0,0.0,0.0,-0.8942,-1.0028,-1.1921,-1.163,-1.2507,-1.4253,-1.5967,-1.6072,-1.5632,-1.964,-2.0261,-1.8938,-1.8382,-1.8114,-1.7628,-1.5269,-1.5696,-1.6699,-1.377,-1.2307,-1.1548,-1.0785,-0.8707,-0.6705,-0.6887,-0.6667,-0.6296,-0.6121,-0.5608,-0.5089,-0.4858,-0.3961,-0.301,-0.2255,0.0,0.0,0.0,0.0,0.0,0.0,0.0733,0.0824,0.0512,0.0453,0.0638,0.1088,0.0449,0.0193,0.0639,0.0276,0.0,0.0,0.0,0.0,0.0,0.0,0.0,0.0,0.0,0.0,0.0,0.0,0.0,0.0,0.0,0.0,0.0,0.0,0.0,0.0,0.0,0.0,0.0,0.0,0.0,0.0,0.0,0.0,0.0,0.0,0.0,0.0,-1.2015,-1.1914,-1.1989,-1.2526,-1.2613,-1.2751,-1.3135,-1.3586,-1.3754,-1.3358,-1.329,-1.3785,-1.5092,-1.4287,-1.4399,-1.6233,-1.6127,-1.5686,-1.5081,-1.3761,-1.2783,-1.2333,-1.0405,-0.965,-1.0293,-0.9971,-0.9961,-1.0303,-1.0303,0.0,0.0,0.0,0.0,0.0,-0.9166,-1.0175,-1.1883,-1.2211,-1.3259,-1.483,-1.6097,-1.6029,-1.5477,-1.8288,-1.919,-1.8821,-1.7916,-1.7759,-1.7599,-1.4971,-1.5607,-1.7009,-1.4334,-1.3126,-1.259,-1.2007,-1.0091,-0.8111,-0.812,-0.7965,-0.7686,-0.7175,-0.6839,-0.6478,-0.5796,-0.4891,-0.3994,-0.3294,-0.2959,0.0,0.0,0.0,0.0,0.0,0.0,-0.0259,-0.0032,0.0,0.0099,0.0403,0.0422,0.0314,0.0039,0.0,0.0,0.0,0.0,0.0,0.0,0.0,0.0,0.0,0.0,0.0,0.0,0.0,0.0,0.0,0.0,0.0,0.0,0.0,0.0,0.0,0.0,0.0,0.0,0.0,0.0,0.0,0.0,0.0,0.0,0.0,0.0,0.0,-1.3048,-1.2739,-1.2538,-1.3073,-1.3173,-1.3185,-1.3198,-1.4569,-1.5605,-1.5593,-1.558,-1.622,-1.789,-1.4768,-1.4053,-1.7793,-1.7174,-1.6237,-1.5444,-1.5626,-1.5054,-1.3419,-1.1363,-1.084,-1.2096,-1.0908,-1.0293,-1.0303,-1.0303,0.0,0.0,0.0,0.0,0.0,-0.9453,-1.0409,-1.12,-1.3657,-1.5278,-1.635,-1.748,-1.79,-1.7764,-1.6666,-1.7,-1.8032,-1.7993,-1.8003,-1.7803,-1.6455,-1.6085,-1.6144,-1.6025,-1.4725,-1.334,-1.3634,-1.2411,-1.076,-0.9878,-0.9633,-0.9293,-0.8009,-0.8009,-0.7925,-0.6337,-0.5859,-0.5478,-0.4526,-0.3925,-0.3381,-0.2783,0.0,0.0,0.0,0.0,0.0,0.0,0.0,0.0374,0.1432,0.1538,0.1155,0.011,0.0,0.0,0.0,0.0,0.0,0.0,0.0,0.0,0.0,0.0,0.0,0.0,0.0,0.0,0.0,0.0,0.0,0.0,0.0,0.0,0.0,0.0,0.0,0.0,0.0,0.0,0.0,0.0,0.0,0.0,0.0,0.0,0.0,-1.253,-1.2124,-1.2259,-1.3057,-1.3198,-1.3198,-1.3198,-1.3674,-1.4431,-1.5555,-1.5693,-1.6748,-1.956,-1.8696,-1.8153,-1.8743,-1.9215,-1.8634,-1.6594,-1.6365,-1.6031,-1.5492,-1.3766,-1.2623,-1.2213,-1.1775,-1.1143,-1.0303,-1.0303,0.0,0.0,0.0,0.0,0.0,0.0,-0.9516,-1.1057,-1.2173,-1.3622,-1.5265,-1.5641,-1.6346,-1.7145,-1.7305,-1.7627,-1.8008,-1.8008,-1.8008,-1.7696,-1.5754,-1.6107,-1.7084,-1.5592,-1.4888,-1.475,-1.5447,-1.3501,-1.1157,-1.1424,-1.0898,-1.0383,-1.0723,-0.9801,-0.8902,-0.929,-0.7654,-0.6091,-0.6176,-0.5525,-0.475,-0.4238,0.0,0.0,0.0,0.0,0.0,0.0,-0.0376,0.0139,0.049,0.0557,0.0386,0.0036,0.0,0.0,0.0,0.0,0.0,0.0,0.0,0.0,0.0,0.0,0.0,0.0,0.0,0.0,0.0,0.0,0.0,0.0,0.0,0.0,0.0,0.0,0.0,0.0,0.0,0.0,0.0,0.0,0.0,0.0,0.0,0.0,0.0,-1.2215,-1.1908,-1.2188,-1.2806,-1.3052,-1.3312,-1.3779,-1.384,-1.461,-1.6732,-1.6355,-1.687,-1.9483,-1.9105,-1.8667,-1.8756,-1.8916,-1.8589,-1.7643,-1.6229,-1.5855,-1.6767,-1.4639,-1.348,-1.3584,-1.2681,-1.2018,-1.165,-1.054,-0.9978,0.0,0.0,0.0,0.0,0.0,-0.886,-0.9995,-1.1522,-1.2869,-1.3996,-1.4545,-1.5384,-1.6388,-1.6959,-1.7533,-1.8008,-1.8008,-1.8008,-1.7774,-1.6287,-1.6789,-1.7745,-1.6268,-1.6012,-1.6284,-1.6513,-1.4684,-1.257,-1.2679,-1.1973,-1.1289,-1.1668,-1.0784,-1.0123,-1.1101,-0.96,-0.8112,-0.8527,-0.8003,-0.7142,-0.6041,0.0,0.0,0.0,0.0,0.0,0.0,-0.0819,-0.0346,-0.0035,0.0,0.0,0.0,0.0,0.0,0.0,0.0,0.0,0.0,0.0,0.0,0.0,0.0,0.0,0.0,0.0,0.0,0.0,0.0,0.0,0.0,0.0,0.0,0.0,0.0,0.0,0.0,0.0,0.0,0.0,0.0,0.0,0.0,0.0,0.0,0.0,-1.2208,-1.2119,-1.2381,-1.2348,-1.2792,-1.3592,-1.4845,-1.5037,-1.6061,-1.8919,-1.7542,-1.6763,-1.7977,-1.6356,-1.5927,-1.7796,-1.645,-1.6316,-1.826,-1.5398,-1.4769,-1.7331,-1.4241,-1.3633,-1.6046,-1.3691,-1.2973,-1.4104,-1.109,0.0,0.0,0.0,0.0,0.0,-0.8273,-0.8484,-0.8135,-1.1744,-1.3012,-1.2767,-1.4137,-1.5052,-1.5538,-1.5544,-1.6529,-1.7872,-1.7974,-1.8008,-1.8008,-1.7988,-1.7988,-1.7974,-1.791,-1.792,-1.7759,-1.6819,-1.586,-1.4841,-1.3645,-1.2834,-1.2037,-1.102,-1.1069,-1.1464,-1.1707,-1.1502,-1.124,-1.1249,-1.1022,-1.0165,-0.8033,-0.7578,0.0,0.0,0.0,0.0,0.0,-0.137,-0.1037,-0.0168,-0.0075,-0.0038,0.0,0.0,0.0,0.0,0.0,0.0,0.0,0.0,0.0,0.0,0.0,0.0,0.0,0.0,0.0,0.0,0.0,0.0,0.0,0.0,0.0,0.0,0.0,0.0,0.0,0.0,0.0,0.0,0.0,0.0,0.0,0.0,0.0,0.0,-1.2004,-1.1985,-1.2165,-1.1854,-1.3033,-1.4326,-1.5306,-1.5452,-1.6047,-1.7756,-1.7768,-1.7823,-1.8419,-1.8863,-1.8309,-1.6272,-1.6565,-1.6412,-1.5337,-1.5359,-1.6168,-1.7773,-1.7002,-1.6377,-1.6105,-1.5742,-1.5079,-1.4104,-1.2261,0.0,-1.0571,0.0,0.0,0.0,0.0,-0.787,-0.8049,-1.0352,-1.2014,-1.3051,-1.2286,-1.306,-1.4571,-1.3864,-1.457,-1.6088,-1.751,-1.8008,-1.7959,-1.7646,-1.7754,-1.7813,-1.6784,-1.6674,-1.6784,-1.5834,-1.4879,-1.4011,-1.3676,-1.2961,-1.2408,-1.2806,-1.2151,-1.1601,0.0,0.0,-1.0479,-1.0715,-1.0213,-0.9667,-0.9461,-0.8575,0.0,0.0,0.0,0.0,-0.3078,-0.253,-0.1837,-0.0917,-0.0913,-0.0702,-0.0067,0.0,0.0,0.0,0.0,0.0,0.0,0.0,0.0,0.0,0.0,0.0,0.0,0.0,0.0,0.0,0.0,0.0,0.0,0.0,0.0,0.0,0.0,0.0,0.0,0.0,0.0,0.0,0.0,0.0,0.0,0.0,0.0,0.0,-1.1957,-1.1924,-1.2184,-1.2171,-1.378,-1.5251,-1.5731,-1.5676,-1.6219,-1.8053,-1.7658,-1.7501,-1.8255,-1.9009,-1.8669,-1.6704,-1.6181,-1.592,-1.5801,-1.4922,-1.5469,-1.79,-1.7471,-1.6711,-1.576,-1.5794,-1.5517,-1.4897,-1.2246,0.0,-1.1858,0.0,0.0,0.0,-0.7477,-0.7732,-0.823,-0.9896,-1.1469,-1.2749,-1.1621,-1.2183,0.0,-1.3074,-1.3592,-1.4736,-1.6228,-1.6768,-1.6722,-1.6503,-1.6585,-1.6653,-1.586,-1.5791,-1.586,-1.5376,-1.4486,-1.3679,-1.3573,-1.2926,-1.2418,-1.2819,-1.2344,-1.2085,-1.3281,-1.2743,-1.2045,-1.2223,-1.1978,-1.1444,-1.0638,-0.9613,-0.8429,-0.6964,-0.5286,-0.4025,-0.3656,-0.3384,-0.2832,-0.1701,-0.153,-0.1245,-0.0541,-0.0197,0.0,0.0,0.0,0.0,0.0,0.0,0.0,0.0,0.0,0.0,0.0,0.0,0.0,0.0,0.0,0.0,0.0,0.0,0.0,0.0,0.0,0.0,0.0,0.0,0.0,0.0,0.0,0.0,0.0,0.0,0.0,0.0,-1.2153,-1.209,-1.2525,-1.3071,-1.4686,-1.6009,-1.6242,-1.6066,-1.6651,-1.8763,-1.7466,-1.6721,-1.7646,-1.791,-1.7939,-1.7773,-1.5664,-1.5313,-1.7607,-1.46,-1.428,-1.7852,-1.6956,-1.6123,-1.5648,-1.5255,-1.5414,-1.6248,-1.2008,0.0,0.0,0.0,0.0,0.0,-0.7649,-0.7953,-0.8703,-0.9909,-1.1082,-1.2144,-1.1595,-1.1891,-1.2641,-1.2781,-1.3112,-1.3637,-1.4522,-1.4985,-1.5199,-1.5199,-1.5199,-1.5163,-1.5057,-1.4985,-1.4985,-1.4879,-1.4207,-1.3469,-1.3225,-1.2748,-1.2238,-1.2027,-1.2118,-1.2624,-1.3851,-1.4134,-1.4134,-1.4134,-1.432,-1.3797,-1.1655,-1.0486,-0.9064,-0.661,-0.5396,-0.4519,-0.3706,-0.4022,-0.3802,-0.2454,-0.2156,0.0,-0.1154,-0.0441,0.0,0.0,0.0,0.0,0.0,0.0,0.0,0.0,0.0,0.0,0.0,0.0,0.0,0.0,0.0,0.0,0.0,0.0,0.0,0.0,0.0,0.0,0.0,0.0,0.0,0.0,0.0,0.0,0.0,0.0,0.0,0.0,-1.288,-1.2988,-1.3525,-1.4316,-1.4793,-1.5498,-1.6939,-1.7675,-1.7965,-1.7755,-1.7698,-1.7344,-1.6525,-1.7363,-1.7578,-1.6525,-1.6016,-1.5948,-1.6398,-1.5801,-1.6172,-1.793,-1.7793,-1.7633,-1.7532,-1.7019,-1.7223,-1.8118,-1.3844,0.0,0.0,0.0,0.0,0.0,-0.7852,-0.8551,-0.98,-0.9537,-1.0256,-1.1535,-1.1429,-1.1482,-1.169,-1.2204,-1.2467,-1.2556,-1.2732,-1.3839,-1.5199,-1.5199,-1.5199,-1.5057,-1.4207,-1.3954,-1.381,-1.3055,-1.2696,-1.2542,-1.2487,-1.2405,-1.2291,-1.2238,-1.2265,-1.2355,-1.2617,-1.2668,-1.2668,-1.2668,-1.2709,-1.2706,-1.2513,0.0,-0.8382,-0.7391,-0.5514,-0.4014,-0.3656,-0.4387,-0.4415,-0.2954,-0.3288,-0.2956,-0.1264,-0.0432,0.0,0.0,0.0,0.0,0.0,0.0,0.0,0.0,0.0,0.0,0.0,0.0,0.0,0.0,0.0,0.0,0.0,0.0,0.0,0.0,0.0,0.0,0.0,0.0,0.0,0.0,0.0,0.0,0.0,0.0,0.0,0.0,-1.4228,-1.3652,-1.3278,-1.3552,-1.4811,-1.5875,-1.6151,-1.7967,-1.897,-1.8132,-1.8012,-1.7852,-1.7441,-1.7764,-1.7754,-1.7129,-1.6486,-1.6378,-1.7031,-1.6476,-1.6682,-1.7949,-1.8008,-1.7552,-1.6615,-1.6312,-1.6334,-1.6688,-1.3115,0.0,0.0,0.0,0.0,-0.8372,-0.8704,-0.9118,-0.9677,-1.0334,-1.0922,-1.1429,-1.1924,-1.2017,-1.1911,-1.2198,-1.2305,-1.2305,-1.2305,-1.2908,-1.3694,-1.3694,-1.3694,-1.3629,-1.3127,-1.2989,-1.2879,-1.2445,-1.2305,-1.2305,-1.2305,-1.2305,-1.2305,-1.2305,-1.2305,-1.2305,-1.2305,-1.2305,-1.2305,-1.2305,-1.2305,-1.2204,-1.1933,-1.0657,-0.9303,-0.8241,-0.6529,-0.5203,-0.4802,-0.4843,-0.4591,-0.3818,-0.3889,-0.3583,-0.2499,-0.1349,-0.0499,-0.0029,0.0,0.0,0.0,0.0,-0.0291,-0.0925,-0.0858,0.0,-0.0919,0.0,-0.0554,0.0,0.0,0.0,0.0,0.0,0.0,0.0,0.0,0.0,0.0,0.0,0.0,0.0,0.0,0.0,0.0,0.0,0.0,0.0,-1.5664,-1.4766,-1.3941,-1.3812,-1.5223,-1.623,-1.584,-1.7511,-1.8803,-1.8767,-1.8408,-1.8301,-1.8695,-1.8286,-1.7862,-1.7576,-1.6899,-1.6617,-1.6823,-1.6643,-1.6679,-1.7083,-1.7504,-1.6935,-1.5301,-1.5035,-1.495,-1.5084,-1.2244,0.0,0.0,0.0,0.0,0.0,-0.9579,-0.9806,0.0,0.0,-1.175,-1.1764,-1.2502,-1.2603,-1.2305,-1.2305,-1.2305,-1.2305,-1.2305,-1.2305,-1.2305,-1.2305,-1.2305,-1.2305,-1.2305,-1.2305,-1.2305,-1.2305,-1.2305,-1.2305,-1.2305,-1.2305,-1.2305,-1.2305,-1.2305,-1.2305,-1.2305,-1.2305,-1.2305,-1.2305,-1.2305,-1.2111,-1.1517,-1.0959,0.0,-0.8993,-0.7472,-0.6224,-0.5584,-0.5045,-0.4638,-0.4419,-0.4281,-0.3994,-0.3527,-0.2427,-0.1282,-0.0218,-0.0055,-0.0111,-0.0325,-0.0126,-0.0554,-0.1726,-0.1432,-0.1298,-0.1424,0.0,-0.0851,0.0,0.0,0.0,0.0,0.0,0.0,0.0,0.0,0.0,0.0,0.0,0.0,0.0,0.0,0.0,0.0,0.0,0.0,0.0,-1.6716,-1.7077,-1.7633,-1.7974,-1.65,-1.5889,-1.772,-1.645,-1.6222,-1.8904,-1.8848,-1.8705,-1.918,-1.8496,-1.7485,-1.6224,-1.7158,-1.6449,-1.3245,-1.6037,-1.6741,-1.4302,-1.5822,-1.6235,-1.5225,-1.4296,-1.4447,-1.5702,-1.3063,-1.2073,0.0,0.0,0.0,0.0,0.0,0.0,0.0,-1.1362,-1.1911,-1.267,-1.275,-1.2603,-1.2305,-1.2305,-1.2305,-1.2305,-1.2305,-1.2305,-1.2305,-1.2305,-1.2305,-1.2305,-1.2305,-1.2305,-1.2305,-1.2305,-1.2305,-1.2305,-1.2305,-1.2305,-1.2305,-1.2305,-1.2305,-1.2305,-1.2305,-1.2305,-1.2305,-1.2305,-1.2305,-1.2358,-1.2583,-1.1184,-0.9869,-0.9463,-0.7437,-0.5558,-0.4647,-0.4624,-0.4535,-0.4111,-0.4497,-0.4378,-0.3248,-0.314,-0.2424,-0.0755,-0.0239,-0.0412,-0.14,-0.0527,-0.0483,-0.1593,-0.0652,-0.0162,-0.0173,-0.0156,-0.0096,0.0,0.0,0.0,0.0,0.0,0.0,0.0,0.0,0.0,0.0,0.0,0.0,0.0,0.0,0.0,0.0,0.0,0.0,0.0,-1.7427,-1.6733,-1.6066,-1.5418,-1.5302,-1.5438,-1.588,-1.6136,-1.6729,-1.793,-1.7497,-1.7213,-1.7676,-1.716,-1.6507,-1.5791,-1.6245,-1.587,-1.4234,-1.5504,-1.5809,-1.4706,-1.535,-1.5587,-1.5199,-1.4207,-1.4085,-1.4821,-1.2494,-1.1546,0.0,0.0,0.0,0.0,0.0,-1.157,-1.1977,-1.2338,-1.2592,-1.2784,-1.2784,-1.2603,-1.2305,-1.2305,-1.2305,-1.2305,-1.2305,-1.2305,-1.2305,-1.2305,-1.2305,-1.2305,-1.2305,-1.2305,-1.2305,-1.2305,-1.2305,-1.2305,-1.2305,-1.2305,-1.2305,-1.2305,-1.2305,-1.2305,-1.2305,-1.2305,-1.2305,-1.2305,-1.2305,-1.2285,-1.2268,-1.1916,-1.1132,-0.9643,-0.8983,-0.8119,-0.6483,-0.5944,-0.5696,-0.5641,-0.5059,-0.4561,-0.4322,-0.3695,-0.3091,-0.2609,-0.1377,-0.0657,-0.0634,-0.0845,-0.1554,-0.289,0.0,-0.1987,-0.2274,-0.1418,-0.0638,0.0,0.0,0.0,0.0,0.0,0.0,0.0,0.0,0.0,0.0,0.0,0.0,0.0,0.0,0.0,0.0,0.0,0.0,0.0,-1.7749,-1.6715,-1.5601,-1.454,-1.4953,-1.5239,-1.4501,-1.5504,-1.6254,-1.603,-1.5661,-1.5795,-1.6755,-1.6354,-1.5775,-1.5137,-1.5414,-1.5069,-1.3784,-1.4622,-1.4847,-1.401,-1.4462,-1.4629,-1.4343,-1.3629,-1.3382,-1.365,-1.2219,-1.1476,0.0,0.0,0.0,0.0,-1.2091,-1.2311,-1.2209,-1.2626,-1.2512,-1.2035,-1.1955,-1.1756,-1.1465,-1.1428,-1.1434,-1.1434,-1.1434,-1.162,-1.1848,-1.1848,-1.2077,-1.2305,-1.2305,-1.2305,-1.2305,-1.2305,-1.2305,-1.2305,-1.2305,-1.2305,-1.2305,-1.2305,-1.2305,-1.2305,-1.2305,-1.2305,-1.2305,-1.2305,-1.2305,-1.2238,-1.2037,-1.2375,-1.2035,-1.0232,-1.0211,-0.988,-0.8258,-0.7146,-0.6524,-0.6599,-0.5432,-0.4704,-0.4945,-0.4248,-0.3719,-0.359,-0.2326,-0.135,-0.089,-0.1034,-0.1755,0.0,0.0,0.0,-0.2689,-0.1652,-0.0745,0.0,0.0,0.0,0.0,0.0,0.0,0.0,0.0,0.0,0.0,0.0,0.0,0.0,0.0,0.0,0.0,0.0,0.0,0.0,-1.7595,-1.7639,-1.7805,-1.7326,-1.6373,-1.5393,-1.4532,-1.4259,-1.385,-1.2956,-1.3608,-1.4936,-1.705,-1.6517,-1.5453,-1.4051,-1.4948,-1.4053,-1.0407,-1.3339,-1.3959,-1.1174,-1.2775,-1.3273,-1.2378,-1.2335,-1.2305,-1.2305,-1.2623,-1.2315,-1.1402,0.0,-1.2278,-1.2325,-1.318,-1.2946,-1.1893,-1.1899,-1.1277,-1.021,-1.0024,-0.9762,-0.9506,-0.9377,-0.9334,-0.9334,-0.9334,-0.997,-1.0826,-1.0826,-1.1465,-1.2305,-1.2305,-1.2305,-1.2305,-1.2305,-1.2305,-1.2305,-1.2305,-1.2305,-1.2305,-1.2305,-1.2305,-1.2305,-1.2305,-1.2305,-1.2305,-1.2305,-1.2305,-1.2305,-1.2298,-1.2305,-1.2111,-1.1475,0.0,-0.9913,-0.9365,-0.7804,-0.6622,-0.6435,-0.5514,-0.4857,-0.4711,-0.4796,-0.44,-0.3195,-0.2832,-0.2725,-0.2869,0.0,0.0,-0.1607,-0.06,0.0,-0.0035,-0.0031,0.0,0.0,0.0,0.0,0.0,0.0,0.0,0.0,0.0,0.0,0.0,0.0,0.0,0.0,0.0,0.0,0.0,0.0,0.0,0.0,-1.4792,-1.5529,-1.5983,-1.4484,-1.4429,-1.4518,-1.4226,-1.4151,-1.3988,-1.3742,-1.3908,-1.4377,-1.5026,-1.4882,-1.4434,-1.3754,-1.3485,-1.2931,-1.2002,-1.2368,-1.2509,-1.2244,-1.2155,-1.1977,-1.1703,-1.1703,-1.161,-1.141,0.0,0.0,0.0,-1.1346,-1.1368,-1.1733,-1.1438,-1.1168,-1.1006,-1.0805,-1.044,-0.9988,-0.9722,-0.9511,-0.9349,-0.9322,-0.9296,-0.9296,-0.9296,-0.9523,-0.9782,-0.9782,-1.0008,-1.0233,-1.0233,-1.1211,-1.2305,-1.2305,-1.2305,-1.2305,-1.2305,-1.2305,-1.2305,-1.2305,-1.2305,-1.2305,-1.2305,-1.2305,-1.2305,-1.2305,-1.2305,-1.2305,-1.2305,-1.2305,-1.1966,-1.1004,-1.1256,0.0,-0.9395,-0.8478,-0.7676,-0.683,-0.5582,-0.4823,-0.4945,-0.5005,-0.4981,-0.4829,-0.4118,-0.3391,-0.2675,0.0,0.0,0.0,-0.2984,0.0,-0.2597,-0.0858,0.0,0.0,0.0,0.0,0.0,0.0,0.0,0.0,0.0,0.0,0.0,0.0,0.0,0.0,0.0,0.0,0.0,0.0,0.0,0.0,-1.3785,-1.4363,-1.471,-1.35,-1.3755,-1.3975,-1.3675,-1.3868,-1.3968,-1.3668,-1.3916,-1.4088,-1.4088,-1.4088,-1.4015,-1.3828,-1.3193,-1.2839,-1.2958,-1.2291,-1.2118,-1.2596,-1.2051,-1.1757,-1.1757,-1.1864,0.0,-1.0918,-1.0966,-1.1045,-1.1148,-1.0683,-1.0692,-1.1158,-1.0595,-1.0228,-0.9956,-0.9786,-0.94,-0.8835,-0.8572,-0.8444,-0.8396,-0.8281,-0.8267,-0.8267,-0.8267,-0.8449,-0.8732,-0.8732,-0.8993,-0.9296,-0.9296,-1.0158,-1.1248,-1.162,-1.1471,-1.1323,-1.2077,-1.2033,-1.1848,-1.2224,-1.2305,-1.2305,-1.2305,-1.2305,-1.2305,-1.2305,-1.2305,-1.2305,-1.2305,-1.1996,-1.1507,-1.087,-1.0991,-1.0718,-0.9432,-0.8564,-0.7807,-0.7144,-0.5754,-0.4996,-0.5315,-0.5349,-0.544,-0.5579,-0.4469,-0.3765,0.0,0.0,-0.3717,-0.4623,-0.3443,-0.2846,-0.2964,-0.0998,0.0,0.0,0.0,0.0,0.0,0.0,0.0,0.0,0.0,0.0,0.0,0.0,0.0,0.0,0.0,0.0,0.0,0.0,0.0,0.0,-1.4116,-1.4035,-1.4122,-1.4041,-1.4095,-1.3909,-1.3072,-1.3648,-1.3889,-1.3052,-1.3668,-1.4142,-1.4122,-1.4115,-1.4108,-1.4088,0.0,0.0,-1.3253,-1.2951,-1.2656,-1.2405,-1.2257,-1.2187,-1.2187,-1.2421,-1.1942,-1.0723,-0.9921,-0.9657,-0.9903,-1.001,-1.0224,-1.0456,-1.0389,-0.9749,-0.8759,-0.8759,-0.8141,-0.7058,-0.6827,-0.6797,-0.6839,-0.6597,-0.6528,-0.6525,-0.6515,-0.701,-0.7723,-0.7723,-0.8336,-0.9094,-0.9108,-0.9113,-0.9337,-1.0383,-1.0045,-0.9712,-1.1589,-1.1391,-1.0938,-1.1848,-1.2077,-1.2077,-1.2077,-1.2077,-1.2077,-1.2077,-1.209,-1.2109,-1.2109,-1.136,-1.0773,-1.0917,-1.0045,-0.9339,-0.9388,-0.8079,-0.7095,-0.7119,-0.5955,-0.5292,-0.5745,-0.5817,-0.5779,-0.5647,-0.4189,-0.4025,0.0,0.0,-0.3366,-0.3622,-0.2525,-0.1853,-0.1726,-0.0575,0.0,0.0,0.0,0.0,0.0,0.0,0.0,0.0,0.0,0.0,0.0,0.0,0.0,0.0,0.0,0.0,0.0,0.0,0.0,0.0,-1.2268,-1.3514,-1.4519,-1.3574,-1.4162,-1.4727,-1.4519,-1.466,-1.472,-1.4512,-1.4666,-1.4669,-1.4442,-1.4422,-1.4329,-1.4108,-1.3434,-1.3126,-1.3473,-1.2826,-1.2679,-1.326,-1.1814,-1.0981,-1.0981,-1.0213,-0.9856,-0.9951,-0.9762,-0.9696,-0.9751,-0.9104,-0.8844,-0.8892,-0.8214,-0.7793,-0.7536,-0.7536,-0.7294,-0.693,-0.6859,-0.6827,-0.6746,-0.6675,-0.6647,-0.663,-0.6555,-0.6647,-0.6813,-0.6813,-0.6968,-0.7189,-0.7277,-0.7319,-0.7628,-0.9201,-0.9485,-0.941,-0.99,-0.982,-0.9712,-0.9933,-1.0013,-1.0013,-1.0013,-1.0013,-1.0013,-1.0013,-1.0073,-1.0153,-1.0153,-1.0069,-1.0063,-1.0336,-0.9871,-0.9169,-0.8328,-0.7548,-0.6705,-0.5605,-0.5467,-0.5521,-0.563,-0.5986,-0.6177,0.0,-0.5755,-0.5437,-0.5138,-0.4721,-0.495,-0.6028,-0.4201,-0.317,-0.3125,-0.1034,0.0,0.0,0.0,0.0,0.0,0.0,0.0,0.0,0.0,0.0,0.0,0.0,0.0,0.0,0.0,0.0,0.0,0.0,0.0,0.0,-1.314,-1.4082,-1.4807,-1.4122,-1.4543,-1.5008,-1.5008,-1.5008,-1.5008,-1.5008,-1.5008,-1.4718,-1.392,-1.3812,-1.3522,-1.2797,-1.2635,-1.2641,-1.2823,-1.1884,-1.1498,-1.181,-1.0779,-1.0174,-1.0174,-0.973,-0.942,-0.9239,-0.8704,-0.8417,-0.8421,-0.8014,-0.7793,-0.7797,-0.7321,-0.7095,-0.7095,-0.7095,-0.7051,-0.6977,-0.6913,-0.6876,-0.6895,-0.6827,-0.6803,-0.6793,-0.6712,-0.6634,-0.6576,-0.6576,-0.6576,-0.659,-0.6675,-0.6702,-0.687,-0.7852,-0.8047,-0.8212,-0.9135,-0.9028,-0.8727,-0.9183,-0.9296,-0.9296,-0.9296,-0.9334,-0.9404,-0.9404,-0.9497,-0.9607,-0.9607,-0.9264,-0.9087,-0.9331,-0.8546,-0.7715,-0.7191,-0.6565,-0.5981,-0.5457,-0.5579,-0.5793,-0.6071,-0.6318,-0.6501,-0.6501,-0.6034,0.0,-0.5002,-0.4548,-0.4613,-0.5276,-0.3679,-0.2752,-0.2681,-0.0913,0.0,0.0,0.0,0.0,0.0,0.0,0.0,0.0,0.0,0.0,0.0,0.0,0.0,0.0,0.0,0.0,0.0,0.0,0.0,0.0,-1.4968,-1.5082,-1.5122,-1.5082,-1.5109,-1.5142,-1.5142,-1.4955,-1.4812,-1.4812,-1.4676,-1.4099,-1.2894,-1.2751,-1.2318,-1.1181,-1.154,-1.1832,-1.1792,-1.0821,-1.0171,-0.9863,-0.97,-0.9562,-0.9562,-0.9694,-0.932,-0.8436,-0.7425,-0.6916,-0.692,-0.7041,-0.7095,-0.7095,-0.7095,-0.7095,-0.7095,-0.7095,-0.7095,-0.7085,-0.6967,-0.6991,-0.7085,-0.6964,-0.6916,-0.6916,-0.6893,-0.6844,-0.6736,-0.6736,-0.6736,-0.6739,-0.6759,-0.6766,-0.6766,-0.6766,-0.6661,-0.6932,-0.8608,-0.8365,-0.782,-0.8669,-0.8875,-0.8899,-0.8899,-0.8989,-0.9074,-0.9074,-0.92,-0.9269,-0.9269,-0.8598,-0.8076,-0.8135,-0.6976,-0.6095,-0.6218,0.0,-0.5413,-0.5899,-0.5962,-0.6129,-0.6617,-0.6685,-0.6709,-0.6732,-0.57,-0.5033,-0.4896,-0.3889,-0.3203,-0.2915,-0.217,-0.1675,-0.1349,-0.0465,0.0,0.0,0.0,0.0,0.0,0.0,0.0,0.0,0.0,0.0,0.0,0.0,0.0,0.0,0.0,0.0,0.0,0.0,0.0,0.0,-1.5048,-1.5357,-1.5618,-1.5371,-1.5531,-1.5698,-1.5698,-1.4776,-1.4046,-1.4046,-1.3093,-1.2199,-1.1801,-1.1734,-1.1563,-1.1145,-1.0292,-1.02,-1.1161,-1.09,-1.0701,-1.0617,-0.9579,-0.9018,-0.9018,-0.8091,-0.7493,-0.7365,-0.7149,-0.7061,-0.7065,-0.7085,-0.7095,-0.7095,-0.7095,-0.7095,-0.7095,-0.7095,-0.7095,-0.7095,-0.7071,-0.7078,-0.7095,-0.7071,-0.7061,-0.7048,-0.6927,-0.6869,-0.6852,-0.6852,-0.6852,-0.6873,-0.6991,-0.7028,-0.7028,-0.7028,-0.6927,-0.6873,-0.7067,-0.7014,-0.6882,-0.6904,-0.7013,-0.7118,-0.7118,-0.7133,-0.7151,-0.7151,-0.7241,-0.7353,-0.7353,-0.7289,-0.721,-0.6979,-0.6567,-0.618,-0.5905,0.0,-0.5841,-0.584,-0.6264,-0.6546,-0.6552,-0.6624,-0.6756,-0.6839,-0.5792,-0.4715,-0.3859,-0.2704,-0.1599,-0.0581,-0.1358,-0.1299,-0.026,-0.0087,0.0,0.0,0.0,0.0,0.0,0.0,0.0,0.0,0.0,0.0,0.0,0.0,0.0,0.0,0.0,0.0,0.0,0.0,0.0,0.0,-1.5424,-1.5645,-1.5542,-1.4732,-1.4475,-1.422,-1.3788,-1.3204,-1.2813,-1.2813,-1.2285,-1.1565,-1.0787,-1.0681,-1.0355,-0.9504,-0.8927,-0.8831,-0.9404,-0.9194,-0.9088,-0.9088,-0.8422,-0.8023,-0.7929,-0.7488,-0.7224,-0.7095,-0.7095,-0.7095,-0.7095,-0.7095,-0.7095,-0.7095,-0.7095,-0.7095,-0.7095,-0.7095,-0.7095,-0.7102,-0.7231,-0.7214,-0.7105,-0.7234,-0.7214,-0.7098,-0.716,-0.7166,-0.7166,-0.7166,-0.7221,-0.7288,-0.7268,-0.7322,-0.7387,-0.7387,-0.7125,-0.6852,-0.6742,-0.6702,-0.6681,-0.6614,-0.6647,-0.6702,-0.6702,-0.6763,-0.6824,-0.6824,-0.6896,-0.7001,-0.7001,-0.7051,-0.7078,-0.7071,-0.6716,-0.6392,-0.6295,-0.621,-0.6156,-0.6162,-0.6552,-0.6824,-0.6831,-0.6895,-0.6704,-0.6116,-0.5588,-0.4506,-0.2725,-0.2102,-0.126,-0.0046,-0.0536,-0.0575,0.0,0.0,0.0,0.0,0.0,0.0,0.0,0.0,0.0,0.0,0.0,0.0,0.0,0.0,0.0,0.0,0.0,0.0,0.0,0.0,0.0,0.0,-1.4959,-1.5146,-1.4949,-1.3638,-1.3151,-1.2668,-1.1994,-1.1658,-1.1463,-1.1463,-1.1165,-1.0632,-0.9657,-0.9558,-0.9118,-0.8088,-0.7988,-0.7988,-0.7988,-0.7828,-0.7685,-0.7651,-0.7506,-0.737,-0.7206,-0.7363,-0.735,-0.7149,-0.7149,-0.7132,-0.7095,-0.7095,-0.7115,-0.7149,-0.7149,-0.7169,-0.7203,-0.7203,-0.7203,-0.7213,-0.7377,-0.7353,-0.7216,-0.738,-0.735,-0.7216,-0.738,-0.7424,-0.7424,-0.7424,-0.7502,-0.758,-0.7461,-0.7506,-0.76,-0.76,-0.7356,-0.7037,-0.6814,-0.6776,-0.6797,-0.6763,-0.6807,-0.6848,-0.681,-0.6949,-0.7021,-0.695,-0.7078,-0.7189,-0.7156,-0.7149,-0.721,-0.7261,0.0,-0.6566,-0.6678,-0.6515,-0.6416,-0.6556,-0.6814,-0.6964,-0.7041,-0.6854,-0.6337,-0.5447,-0.4868,-0.3753,-0.1879,-0.1529,-0.0955,-0.0046,0.0,0.0,0.0,0.0,0.0,0.0,0.0,0.0,0.0,0.0,0.0,0.0,0.0,0.0,0.0,0.0,0.0,0.0,0.0,0.0,0.0,0.0,0.0,0.0,-1.2668,-1.3204,-1.3638,-1.2285,-1.2042,-1.1945,-1.1901,-1.0925,-1.0145,-1.0145,-0.9069,-0.8237,-0.8137,-0.8137,-0.8088,-0.7988,-0.7988,-0.7988,-0.7988,-0.7968,-0.7894,-0.7801,-0.7658,-0.7577,-0.7567,-0.7577,-0.7509,-0.7398,-0.7398,-0.7282,-0.7095,-0.7095,-0.7217,-0.7398,-0.7398,-0.7434,-0.7567,-0.7567,-0.7567,-0.7567,-0.758,-0.7577,-0.7567,-0.758,-0.7573,-0.7567,-0.758,-0.7584,-0.7584,-0.7584,-0.759,-0.7597,-0.7587,-0.759,-0.76,-0.76,-0.7577,-0.7458,-0.7027,-0.6964,-0.7034,-0.6903,-0.7119,-0.7285,-0.7095,-0.7336,-0.7468,-0.7139,-0.736,-0.7522,-0.738,-0.7398,-0.7268,-0.7004,0.0,0.0,-0.6678,-0.6559,-0.6566,-0.6861,-0.6987,-0.7034,-0.6913,-0.6092,-0.5492,-0.5403,-0.335,-0.1969,-0.179,-0.073,-0.0092,0.0,0.0,0.0,0.0,0.0,0.0,0.0,0.0,0.0,0.0,0.0,0.0,0.0,0.0,0.0,0.0,0.0,0.0,0.0,0.0,0.0,0.0,0.0,0.0,0.0,-1.2091,-1.1891,-1.1595,-1.0828,-1.0047,-0.946,-0.946,-0.9069,-0.8775,-0.8775,-0.8333,-0.7988,-0.7988,-0.7988,-0.7988,-0.7988,-0.7988,-0.7988,-0.7988,-0.7988,-0.7921,-0.7818,-0.7851,-0.7787,-0.7604,-0.76,-0.7522,-0.7415,-0.7275,-0.7197,-0.7098,-0.7238,-0.7261,-0.7231,-0.7329,-0.6985,-0.6244,-0.6244,-0.5818,-0.5128,-0.5193,-0.5181,-0.5225,-0.6154,-0.6423,-0.6461,-0.7406,-0.7729,-0.7729,-0.7729,-0.7794,-0.7855,-0.776,-0.7797,-0.7851,-0.7756,-0.7729,-0.7675,-0.7417,-0.7383,-0.7414,-0.7356,-0.7431,-0.7499,-0.7438,-0.7516,-0.7567,-0.7448,-0.7519,-0.7553,-0.7446,-0.7415,-0.7378,-0.7221,0.0,-0.6939,-0.7095,-0.6983,-0.6929,-0.7004,-0.7061,-0.7075,-0.7021,-0.6042,-0.5072,-0.4318,-0.2735,-0.1469,-0.0744,-0.0237,0.0,0.0,0.0,0.0,0.0,0.0,0.0,0.0,0.0,0.0,0.0,0.0,0.0,0.0,0.0,0.0,0.0,0.0,0.0,0.0,0.0,0.0,0.0,0.0,0.0,0.0,-1.0823,-1.0529,-1.019,-0.9509,-0.8627,-0.7988,-0.7988,-0.7988,-0.7988,-0.7988,-0.7988,-0.7988,-0.7988,-0.7988,-0.7988,-0.7988,-0.7988,-0.7988,-0.7988,-0.7988,-0.7941,-0.7885,-0.7934,-0.7894,-0.7743,-0.774,-0.7662,-0.7509,-0.7404,-0.728,-0.724,-0.7343,-0.7132,-0.6709,-0.6808,-0.613,-0.4971,-0.4971,-0.4486,-0.3724,-0.3824,-0.3814,-0.3823,-0.4852,-0.5176,-0.5271,-0.6714,-0.7241,-0.729,-0.7736,-0.7904,-0.7971,-0.7916,-0.7907,-0.7968,-0.7913,-0.7882,-0.7862,-0.7763,-0.774,-0.7716,-0.7624,-0.7634,-0.7655,-0.7611,-0.7672,-0.7712,-0.7617,-0.7675,-0.7692,-0.7539,-0.7509,-0.7509,-0.7509,-0.7383,-0.7305,-0.7409,-0.7282,-0.7149,-0.7102,-0.6786,-0.6577,-0.6576,-0.5183,-0.3912,-0.3112,-0.191,-0.0894,-0.0048,0.0,0.0,0.0,0.0,0.0,0.0,0.0,0.0,0.0,0.0,0.0,0.0,0.0,0.0,0.0,0.0,0.0,0.0,0.0,0.0,0.0,0.0,0.0,0.0,0.0,0.0,0.0,-0.8528,-0.9069,-0.9558,-0.8233,-0.7988,-0.7988,-0.7988,-0.7988,-0.7988,-0.7988,-0.7988,-0.7988,-0.7988,-0.7988,-0.7988,-0.7988,-0.7988,-0.7988,-0.7988,-0.7988,-0.7988,-0.7988,-0.7988,-0.7988,-0.7988,-0.7988,-0.7914,-0.7762,-0.7762,-0.7688,-0.7547,-0.7444,-0.6823,-0.5754,-0.5641,-0.4988,-0.3964,-0.3964,-0.3964,-0.3966,-0.3966,-0.3966,-0.3966,-0.3966,-0.3966,-0.4166,-0.5525,-0.5979,-0.6179,-0.7537,-0.7988,-0.7988,-0.7988,-0.7988,-0.7988,-0.7988,-0.7988,-0.7988,-0.7988,-0.7988,-0.7921,-0.7678,-0.7709,-0.7777,-0.7634,-0.7831,-0.7907,-0.7662,-0.7834,-0.7941,-0.7838,-0.7811,-0.7811,-0.7811,-0.7692,-0.7546,-0.7439,-0.7415,-0.7316,-0.7115,-0.6071,-0.5402,-0.538,-0.3227,-0.1816,-0.1806,-0.0667,0.0,0.0,0.0,0.0,0.0,0.0,0.0,0.0,0.0,0.0,0.0,0.0,0.0,0.0,0.0,0.0,0.0,0.0,0.0,0.0,0.0,0.0,0.0,0.0,0.0,0.0,0.0,0.0,0.0,-0.8137,-0.8333,-0.8482,-0.8088,-0.7988,-0.7988,-0.7988,-0.7988,-0.7988,-0.7988,-0.7988,-0.7988,-0.7988,-0.7988,-0.7988,-0.7988,-0.7988,-0.7988,-0.7988,-0.7988,-0.7988,-0.7988,-0.7988,-0.7988,-0.7988,-0.699,-0.6431,-0.6395,-0.5343,-0.4817,-0.4793,-0.4832,-0.4652,-0.426,-0.4296,-0.3657,-0.2466,-0.2432,-0.1965,-0.1208,-0.1192,-0.1195,-0.131,-0.2213,-0.2614,-0.2765,-0.4117,-0.4618,-0.4668,-0.5068,-0.5168,-0.537,-0.6279,-0.7235,-0.7988,-0.7988,-0.7988,-0.7988,-0.7988,-0.7988,-0.7968,-0.788,-0.7891,-0.7911,-0.787,-0.7928,-0.7965,-0.7877,-0.7928,-0.7941,-0.7838,-0.7811,-0.778,-0.7678,-0.7628,-0.7584,-0.7539,-0.7441,-0.7077,-0.6167,-0.5679,-0.5086,-0.4227,-0.2721,-0.178,-0.1793,-0.0689,0.0,0.0,0.0,0.0,0.0,0.0,0.0,0.0,0.0,0.0,0.0,0.0,0.0,0.0,0.0,0.0,0.0,0.0,0.0,0.0,0.0,0.0,0.0,0.0,0.0,0.0,0.0,0.0,0.0,-0.7978,-0.7988,-0.7988,-0.7988,-0.7988,-0.7988,-0.7988,-0.7988,-0.7988,-0.7988,-0.7988,-0.7988,-0.7988,-0.7988,-0.7988,-0.7988,-0.7988,-0.7988,-0.7988,-0.7988,-0.7786,-0.7235,-0.7185,-0.7185,-0.7185,-0.581,-0.5083,-0.5083,-0.4197,-0.3738,-0.3738,-0.3804,-0.3512,-0.2964,-0.2978,-0.2311,-0.109,-0.1077,-0.0643,0.0,0.0,0.0,-0.0101,-0.0907,-0.1209,-0.136,-0.2715,-0.3215,-0.3265,-0.3815,-0.4016,-0.4166,-0.497,-0.5772,-0.6526,-0.7033,-0.7185,-0.7335,-0.7839,-0.7988,-0.7988,-0.7988,-0.7988,-0.7988,-0.7988,-0.7988,-0.7988,-0.7988,-0.7988,-0.7961,-0.7919,-0.7899,-0.7872,-0.7787,-0.7773,-0.7558,-0.6968,-0.6795,-0.629,-0.4988,-0.4304,-0.3705,-0.2965,-0.1796,-0.1103,-0.1089,-0.0401,0.0,0.0,0.0,0.0,0.0,0.0,0.0,0.0,0.0,0.0,0.0,0.0,0.0,0.0,0.0,0.0,0.0,0.0,0.0,0.0,0.0,0.0,0.0,0.0,0.0,0.0,0.0,0.0,0.0,-0.7961,-0.7988,-0.7988,-0.7988,-0.7988,-0.7988,-0.7988,-0.7988,-0.7988,-0.7988,-0.7988,-0.7988,-0.7988,-0.7988,-0.7988,-0.7988,-0.7988,-0.7939,-0.7839,-0.7839,-0.7235,-0.5877,-0.5727,-0.5627,-0.5627,-0.447,-0.3815,-0.3815,-0.3715,-0.3667,-0.3663,-0.3507,-0.287,-0.1811,-0.1683,-0.1042,0.0,0.0,0.0,0.0,0.0,0.0,0.0,0.0,0.0,-0.0151,-0.136,-0.1812,-0.2013,-0.3215,-0.3715,-0.3815,-0.3815,-0.3915,-0.4218,-0.5475,-0.5927,-0.6279,-0.7487,-0.7889,-0.7988,-0.7988,-0.7988,-0.7988,-0.7988,-0.7988,-0.7988,-0.7988,-0.7988,-0.7988,-0.7988,-0.7988,-0.7988,-0.7988,-0.7889,-0.7341,-0.5987,-0.5729,-0.5086,-0.3615,-0.2482,-0.1739,-0.1661,-0.0639,0.0,0.0,0.0,0.0,0.0,0.0,0.0,0.0,0.0,0.0,0.0,0.0,0.0,0.0,0.0,0.0,0.0,0.0,0.0,0.0,0.0,0.0,0.0,0.0,0.0,0.0,0.0,0.0,0.0,0.0,0.0,0.0,-0.7982,-0.7988,-0.7988,-0.7988,-0.7988,-0.7988,-0.7988,-0.7988,-0.7988,-0.7988,-0.7988,-0.7988,-0.7988,-0.7988,-0.7988,-0.7988,-0.7988,-0.7537,-0.6481,-0.6431,-0.5824,-0.4468,-0.3417,-0.2865,-0.2865,-0.2564,-0.2414,-0.2414,-0.136,-0.0857,-0.0857,-0.0854,-0.0704,-0.0454,-0.0402,-0.0252,0.0,0.0,0.0,0.0,0.0,0.0,0.0,0.0,0.0,-0.0051,-0.0353,-0.0454,-0.0454,-0.0756,-0.1561,-0.2414,-0.2414,-0.3165,-0.4066,-0.4368,-0.5172,-0.6079,-0.6379,-0.7185,-0.7988,-0.7988,-0.7988,-0.7988,-0.7988,-0.7988,-0.7988,-0.7988,-0.7988,-0.7988,-0.7988,-0.7988,-0.7988,-0.7988,-0.7135,-0.6321,-0.5996,-0.4963,-0.3788,-0.2477,-0.2008,-0.1433,-0.0489,-0.0149,0.0,0.0,0.0,0.0,0.0,0.0,0.0,0.0,0.0,0.0,0.0,0.0,0.0,0.0,0.0,0.0,0.0,0.0,0.0,0.0,0.0,0.0,0.0,0.0,0.0,0.0,0.0,0.0,0.0,0.0,0.0,0.0,-0.7975,-0.7988,-0.7988,-0.7988,-0.7988,-0.7988,-0.7988,-0.7988,-0.7988,-0.7988,-0.7988,-0.7988,-0.7988,-0.7988,-0.7739,-0.7083,-0.6476,-0.5772,-0.507,-0.5022,-0.447,-0.3115,-0.2363,-0.1711,-0.1058,-0.1058,-0.1058,-0.1058,-0.0353,0.0,0.0,0.0,0.0,0.0,0.0,0.0,0.0,0.0,0.0,0.0,0.0,0.0,0.0,0.0,0.0,0.0,0.0,0.0,0.0,0.0,-0.0454,-0.1058,-0.1058,-0.1511,-0.2213,-0.2864,-0.3518,-0.4221,-0.4872,-0.5572,-0.6074,-0.6074,-0.6074,-0.6426,-0.7686,-0.7988,-0.7988,-0.7988,-0.7988,-0.7988,-0.7988,-0.7484,-0.7033,-0.7033,-0.5924,-0.482,-0.4169,-0.3412,-0.2453,-0.119,-0.0977,-0.0682,-0.005,0.0,0.0,0.0,0.0,0.0,0.0,0.0,0.0,0.0,0.0,0.0,0.0,0.0,0.0,0.0,0.0,0.0,0.0,0.0,0.0,0.0,0.0,0.0,0.0,0.0,0.0,0.0,0.0,0.0,0.0,0.0,0.0,0.0,-0.7965,-0.7988,-0.7988,-0.7988,-0.7988,-0.7988,-0.7988,-0.7988,-0.7988,-0.7988,-0.7988,-0.7988,-0.7988,-0.7789,-0.7132,-0.5777,-0.462,-0.3915,-0.3665,-0.3665,-0.3065,-0.1711,-0.1661,-0.1159,0.0,0.0,0.0,0.0,0.0,0.0,0.0,0.0,0.0,0.0,0.0,0.0,0.0,0.0,0.0,0.0,0.0,0.0,0.0,0.0,0.0,0.0,0.0,0.0,0.0,0.0,0.0,0.0,0.0,0.0,-0.0202,-0.131,-0.1812,-0.2264,-0.3364,-0.3815,-0.4016,-0.4016,-0.4016,-0.4568,-0.6828,-0.7332,-0.7385,-0.7587,-0.7484,-0.7332,-0.7332,-0.6429,-0.5677,-0.5677,-0.4518,-0.3265,-0.2163,-0.1787,-0.1238,-0.0151,0.0,0.0,0.0,0.0,0.0,0.0,0.0,0.0,0.0,0.0,0.0,0.0,0.0,0.0,0.0,0.0,0.0,0.0,0.0,0.0,0.0,0.0,0.0,0.0,0.0,0.0,0.0,0.0,0.0,0.0,0.0,0.0,0.0,0.0,0.0,0.0,-0.7985,-0.7988,-0.7988,-0.7988,-0.7988,-0.7988,-0.7988,-0.7988,-0.7988,-0.7988,-0.7988,-0.7988,-0.7988,-0.6983,-0.5724,-0.4368,-0.4116,-0.3515,-0.2364,-0.2264,-0.1661,-0.0353,-0.0252,-0.0202,0.0,0.0,0.0,0.0,0.0,0.0,0.0,0.0,0.0,0.0,0.0,0.0,0.0,0.0,0.0,0.0,0.0,0.0,0.0,0.0,0.0,0.0,0.0,0.0,0.0,0.0,0.0,0.0,0.0,0.0,-0.0051,-0.0202,-0.1109,-0.2063,-0.2213,-0.3115,-0.4016,-0.4016,-0.4016,-0.4116,-0.4468,-0.4518,-0.4868,-0.6027,-0.5372,-0.4518,-0.4518,-0.4416,-0.4268,-0.4268,-0.3165,-0.2213,-0.2013,-0.1006,-0.0201,0.0,0.0,0.0,0.0,0.0,0.0,0.0,0.0,0.0,0.0,0.0,0.0,0.0,0.0,0.0,0.0,0.0,0.0,0.0,0.0,0.0,0.0,0.0,0.0,0.0,0.0,0.0,0.0,0.0,0.0,0.0,0.0,0.0,0.0,0.0,0.0,0.0,-0.7988,-0.7988,-0.7988,-0.7988,-0.7988,-0.7988,-0.7988,-0.7988,-0.7988,-0.7988,-0.7335,-0.6883,-0.6883,-0.5022,-0.3518,-0.2914,-0.2213,-0.1511,-0.0907,-0.0907,-0.0605,-0.0051,0.0,0.0,0.0,0.0,0.0,0.0,0.0,0.0,0.0,0.0,0.0,0.0,0.0,0.0,0.0,0.0,0.0,0.0,0.0,0.0,0.0,0.0,0.0,0.0,0.0,0.0,0.0,0.0,0.0,0.0,0.0,0.0,0.0,0.0,-0.0404,-0.0907,-0.0907,-0.131,-0.1762,-0.1762,-0.1762,-0.1962,-0.2715,-0.2314,-0.2364,-0.447,-0.4418,-0.4016,-0.4016,-0.3366,-0.2864,-0.2864,-0.1762,-0.0907,-0.0907,-0.0353,0.0,0.0,0.0,0.0,0.0,0.0,0.0,0.0,0.0,0.0,0.0,0.0,0.0,0.0,0.0,0.0,0.0,0.0,0.0,0.0,0.0,0.0,0.0,0.0,0.0,0.0,0.0,0.0,0.0,0.0,0.0,0.0,0.0,0.0,0.0,0.0,0.0,0.0]},{"header":{"parameterUnit":"m.s-1","parameterCategory":1,"la1":30.6,"la2":28.766,"lo1":-90.7593,"lo2":-88.6598,"dy":0.0162,"dx":0.0183,"nx":116,"ny":114,"refTime":"2024-04-21T12:00:00:Z","depth":0,"parameterNumber":3,"parameterNumberName":"V-component_of_WINDS"},"data":[0.0,0.0,0.0,0.0,0.0,0.0,0.0,0.0,0.0,0.0,0.0,0.0,0.0,0.0,0.0,0.0,0.0,0.0,0.0,0.0,0.0,0.0,0.0,0.0,0.0,0.0,0.0,0.0,0.0,0.0,0.0,0.0,0.0,0.0,0.0,0.0,0.0,0.0,0.0,0.0,0.0,0.0,0.0,0.0,0.0,0.0,0.0,0.0,0.0,0.0,0.0,0.0,0.0,0.0,0.0,0.0,0.0,0.0,0.0,0.0,0.0,0.0,0.0,0.0,0.0,0.0,0.0,0.0,0.0,0.0,0.0,0.0,0.0,0.0,0.0,0.0,0.0,0.0,0.0,0.0,0.0,0.0,0.0,0.0,0.0,0.0,0.0,0.0,0.0,0.0,0.0,0.0,0.0,0.0,0.0,0.0,0.0,0.0,0.0,0.0,0.0,0.0,0.0,0.0,0.0,0.0,0.0,0.0,0.0,0.0,0.0,0.0,0.0,0.0,0.0,0.0,0.0,0.0,0.0,0.0,0.0,0.0,0.0,0.0,0.0,0.0,0.0,0.0,0.0,0.0,0.0,0.0,0.0,0.0,0.0,0.0,0.0,0.0,0.0,0.0,0.0,0.0,0.0,0.0,0.0,0.0,0.0,0.0,0.0,0.0,0.0,0.0,0.0,0.0,0.0,0.0,0.0,0.0,0.0,0.0,0.0,0.0,0.0,0.0,0.0,0.0,0.0,0.0,0.0,0.0,0.0,0.0,0.0,0.0,0.0,0.0,0.0,0.0,0.0,0.0,0.0,0.0,0.0,0.0,0.0,0.0,0.0,0.0,0.0,0.0,0.0,0.0,0.0,0.0,0.0,0.0,0.0,0.0,0.0,0.0,0.0,0.0,0.0,0.0,0.0,0.0,0.0,0.0,0.0,0.0,0.0,0.0,0.0,0.0,0.0,0.0,0.0,0.0,0.0,0.0,0.0,0.0,0.0,0.0,0.0,0.0,0.0,0.0,0.0,0.0,0.0,0.0,0.0,0.0,0.0,0.0,0.0,0.0,0.0,0.0,0.0,0.0,0.0,0.0,0.0,0.0,0.0,0.0,0.0,0.0,0.0,0.0,0.0,0.0,0.0,0.0,0.0,0.0,0.0,0.0,0.0,0.0,0.0,0.0,0.0,0.0,0.0,0.0,0.0,0.0,0.0,0.0,0.0,0.0,0.0,0.0,0.0,0.0,0.0,0.0,0.0,0.0,0.0,0.0,0.0,0.0,0.0,0.0,0.0,0.0,0.0,0.0,0.0,0.0,0.0,0.0,0.0,0.0,0.0,0.0,0.0,0.0,0.0,0.0,0.0,0.0,0.0,0.0,0.0,0.0,0.0,0.0,0.0,0.0,0.0,0.0,0.0,0.0,0.0,0.0,0.0,0.0,0.0,0.0,0.0,0.0,0.0,0.0,0.0,0.0,0.0,0.0,0.0,0.0,0.0,0.0,0.0,0.0,0.0,0.0,0.0,0.0,0.0,0.0,0.0,0.0,0.0,0.0,0.0,0.0,0.0,0.0,0.0,0.0,0.0,0.0,0.0,0.0,0.0,0.0,0.0,0.0,0.0,0.0,0.0,0.0,0.0,0.0,0.0,0.0,0.0,0.0,0.0,0.0,0.0,0.0,0.0,0.0,0.0,0.0,0.0,0.0,0.0,0.0,0.0,0.0,0.0,0.0,0.0,0.0,0.0,0.0,0.0,0.0,0.0,0.0,0.0,0.0,0.0,0.0,0.0,0.0,0.0,0.0,0.0,0.0,0.0,0.0,0.0,0.0,0.0,0.0,0.0,0.0,0.0,0.0,0.0,0.0,0.0,0.0,0.0,0.0,0.0,0.0,0.0,0.0,0.0,0.0,0.0,0.0,0.0,0.0,0.0,0.0,0.0,0.0,0.0,0.0,0.0,0.0,0.0,0.0,0.0,0.0,0.0,0.0,0.0,0.0,0.0,0.0,0.0,0.0,0.0,0.0,0.0,0.0,0.0,0.0,0.0,0.0,0.0,0.0,0.0,0.0,0.0,0.0,0.0,0.0,0.0,0.0,0.0,0.0,0.0,0.0,0.0,0.0,0.0,0.0,0.0,0.0,0.0,0.0,0.0,0.0,0.0,0.0,0.0,0.0,0.0,0.0,0.0,0.0,0.0,0.0,0.0,0.0,0.0,0.0,0.0,0.0,0.0,0.0,0.0,0.0,0.0,0.0,0.0,0.0,0.0,0.0,0.0,0.0,0.0,0.0,0.0,0.0,0.0,0.0,0.0,0.0,0.0,0.0,0.0,0.0,0.0,0.0,0.0,0.0,0.0,0.0,0.0,0.0,0.0,0.0,0.0,0.0,0.0,0.0,0.0,0.0,0.0,0.0,0.0,0.0,0.0,0.0,0.0,0.0,0.0,0.0,0.0,0.0,0.0,0.0,0.0,0.0,0.0,0.0,0.0,0.0,0.0,0.0,0.0,0.0,0.0,0.0,0.0,0.0,0.0,0.0,0.0,0.0,0.0,0.0,0.0,0.0,0.0,0.0,0.0,0.0,0.0,0.0,0.0,0.0,0.0,0.0,0.0,0.0,0.0,0.0,0.0,0.0,0.0,0.0,0.0,0.0,0.0,0.0,0.0,0.0,0.0,0.0,0.0,0.0,0.0,0.0,0.0,0.0,0.0,0.0,0.0,0.0,0.0,0.0,0.0,0.0,0.0,0.0,0.0,0.0,0.0,0.0,0.0,0.0,0.0,0.0,0.0,0.0,0.0,0.0,0.0,0.0,0.0,0.0,0.0,0.0,0.0,0.0,0.0,0.0,0.0,0.0,0.0,0.0,0.0,0.0,0.0,0.0,0.0,0.0,0.0,0.0,0.0,0.0,0.0,0.0,0.0,0.0,0.0,0.0,0.0,0.0,0.0,0.0,0.0,0.0,0.0,0.0,0.0,0.0,0.0,0.0,0.0,0.0,0.0,0.0,0.0,0.0,0.0,0.0,0.0,0.0,0.0,0.0,0.0,0.0,0.0,0.0,0.0,0.0,0.0,0.0,0.0,0.0,0.0,0.0,0.0,0.0,0.0,0.0,0.0,0.0,0.0,0.0,0.0,0.0,0.0,0.0,0.0,0.0,0.0,0.0,0.0,0.0,0.0,0.0,0.0,0.0,0.0,0.0,0.0,0.0,0.0,0.0,0.0,0.0,0.0,0.0,0.0,0.0,0.0,0.0,0.0,0.0,0.0,0.0,0.0,0.0,0.0,0.0,0.0,0.0,0.0,0.0,0.0,0.0,0.0,0.0,0.0,0.0,0.0,0.0,0.0,0.0,0.0,0.0,0.0,0.0,0.0,0.0,0.0,0.0,0.0,0.0,0.0,0.0,0.0,0.0,0.0,0.0,0.0,0.0,0.0,0.0,0.0,0.0,0.0,0.0,0.0,0.0,0.0,0.0,0.0,0.0,0.0,0.0,0.0,0.0,0.0,0.0,0.0,0.0,0.0,0.0,0.0,0.0,0.0,0.0,0.0,0.0,0.0,0.0,0.0,0.0,0.0,0.0,0.0,0.0,0.0,0.0,0.0,0.0,0.0,0.0,0.0,0.0,0.0,0.0,0.0,0.0,0.0,0.0,0.0,0.0,0.0,0.0,0.0,0.0,0.0,0.0,0.0,0.0,0.0,0.0,0.0,0.0,0.0,0.0,0.0,0.0,0.0,0.0,0.0,0.0,0.0,0.0,0.0,0.0,0.0,0.0,0.0,0.0,0.0,0.0,0.0,0.0,0.0,0.0,0.0,0.0,0.0,0.0,0.0,0.0,0.0,0.0,0.0,0.0,0.0,0.0,0.0,0.0,0.0,0.0,0.0,0.0,0.0,0.0,0.0,0.0,0.0,0.0,0.0,0.0,0.0,0.0,0.0,0.0,0.0,0.0,0.0,0.0,0.0,0.0,0.0,0.0,0.0,0.0,0.0,0.0,0.0,0.0,0.0,0.0,0.0,0.0,0.0,0.0,0.0,0.0,0.0,0.0,0.0,0.0,0.0,0.0,0.0,0.0,0.0,0.0,0.0,0.0,0.0,0.0,0.0,0.0,0.0,0.0,0.0,0.0,0.0,0.0,0.0,0.0,0.0,0.0,0.0,0.0,0.0,0.0,0.0,0.0,0.0,0.0,0.0,0.0,0.0,0.0,0.0,0.0,0.0,0.0,0.0,0.0,0.0,0.0,0.0,0.0,0.0,0.0,0.0,0.0,0.0,0.0,0.0,0.0,0.0,0.0,0.0,0.0,0.0,0.0,0.0,0.0,0.0,0.0,0.0,0.0,0.0,0.0,0.0,0.0,0.0,0.0,0.0,0.0,0.0,0.0,0.0,0.0,0.0,0.0,0.0,0.0,0.0,0.0,0.0,0.0,0.0,0.0,0.0,0.0,0.0,0.0,0.0,0.0,0.0,0.0,0.0,0.0,0.0,0.0,0.0,0.0,0.0,0.0,0.0,0.0,0.0,0.0,0.0,0.0,0.0,0.0,0.0,0.0,0.0,0.0,0.0,0.0,0.0,0.0,0.0,0.0,0.0,0.0,0.0,0.0,0.0,0.0,0.0,0.0,0.0,0.0,0.0,0.0,0.0,0.0,0.0,0.0,0.0,0.0,0.0,0.0,0.0,0.0,0.0,0.0,0.0,0.0,0.0,0.0,0.0,0.0,0.0,0.0,0.0,0.0,0.0,0.0,0.0,0.0,0.0,0.0,0.0,0.0,0.0,0.0,0.0,0.0,0.0,0.0,0.0,0.0,0.0,0.0,0.0,0.0,0.0,0.0,0.0,0.0,0.0,0.0,0.0,0.0,0.0,0.0,0.0,0.0,0.0,0.0,0.0,0.0,0.0,0.0,0.0,0.0,0.0,0.0,0.0,0.0,0.0,0.0,0.0,0.0,0.0,0.0,0.0,0.0,0.0,0.0,0.0,0.0,0.0,0.0,0.0,0.0,0.0,0.0,0.0,0.0,0.0,0.0,0.0,0.0,0.0,0.0,0.0,0.0,0.0,0.0,0.0,0.0,0.0,0.0,0.0,0.0,0.0,0.0,0.0,0.0,0.0,0.0,0.0,0.0,0.0,0.0,0.0,0.0,0.0,0.0,0.0,0.0,0.0,0.0,0.0,0.0,0.0,0.0,0.0,0.0,0.0,0.0,0.0,0.0,0.0,0.0,0.0,0.0,0.0,0.0,0.0,0.0,0.0,0.0,0.0,0.0,0.0,0.0,0.0,0.0,0.0,0.0,0.0,0.0,0.0,0.0,0.0,0.0,0.0,0.0,0.0,0.0,0.0,0.0,0.0,0.0,0.0,0.0,0.0,0.0,0.0,0.0,0.0,0.0,0.0,0.0,0.0,0.0,0.0,0.0,0.0,0.0,0.0,0.0,0.0,0.0,0.0,0.0,0.0,0.0,0.0,0.0,0.0,0.0,0.0,0.0,0.0,0.0,0.0,0.0,0.0,0.0,0.0,0.0,0.0,0.0,0.0,0.0,0.0,0.0,0.0,0.0,0.0,0.0,0.0,0.0,0.0,0.0,0.0,0.0,0.0,0.0,0.0,0.0,0.0,0.0,0.0,0.0,0.0,0.0,0.0,0.0,0.0,0.0,0.0,0.0,0.0,0.0,0.0,0.0,0.0,0.0,0.0,0.0,0.0,0.0,0.0,0.0,0.0,0.0,0.0,0.0,0.0,0.0,0.0,0.0,0.0,0.0,0.0,0.0,0.0,0.0,0.0,0.0,0.0,0.0,0.0,0.0,0.0,0.0,0.0,0.0,0.0,0.0,0.0,0.0,0.0,0.0,0.0,0.0,0.0,0.0,0.0,0.0,0.0,0.0,0.0,0.0,0.0,0.0,0.0,0.0,0.0,0.0,0.0,0.0,0.0,0.0,0.0,0.0,0.0,0.0,0.0,0.0,0.0,0.0,0.0,0.0,0.0,0.0,0.0,0.0,0.0,0.0,0.0,0.0,0.0,0.0,0.0,0.0,0.0,0.0,0.0,0.0,0.0,0.0,0.0,0.0,0.0,0.0,0.0,0.0,0.0,0.0,0.0,0.0,0.0,0.0,0.5143,0.4528,0.0,0.0,0.0,0.0,0.0,0.0,0.0,0.0,0.0,0.0,0.0,0.0,0.0,0.0,0.0,0.0,0.0,0.0,0.0,0.0,0.0,0.0,0.0,1.266,1.2477,1.1988,1.2271,1.2277,1.178,0.0,0.0,0.0,0.0,0.0,1.351,1.3418,1.3472,1.3623,1.406,1.4248,1.4239,1.3015,1.1694,1.0269,0.0,0.0,0.0,0.0,0.0,0.0,0.0,0.0,0.0,0.0,0.0,0.0,0.0,0.0,0.0,0.0,0.0,0.0,0.0,0.0,0.0,0.0,0.0,0.0,0.0,0.0,0.0,0.0,0.0,0.0,0.0,0.0,0.0,0.0,0.0,0.0,0.0,0.0,0.0,0.0,0.0,0.0,0.0,0.0,0.0,0.0,0.0,0.0,0.0,0.0,0.0,0.0,0.0,0.0,0.0,0.0,0.0,0.0,0.0,0.0,0.0,0.0,0.0,0.0,0.0,0.0,0.0,0.0,0.0,0.0,0.6881,0.581,0.0,0.0,0.0,0.0,0.0,0.0,0.0,0.0,0.0,0.0,0.0,0.0,0.0,0.0,0.0,0.0,0.0,0.0,0.0,0.0,0.0,1.2988,1.2753,1.3119,1.313,1.2587,1.2783,1.2697,1.2098,1.2464,0.0,0.0,0.0,1.2913,1.2694,1.3319,1.3851,1.4192,1.5274,1.6073,1.6569,1.5128,1.3536,1.1813,1.0352,0.0,0.0,0.0,0.0,0.0,0.0,0.0,0.0,0.0,0.0,0.0,0.0,0.0,0.0,0.0,0.0,0.0,0.0,0.0,0.0,0.0,0.0,0.0,0.0,0.0,0.0,0.0,0.0,0.0,0.0,0.0,0.0,0.0,0.0,0.0,0.0,0.0,0.0,0.0,0.0,0.0,0.0,0.0,0.0,0.0,0.0,0.0,0.0,0.0,0.0,0.0,0.0,0.0,0.0,0.0,0.0,0.0,0.0,0.0,0.0,0.0,0.0,0.0,1.0,0.9985,0.9975,0.9423,0.9446,0.9928,0.9096,0.775,0.6124,0.6342,0.0,0.0,0.0,0.0,0.0,0.0,0.0,0.0,0.0,0.0,0.0,0.0,0.0,0.0,0.0,0.0,0.0,0.0,0.0,1.3337,1.3295,1.3705,1.3949,1.3851,1.3692,1.3457,1.3122,1.2597,1.2018,1.1436,1.2009,1.218,1.1871,1.296,1.3893,1.4624,1.5922,1.6829,1.7331,1.6146,1.5613,1.5555,1.2896,0.0,0.0,0.0,0.0,0.0,0.0,0.0,0.0,0.0,0.0,0.0,0.0,0.0,0.0,0.0,0.0,0.0,0.0,0.0,0.0,0.0,0.0,0.0,0.0,0.0,0.0,0.0,0.0,0.0,0.0,0.0,0.0,0.0,0.0,0.0,0.0,0.0,0.0,0.0,0.0,0.0,0.0,0.0,1.2886,1.3045,0.0,0.0,0.0,0.0,0.0,0.0,0.0,0.0,0.0,0.0,0.0,0.0,0.0,0.9927,0.9886,1.1048,1.1618,1.1625,1.2335,1.2679,1.2677,1.2365,1.1765,1.1014,1.0974,0.0,0.816,0.7584,0.0,0.0,0.0,0.0,0.0,0.0,0.0,0.0,0.0,0.0,0.0,0.0,0.0,0.0,0.0,0.0,0.0,0.0,0.0,0.0,0.0,1.5589,1.6339,1.6193,1.7114,1.6858,1.4895,1.4467,1.3615,1.2097,1.2279,1.2279,1.192,1.3172,1.4979,1.7351,1.8495,1.9327,1.9785,1.855,1.7873,1.7617,1.5934,1.426,1.2609,1.1155,0.0,0.0,0.0,0.0,0.0,0.0,0.0,0.0,0.0,0.0,0.0,0.0,0.0,0.0,0.0,0.0,0.0,0.0,0.0,0.0,0.0,0.0,0.0,0.0,0.0,0.0,0.0,0.0,0.0,0.0,0.0,0.0,0.0,0.0,0.0,0.0,0.0,0.0,0.0,1.2528,1.3486,1.3129,1.3012,1.2388,0.0,0.0,0.0,0.0,0.0,0.0,0.0,0.0,0.0,1.0003,1.0708,1.1102,1.1102,1.2111,1.2625,1.2632,1.3186,1.3367,1.3206,1.3066,1.2772,1.2303,1.2225,1.1422,1.0116,0.8614,0.761,0.6863,0.0,0.0,0.0,0.0,0.5134,0.5665,0.0,0.0,0.0,0.0,0.0,0.0,0.0,0.0,0.0,0.0,0.0,0.0,1.5673,1.7841,1.9178,1.8977,2.0317,1.9843,1.6719,1.6337,1.5192,1.2857,1.2701,1.2562,1.2311,1.4284,1.6983,2.0375,2.1291,2.1857,2.2066,2.093,1.9991,1.9216,1.8478,1.688,1.4665,1.3201,1.1912,0.0,0.0,0.0,0.0,0.0,0.0,0.0,0.0,0.0,0.0,0.0,0.0,0.0,0.0,0.0,0.0,0.0,0.0,0.0,0.0,0.0,0.0,0.0,0.0,0.0,0.0,0.0,0.0,0.0,0.0,0.0,0.0,0.0,0.0,0.0,0.0,0.0,0.0,1.3501,1.4436,1.3814,1.445,1.4178,0.0,0.0,0.0,0.0,0.0,0.0,1.2369,1.2703,1.2599,1.1833,1.2719,1.3135,1.302,1.3474,1.3744,1.3751,1.3581,1.338,1.3206,1.3126,1.3093,1.3073,1.2804,1.2363,1.1688,0.985,0.8748,0.8105,0.6851,0.6212,0.5977,0.586,0.625,0.6934,0.0,0.0,0.0,0.0,0.0,0.0,0.0,0.0,0.0,0.0,0.0,1.7423,1.7476,2.0235,2.2093,2.2082,2.2178,2.1065,1.8363,1.7514,1.5957,1.3286,1.2997,1.288,1.2855,1.6672,2.0094,2.301,2.3705,2.3824,2.3389,2.2701,2.1755,2.0671,1.9902,1.8353,1.6179,1.4574,1.3387,1.2371,0.0,0.0,0.0,0.0,0.0,0.0,0.0,0.0,0.0,0.0,0.0,0.0,0.0,0.0,0.0,0.0,0.0,0.0,0.0,0.0,0.0,0.0,0.0,0.0,0.0,0.0,0.0,0.0,0.0,0.0,0.0,0.0,0.0,0.0,0.0,0.0,0.0,0.0,0.0,1.6061,1.6753,0.0,0.0,0.0,0.0,1.3885,1.3799,1.3983,1.4511,1.4805,1.5035,1.5145,1.6133,1.6415,1.5994,1.5466,1.5195,1.5188,1.3858,1.3227,1.32,1.2945,1.2811,1.279,1.2452,1.2492,1.2644,1.1506,1.0396,0.9339,0.8704,0.8425,0.8396,0.8275,0.8188,0.8143,0.0,0.0,0.0,0.0,0.0,1.4085,1.4085,1.4085,1.4085,1.4085,1.6338,1.8115,1.8632,2.2053,2.441,2.466,2.5631,2.4891,2.1724,2.03,1.829,1.5387,1.4158,1.4517,1.6577,2.0495,2.2897,2.371,2.5029,2.5012,2.376,2.3641,2.3003,2.1885,2.161,2.0857,1.966,1.7304,1.5662,1.4519,1.3415,1.1943,0.0,0.0,0.0,0.0,0.0,0.0,0.0,0.0,0.0,0.0,0.0,0.0,0.0,0.0,0.0,0.0,0.0,0.0,0.0,0.0,0.0,0.0,0.0,0.0,0.0,0.0,0.0,0.0,0.0,0.0,0.0,0.0,0.0,0.0,0.0,0.0,0.0,1.7855,1.892,0.0,1.7366,1.7264,1.7024,1.6256,1.713,1.7506,1.7034,1.7379,1.7304,1.6635,1.6737,1.6707,1.6536,1.6012,1.5731,1.5731,1.5227,1.4912,1.4744,1.4651,1.4511,1.4304,1.3543,1.3157,1.3042,1.2062,1.1227,1.0473,0.9453,0.9052,0.9026,0.8754,0.9073,0.9593,0.0,0.0,0.0,0.0,0.0,1.432,1.4356,1.4368,1.4587,1.5202,1.7749,1.9943,2.1049,2.4505,2.6874,2.7229,2.7832,2.6697,2.3188,2.158,1.9309,1.6039,1.5493,1.6964,2.0583,2.292,2.435,2.4921,2.5742,2.5489,2.4162,2.4193,2.3577,2.2506,2.2632,2.2396,2.1761,2.0183,1.8572,1.6976,1.6166,1.4462,1.2341,0.0,0.0,0.0,0.0,0.0,0.0,0.0,0.0,0.0,0.0,0.0,0.0,0.0,0.0,0.0,0.0,0.0,0.0,0.0,0.0,0.0,0.0,0.0,0.0,0.0,0.0,0.0,0.0,0.0,0.0,0.0,0.0,0.0,0.0,1.7539,1.9316,1.9332,2.0797,2.1139,1.9514,1.9683,1.9562,1.8815,1.9587,1.9822,1.9112,1.9372,1.9131,1.8197,1.8057,1.7926,1.7795,1.703,1.6653,1.6615,1.6018,1.563,1.5482,1.5482,1.5218,1.4747,1.4391,1.3952,1.3447,1.2698,1.2193,1.1795,1.0526,1.0075,1.0114,0.9696,1.0002,1.0555,0.0,0.0,0.0,0.0,0.0,1.4556,1.4687,1.4693,1.5337,1.7099,2.0229,2.2916,2.4544,2.7519,2.9484,2.9641,2.8523,2.6254,2.2587,2.1187,1.8876,1.5173,1.7009,2.0144,2.4462,2.3832,2.4521,2.6698,2.5924,2.5252,2.4695,2.4394,2.3653,2.2588,2.298,2.2825,2.2297,2.3029,2.1979,1.9687,1.8105,1.6183,1.4288,0.0,0.0,0.0,0.0,0.0,0.0,0.0,0.0,0.0,0.0,0.0,0.0,0.0,0.0,0.0,0.0,0.0,0.0,0.0,0.0,0.0,0.0,0.0,0.0,0.0,0.0,0.0,0.0,0.0,0.0,0.0,0.0,0.0,1.7434,1.9468,2.089,2.0602,2.2373,2.3097,2.1843,2.1951,2.1924,2.1492,2.0961,2.0644,2.0644,2.0615,2.0409,1.994,2.0312,2.0331,1.9911,1.8583,1.7897,1.7906,1.6124,1.5305,1.5305,1.5305,1.4818,1.4065,1.4892,1.475,1.3916,1.3489,1.3307,1.3165,1.1902,1.1603,1.1819,1.1202,1.1015,1.0908,0.0,0.0,0.0,1.4493,1.4571,1.4661,1.4683,1.478,1.5024,1.5517,1.9513,2.2488,2.2935,2.696,2.9389,2.8801,2.8452,2.6776,2.3324,2.1683,1.987,1.7681,1.9844,0.0,2.5589,2.6534,2.6915,2.6769,2.6439,2.5721,2.464,2.5078,2.4851,2.411,2.4203,2.395,2.3467,2.3963,2.353,2.2443,2.1464,2.0029,1.8419,0.0,0.0,0.0,0.0,0.0,0.0,0.0,0.0,0.0,0.0,0.0,0.0,0.0,0.0,0.0,0.0,0.0,0.0,0.0,0.0,0.0,0.0,0.0,0.0,0.0,0.0,0.0,0.0,0.0,0.0,0.0,1.9971,2.1284,2.115,2.2287,2.3412,2.4094,2.5074,2.5259,2.4178,2.4117,2.3834,2.2996,2.2114,2.1631,2.1631,2.0866,2.042,2.0262,1.9777,1.9604,1.9843,1.859,1.812,1.8407,1.7618,1.7226,1.7226,1.7226,1.7104,1.6865,1.6408,1.5777,1.5006,1.4231,1.3685,1.324,1.1906,1.1442,1.1503,1.1129,1.1028,1.1005,0.0,0.0,0.0,1.4576,1.4692,1.4785,1.4816,1.49,1.5204,1.5979,1.9826,2.2658,2.3006,2.6802,2.9026,2.8265,2.7698,2.6042,2.2848,2.0805,2.0164,2.1188,0.0,2.4284,2.7089,2.7359,2.7182,2.6556,2.6103,2.5493,2.473,2.5051,2.4997,2.4617,2.4753,2.4649,2.4392,2.4807,2.4881,2.4647,2.4119,2.265,2.0705,2.0434,1.9101,1.7369,1.7097,1.6479,1.5682,1.5067,0.0,0.0,0.0,0.0,0.0,0.0,0.0,0.0,0.0,0.0,0.0,0.0,0.0,0.0,0.0,0.0,0.0,0.0,0.0,0.0,0.0,0.0,0.0,0.0,2.2855,2.4435,2.5301,2.4988,2.4983,2.585,2.6285,2.628,2.5699,2.5264,2.4743,2.4192,2.3184,2.2627,2.2627,2.2037,2.1482,2.1051,2.096,2.0735,2.0311,1.9552,1.9345,1.9662,1.889,1.8754,1.9077,1.8721,1.8361,1.7963,1.7407,1.6749,1.5918,1.5039,1.4543,1.4136,0.0,0.0,0.0,0.0,1.1525,1.136,0.0,0.0,1.4707,1.4707,1.4818,1.494,1.4999,1.5002,1.5671,1.7458,2.0597,2.303,2.4013,2.686,2.8472,2.7825,2.6556,2.4555,2.1652,1.9221,1.9961,2.4624,2.4265,2.539,2.8472,2.7054,2.627,2.627,2.5384,2.4961,2.4928,2.4697,2.4574,2.4558,2.4862,2.4995,2.5035,2.5588,2.6009,2.6281,2.623,2.4578,2.2128,2.2128,2.1162,1.9826,1.9826,1.9176,1.8314,1.819,0.0,0.0,0.0,0.0,0.0,0.0,0.0,0.0,0.0,0.0,0.0,0.0,0.0,0.0,0.0,0.0,0.0,0.0,0.0,0.0,0.0,0.0,0.0,0.0,2.5705,2.7308,2.9246,2.748,2.613,2.6595,2.6555,2.6499,2.6499,2.5699,2.5158,2.5158,2.4228,2.3672,2.3672,2.3559,0.0,0.0,0.0,2.2677,2.1286,2.1002,2.1002,2.1286,2.0082,1.99,2.0558,1.9814,1.8987,1.8165,1.8154,1.7615,1.6733,1.5946,1.5597,1.5314,1.3658,1.3145,1.3255,1.2558,1.2182,1.1939,0.0,1.4603,1.4707,1.4707,1.4856,1.4988,1.501,1.5092,1.5773,1.7484,2.0109,2.243,2.4013,2.6602,2.7911,2.7081,2.5501,2.3421,2.0791,1.8919,1.985,2.4219,2.4299,2.5479,2.8142,2.7194,2.6673,2.6673,2.5812,2.5299,2.5147,2.5089,2.4973,2.4831,2.4897,2.4927,2.5006,2.6178,2.6714,2.6841,2.7783,2.7059,2.5378,2.5378,2.4691,2.3714,2.3714,2.3058,2.2079,2.1164,2.0695,2.0465,2.0226,0.0,0.0,0.0,0.0,0.0,0.0,0.0,0.0,0.0,0.0,0.0,0.0,0.0,0.0,0.0,0.0,0.0,0.0,0.0,0.0,2.7444,2.828,2.9217,3.063,2.9397,2.8099,2.7524,2.6905,2.6499,2.6499,2.6314,2.6198,2.6198,2.5288,2.4707,2.4707,2.3839,2.3242,2.3043,2.2512,2.243,2.2846,2.1811,2.1475,2.1822,2.1275,0.0,2.059,2.043,1.9879,1.9047,1.906,1.836,1.7227,1.6674,1.6042,1.5249,1.3636,1.3019,1.2981,1.2082,1.2158,1.2582,0.0,1.4785,1.4856,1.4856,1.4985,1.5111,1.5154,1.521,1.5552,1.6394,1.8748,2.0842,2.215,2.3811,2.4852,2.4907,2.3331,2.2168,2.1725,2.0984,2.2051,2.5442,2.5181,2.5756,2.7469,2.6618,2.6152,2.6152,2.5703,2.5448,2.5345,2.5345,2.5301,2.5191,2.5171,2.5141,2.5212,2.6223,2.6877,2.7345,2.8304,2.8454,2.8045,2.7471,2.6776,2.6083,2.6,2.5458,2.4684,2.3946,2.3484,2.3184,2.309,2.2485,2.1516,0.0,0.0,0.0,0.0,0.0,0.0,0.0,0.0,0.0,0.0,0.0,0.0,0.0,0.0,2.5309,2.5681,0.0,2.8659,3.0379,3.0485,3.0682,3.1705,3.0582,2.9317,2.846,2.7986,2.7769,2.7769,2.7351,2.7095,2.7095,2.6242,2.5734,2.5734,2.4905,2.4188,2.3664,2.3717,2.3448,2.2804,2.2574,2.2474,2.253,2.1961,2.1704,2.1834,2.1416,2.1005,2.059,2.0139,1.9415,1.85,1.78,1.711,1.6433,1.5621,1.4846,1.4089,1.3192,1.3139,1.3432,0.0,1.4989,1.5032,1.4995,1.5117,1.5237,1.5291,1.5308,1.5427,1.5734,1.7584,1.9259,2.0303,2.1009,2.1576,2.1969,2.1088,2.1075,0.0,2.2909,2.4199,2.6539,2.5968,2.5905,2.6608,2.5888,2.5486,2.5432,2.5432,2.5427,2.5371,2.5371,2.5371,2.5377,2.5362,2.5364,2.541,2.6343,2.7092,2.7778,2.8701,2.9451,2.9925,2.898,2.8251,2.7717,2.7508,2.71,2.6611,2.6303,2.584,2.5417,2.5429,2.5199,2.4469,2.2119,2.2823,0.0,0.0,0.0,0.0,0.0,0.0,0.0,0.0,2.5747,2.6259,2.659,2.7651,2.8786,2.9594,3.0325,3.1366,3.3018,3.2596,3.2238,3.2844,3.1663,3.048,2.9785,2.9303,2.9002,2.9002,2.8363,2.7953,2.7953,2.7351,2.6905,2.6748,2.6322,2.5594,2.457,2.5307,2.4835,2.3022,2.3527,2.3636,2.3271,2.2616,2.2586,2.3078,2.2445,2.2032,2.1846,2.0871,2.0133,1.9524,1.8654,1.8025,1.7605,1.7605,1.6884,1.5724,1.4841,1.4519,1.4467,0.0,1.5085,1.514,1.5025,1.5165,1.5291,1.5298,1.5303,1.583,1.7338,1.7829,1.8668,2.0319,2.0615,2.0117,1.8591,1.9715,2.0543,2.068,2.216,2.3809,2.5578,2.5568,2.5561,2.5658,2.5554,2.5402,2.523,2.523,2.5147,2.497,2.497,2.497,2.4974,2.5143,2.5227,2.535,2.715,2.7959,2.8186,2.9746,3.0444,3.0495,3.0175,2.9624,2.8971,2.8695,2.8335,2.7951,2.7734,2.761,2.7412,2.6605,2.6555,2.6298,2.3698,2.3403,2.3161,1.9899,1.8704,1.8965,2.1284,2.3063,2.4843,0.0,2.9865,3.1459,3.029,3.2579,3.4468,3.3358,3.4217,3.515,3.5325,3.4798,3.433,3.4355,3.3193,3.2296,3.2198,3.0317,2.9002,2.9002,2.8907,2.8844,2.8844,2.878,2.8363,2.7604,2.7682,2.731,2.6431,2.624,2.5937,2.5494,2.5114,2.4566,2.3904,2.381,2.3535,2.3108,2.3017,2.2567,2.1822,2.0475,1.9619,1.9115,1.855,1.8025,1.7605,1.7605,1.7495,1.7236,1.6302,1.5985,1.5842,0.0,1.519,1.5231,1.5185,1.5246,1.5301,1.5353,1.5353,1.5618,1.631,1.6438,1.7106,1.8842,1.9043,1.8311,1.6532,1.797,1.9385,2.0332,2.2027,2.3742,2.5433,2.5347,2.5271,2.5271,2.5159,2.5048,2.4968,2.4968,2.515,2.5539,2.5539,2.5786,2.6217,2.5837,2.5664,2.5715,2.6578,2.7294,2.7981,2.923,3.0099,3.0581,2.9962,2.9588,2.9187,2.7706,2.7046,0.0,0.0,2.6314,2.6355,2.7214,2.7192,2.651,2.5018,2.4638,2.4381,2.3075,2.3185,2.4144,2.6167,2.8229,3.0227,3.1942,3.3317,3.4085,3.3617,3.5394,3.6846,3.6257,3.663,3.7008,3.6932,3.5626,3.4621,3.46,3.3784,3.3198,3.3198,3.1905,3.0599,2.9464,2.9583,2.9424,2.8642,2.885,2.8661,2.7908,2.7667,2.7204,2.6415,2.6267,2.601,2.5612,2.5704,2.5437,2.4824,2.4824,2.4476,2.3864,2.4251,2.3838,2.2694,2.1384,2.0505,2.0033,1.9819,1.9411,1.8927,1.9296,1.923,1.8711,1.72,1.646,1.6162,0.0,1.5268,1.5308,1.5319,1.5322,1.5344,1.539,1.5399,1.5405,1.5391,1.541,1.5877,1.7125,1.7214,1.6667,1.542,1.688,1.8582,2.0264,2.1983,2.3664,2.5282,2.5172,2.5165,2.5346,2.5206,2.5213,2.5377,2.5276,2.5483,2.5994,2.5903,2.6228,2.6851,2.6326,2.602,2.5933,2.6264,2.6898,2.7739,2.8429,2.935,3.0195,2.9301,2.8711,2.8137,2.6371,2.5717,0.0,0.0,2.4828,2.5404,2.6125,2.6381,2.6182,2.501,2.4443,2.4345,2.5017,2.5906,2.7173,2.9376,3.168,3.3705,3.4907,3.5667,3.6105,3.6053,3.742,3.8522,3.8172,3.8455,3.8529,3.7935,3.653,3.5373,3.4926,3.4286,3.3797,3.3604,3.2937,3.1719,2.974,3.0171,3.0206,2.926,2.9497,2.9299,2.8407,2.803,2.7525,2.6789,2.6638,2.6385,2.598,2.6176,2.598,2.5398,2.5398,2.5163,2.4694,2.4984,2.4586,2.3619,2.2543,2.1858,2.1497,2.1372,2.0927,2.037,2.0868,2.0744,2.0155,1.8607,1.7497,1.6719,0.0,0.0,1.5313,1.5384,1.5392,1.5393,1.5394,1.5407,1.5391,1.5391,1.5405,1.5408,1.5382,1.5377,1.536,1.5306,1.6839,1.8505,2.0189,2.1863,2.3463,2.4958,2.5003,2.5304,2.597,2.5974,2.6257,2.6842,2.6448,2.6173,2.599,2.5679,2.5691,2.6038,2.6213,2.6063,2.5761,2.6758,2.7342,2.7599,2.7695,2.8348,2.9152,2.8421,2.7054,2.5488,2.5215,0.0,0.0,2.293,2.3931,2.5461,2.2609,2.3638,2.5437,2.3008,2.1884,2.1888,2.4111,2.4233,2.4613,2.8307,3.0945,3.3027,3.4482,3.6587,3.8017,3.7294,3.8934,4.0123,3.8833,3.9801,4.0169,3.8214,3.7824,3.7266,3.5791,3.4981,3.4305,3.359,3.2919,3.1685,2.961,3.0607,3.1396,3.1391,3.1423,3.0778,2.9332,2.9423,2.9125,2.8268,2.7789,2.7513,2.7445,2.68,2.6109,2.5398,2.5398,2.5384,2.5356,2.4722,2.4419,2.4337,2.3799,2.3537,2.3468,2.2884,2.2263,2.1625,2.1649,2.1649,2.1557,2.0923,1.9602,1.797,0.0,0.0,0.0,0.0,0.0,1.5408,1.5408,1.539,1.541,1.5404,1.5368,0.0,0.0,0.0,0.0,0.0,1.5667,1.6661,1.8401,1.9941,2.1529,2.3145,2.4666,2.5576,2.5792,2.5927,2.6341,2.7032,2.6668,2.6979,2.7915,2.7805,2.8102,2.8689,2.7714,2.734,2.7384,2.6691,2.733,2.8704,2.7752,2.8332,2.948,2.6606,2.516,2.4288,0.0,0.0,2.1024,2.0356,2.0629,2.1345,2.2018,2.2419,2.238,2.1003,2.204,2.3793,2.4566,2.608,2.8141,3.101,3.3396,3.5232,3.5906,3.7094,3.7882,3.7319,3.6885,3.6488,3.6032,3.6357,3.6504,3.5821,3.5714,3.5806,3.6092,3.4161,3.3279,3.4729,3.3401,3.248,3.2829,3.2407,3.1779,3.0886,3.1705,3.1827,3.0879,3.003,2.9669,2.9819,2.8763,2.8611,2.9474,2.8774,2.8299,2.8036,2.6736,2.5927,2.5504,2.4783,2.428,2.3921,2.371,2.3119,2.2356,2.2593,2.2297,2.1744,2.2193,2.21,2.1627,2.1061,2.0502,1.9821,0.0,0.0,0.0,0.0,0.0,0.0,0.0,0.0,0.0,0.0,0.0,0.0,0.0,0.0,0.0,0.0,0.0,1.5688,1.7417,1.8415,1.9628,2.1166,2.2629,2.3486,2.3658,2.4302,2.5015,2.5775,2.6223,2.7099,2.834,2.845,2.9006,2.9831,2.857,2.8041,2.8054,2.6901,2.715,2.8176,2.649,2.6771,2.7847,2.4475,2.2845,0.0,0.0,0.0,1.7733,1.7744,1.8284,1.9115,2.0138,2.0412,2.0487,2.1178,2.2685,2.4422,2.5827,2.7865,3.018,3.2556,3.4653,3.629,3.6742,3.7391,3.7895,3.7885,3.6909,3.5826,3.503,3.5368,3.5402,3.4339,3.4656,3.5338,3.6125,3.4378,3.3621,3.5309,3.4058,3.338,3.4106,3.359,3.2544,3.0941,3.1672,3.1753,3.0829,3.0207,3.0083,3.0512,2.9665,2.9627,3.0453,2.9758,2.9256,2.8984,2.7725,2.6691,2.58,2.5326,2.4612,2.3798,2.4107,2.3486,2.2312,2.3065,2.2973,2.2409,2.286,2.2756,2.2315,2.1753,2.1397,2.0976,0.0,0.0,0.0,0.0,0.0,0.0,0.0,0.0,0.0,0.0,0.0,0.0,0.0,0.0,0.0,0.0,0.0,0.0,1.717,0.0,0.0,1.9102,1.9272,1.9557,1.9998,2.139,2.2534,2.3369,2.5152,2.637,2.7084,2.7402,2.8134,2.9143,2.84,2.7896,2.7582,2.7171,2.6733,2.6146,2.4122,2.3896,2.4546,2.2214,0.0,0.0,0.0,0.0,1.5439,1.5421,1.7142,1.9005,1.7474,1.8126,2.0076,2.3215,2.366,2.3964,2.7612,2.9322,3.0608,3.2864,3.4636,3.605,3.6845,3.7459,3.8042,3.8734,3.8561,3.7628,3.5435,3.6294,3.6465,3.3793,3.4729,3.5826,3.5933,3.5432,3.5102,3.5246,3.4744,3.4185,3.3643,3.4185,3.3723,3.1718,3.1566,3.0991,2.9642,3.0153,3.0535,3.0558,3.0548,3.0523,3.0509,2.9826,2.9089,2.8286,2.8286,2.7529,2.6162,2.6174,2.5385,2.403,2.4999,2.4632,2.3365,2.4262,2.4244,2.3681,2.3681,2.3681,2.3606,2.2996,2.238,2.158,0.0,0.0,0.0,0.0,0.0,0.0,0.0,0.0,0.0,0.0,0.0,0.0,0.0,0.0,0.0,0.0,0.0,0.0,1.5502,0.0,0.0,0.0,0.0,0.0,0.0,0.0,0.0,2.296,2.3179,2.3568,2.4096,2.4173,2.4374,2.4635,2.3892,2.4084,2.4929,2.4428,2.465,2.5248,0.0,2.3858,2.4412,0.0,0.0,0.0,0.0,1.7853,1.7157,1.7154,1.8494,2.0429,2.1941,2.2647,2.2974,2.3227,2.4929,2.6765,2.7113,2.9093,3.1472,3.3244,3.4321,3.5162,3.6012,3.6784,3.6986,3.5901,3.4071,3.2115,3.0307,3.0656,3.1586,3.2623,3.3659,3.4839,3.6283,3.4409,3.3373,3.4692,3.3756,3.3859,3.6017,3.582,3.4953,3.3588,3.3665,3.363,3.327,3.2482,3.2257,3.2684,3.1706,3.1385,3.1825,3.1107,2.9892,2.824,2.824,2.7254,2.547,2.5971,2.5715,2.4901,2.5671,2.55,2.4708,2.4958,2.4949,2.4776,2.4776,2.4776,2.4713,2.3997,2.3636,2.3268,0.0,0.0,0.0,0.0,0.0,0.0,0.0,0.0,0.0,0.0,0.0,0.0,0.0,0.0,0.0,0.0,0.0,0.0,0.0,0.0,0.0,0.0,0.0,0.0,0.0,0.0,0.0,0.0,0.0,0.0,2.2212,2.2865,2.335,2.3618,2.288,2.2999,2.3708,2.3348,0.0,0.0,0.0,0.0,0.0,0.0,0.0,0.0,0.0,1.8648,1.8604,2.0143,2.0592,2.1129,2.4471,2.522,2.5065,2.6089,2.7188,2.8126,2.8318,3.0206,3.2312,3.3199,3.4203,3.4921,3.4655,3.5116,3.5001,3.2912,3.1524,3.0074,2.8045,2.8761,3.0215,3.1918,3.3101,3.444,3.6266,3.4226,3.3024,3.4366,3.3277,3.337,3.5862,3.5666,3.5256,3.4961,3.4616,3.4034,3.3145,3.2997,3.2958,3.2956,3.2839,3.2605,3.231,3.1582,3.0314,2.8553,2.8553,2.7603,2.5872,2.6243,2.5866,2.4933,2.5759,2.5519,2.4578,2.5021,2.5202,2.5202,2.5202,2.5202,2.5154,2.4732,2.4185,2.3546,0.0,0.0,0.0,0.0,0.0,0.0,0.0,0.0,0.0,0.0,1.5319,0.0,0.0,0.0,0.0,0.0,0.0,0.0,0.0,0.0,0.0,0.0,0.0,0.0,0.0,0.0,0.0,0.0,0.0,0.0,0.0,0.0,0.0,0.0,0.0,0.0,0.0,0.0,0.0,0.0,0.0,0.0,0.0,0.0,0.0,0.0,0.0,1.9789,1.9649,2.3268,2.2968,2.1855,2.6152,2.6992,2.6893,2.9594,2.9506,2.8799,3.0005,3.1577,3.289,3.305,3.4218,3.4923,3.343,3.3259,3.2716,3.016,2.9931,2.9568,2.7474,2.896,3.0813,3.1825,3.3196,3.4523,3.5642,3.4393,3.3524,3.4011,3.2953,3.2906,3.4729,3.4604,3.4818,3.5775,3.4934,3.359,3.1839,3.2889,3.3194,3.2411,3.3528,3.3569,3.2341,3.1633,3.0544,2.9066,2.9029,2.8197,2.6691,2.6691,2.6014,2.4847,2.5712,2.5323,2.4166,2.5041,2.5411,2.5411,2.5411,2.5411,2.5379,2.5183,2.4344,2.3262,0.0,0.0,0.0,0.0,0.0,0.0,0.0,0.0,0.0,0.0,1.5336,1.5547,0.0,0.0,0.0,0.0,0.0,0.0,0.0,0.0,0.0,0.0,0.0,0.0,0.0,1.4684,1.5344,1.5791,1.6925,0.0,0.0,0.0,0.0,0.0,0.0,0.0,0.0,0.0,0.0,0.0,0.0,0.0,0.0,0.0,0.0,0.0,2.0246,1.979,1.9748,0.0,2.4652,2.4503,2.8847,3.0035,2.9691,2.8943,2.9444,3.0156,2.9657,3.0778,3.2396,3.3658,3.4205,3.4359,3.4052,3.2981,3.1316,2.8781,2.7612,2.708,2.7102,2.896,3.1139,3.3121,3.4789,3.5257,3.3495,3.4069,3.4233,3.3044,3.2095,3.273,3.5717,3.417,3.3698,3.5436,3.5389,3.5066,3.4607,3.441,3.387,3.2904,3.2472,3.2329,3.2458,3.1948,3.0956,2.9488,2.9157,2.8197,2.6691,2.6691,2.6556,2.6319,2.6506,2.6438,2.6185,2.637,2.6436,2.6436,2.6436,2.6436,2.6302,2.5078,2.4474,2.4088,0.0,0.0,0.0,0.0,0.0,0.0,0.0,1.5409,1.539,1.5407,1.5364,1.5491,1.5847,1.5889,1.57,0.0,0.0,0.0,0.0,0.0,0.0,0.0,0.0,0.0,0.0,1.4754,1.5026,1.5297,0.0,1.6731,1.6113,1.6906,1.7284,1.7284,1.7284,1.7216,1.7094,0.0,0.0,1.706,1.7902,1.8634,0.0,0.0,0.0,0.0,0.0,2.0067,2.0307,2.3803,2.4142,2.4001,2.9258,3.0858,3.0386,2.8242,2.9139,3.0399,2.8556,3.0267,3.2737,3.342,3.4237,3.4295,3.207,3.0916,2.9256,2.537,2.4878,2.5105,2.4911,2.6737,2.9411,3.292,3.4431,3.515,3.5142,3.5059,3.4564,3.3366,3.2137,3.2021,3.3587,3.2669,3.2554,3.388,3.3768,3.3862,3.4387,3.4158,3.3982,3.3894,3.3142,3.2844,3.3068,3.2475,3.1481,3.0161,2.9988,2.8971,2.7283,2.7283,2.7283,2.7249,2.686,2.6571,2.6344,2.6605,2.6333,2.5831,2.6453,2.6691,2.6607,2.5912,2.5168,2.4389,0.0,0.0,0.0,0.0,0.0,0.0,0.0,1.5561,1.5683,1.5684,1.568,1.566,1.5617,1.6159,1.6167,0.0,0.0,0.0,0.0,0.0,0.0,0.0,0.0,0.0,0.0,0.0,0.0,1.528,1.6879,0.0,0.0,0.0,0.0,0.0,1.7842,1.7444,1.6905,1.7095,1.6856,0.0,0.0,1.8343,0.0,0.0,0.0,0.0,0.0,2.0739,2.1303,2.3624,2.3511,2.3301,2.8223,2.9668,2.9219,2.7715,2.8594,2.9765,2.8376,3.0409,3.2981,3.3219,3.4266,3.4237,3.0506,2.9377,2.7761,2.3024,2.3144,2.3981,2.3583,2.5282,2.8142,3.2437,3.3444,3.4433,3.6654,3.5735,3.4646,3.4119,3.2678,3.1783,3.1892,3.1642,3.1875,3.2797,3.236,3.2496,3.3527,3.344,3.3686,3.4357,3.3823,3.3554,3.3636,3.2983,3.2094,3.1005,3.0904,2.9885,2.8083,2.8083,2.7964,2.7793,2.7212,2.6552,2.5945,2.6675,2.6207,2.5161,2.6452,2.6955,2.6921,2.6563,2.5707,2.468,0.0,0.0,0.0,0.0,0.0,0.0,0.0,1.606,1.6575,1.6582,1.6582,1.658,1.6565,1.6581,1.6233,0.0,0.0,0.0,0.0,0.0,0.0,0.0,0.0,0.0,0.0,0.0,0.0,1.6179,1.7728,0.0,0.0,0.0,0.0,0.0,0.0,1.5946,1.5227,1.5443,0.0,0.0,0.0,0.0,0.0,0.0,0.0,0.0,0.0,2.2039,2.2931,2.4035,2.4292,2.4414,2.5742,2.5625,2.543,2.7559,2.7793,2.7968,3.0774,3.1778,3.2363,3.3819,3.4253,3.3821,3.1891,3.0237,2.8107,2.4591,2.3995,2.4451,2.559,2.7253,2.9444,3.2437,3.2566,3.2974,3.4945,3.4676,3.4438,3.483,3.3679,3.3042,3.3521,3.2476,3.2293,3.3595,3.2978,3.2857,3.3562,3.2962,3.2839,3.3322,3.3265,3.3411,3.3771,3.3353,3.2742,3.1967,3.1538,3.0519,2.8971,2.8971,2.8585,2.7903,2.7815,2.6936,2.5658,2.7166,2.6866,2.5605,2.7183,2.7797,2.7621,2.6143,2.5526,2.5209,0.0,0.0,0.0,0.0,0.0,0.0,1.5334,1.6076,1.6647,1.6692,1.6653,1.6657,1.6698,1.6674,1.6289,1.5375,0.0,0.0,0.0,0.0,0.0,0.0,0.0,0.0,0.0,0.0,1.6237,1.6183,1.7802,0.0,0.0,0.0,0.0,0.0,0.0,1.6198,1.5673,1.5751,0.0,0.0,0.0,0.0,0.0,0.0,0.0,0.0,0.0,0.0,2.3848,2.427,2.4081,2.373,2.4043,2.2832,2.1641,2.3203,2.5625,2.7617,2.685,2.9225,3.2182,3.3344,3.3522,3.2833,3.0641,2.8813,2.6621,2.3235,2.2951,2.3486,2.4025,2.5507,2.7471,2.997,3.06,3.1874,3.5046,3.531,3.5369,3.5953,3.5275,3.4128,3.2513,3.2011,3.1957,3.234,3.2183,3.2333,3.2962,3.226,3.2363,3.3514,3.3095,3.3145,3.3788,3.3634,3.3288,3.2762,3.2577,3.1523,2.9753,2.9753,2.9328,2.8538,2.8092,2.6801,2.518,2.7089,2.6508,2.4593,2.696,2.7897,2.7809,2.7171,2.634,2.5419,0.0,0.0,0.0,0.0,0.0,1.5354,1.5625,1.6182,1.6687,1.7019,1.6787,1.6621,1.6697,1.6463,1.6152,1.5759,1.7282,0.0,0.0,0.0,0.0,0.0,0.0,0.0,0.0,0.0,1.6834,1.6834,1.8264,1.8864,0.0,0.0,1.8087,1.79,0.0,0.0,0.0,0.0,0.0,0.0,0.0,0.0,0.0,0.0,0.0,0.0,0.0,0.0,0.0,0.0,0.0,2.3144,2.2832,2.1348,0.0,2.0723,2.371,2.6364,2.4685,2.7969,3.2073,3.2924,3.2643,3.1621,2.9569,2.7601,2.5385,2.2485,2.2586,2.3182,2.3182,2.4351,2.6042,0.0,2.9459,3.1211,3.4566,3.5334,3.5784,3.6351,3.5961,3.4879,3.2922,3.2385,3.205,3.1776,3.1672,3.1998,3.2908,3.1971,3.2027,3.3403,3.3115,3.3238,3.3788,3.3807,3.3666,3.3394,3.3394,3.2271,3.022,3.0453,2.9862,2.8635,2.8358,2.7104,2.5418,2.7402,2.6752,2.4751,2.7253,2.8228,2.8161,2.7696,2.68,2.5762,0.0,0.0,0.0,0.0,0.0,0.0,1.637,1.651,1.6827,1.7777,1.7148,1.6621,1.6683,1.5922,1.5754,1.6601,1.8214,0.0,0.0,0.0,0.0,0.0,0.0,0.0,0.0,0.0,1.8566,1.8566,1.9381,1.979,1.9771,1.8971,1.8122,1.7267,0.0,0.0,0.0,0.0,0.0,0.0,0.0,0.0,0.0,0.0,0.0,0.0,0.0,0.0,0.0,0.0,0.0,0.0,0.0,2.1309,2.0762,2.1621,2.2433,2.3617,2.6179,2.9291,3.1985,3.2808,3.1706,3.0192,2.93,2.714,2.4827,2.3139,2.3471,2.4091,2.4091,2.4755,2.6042,2.8334,2.9659,3.1061,3.2953,3.4254,3.5201,3.5746,3.5344,3.522,3.5792,3.4113,3.288,3.2608,3.1843,3.2094,3.3697,3.2265,3.177,3.2583,3.3385,3.3788,3.3807,3.3807,3.3807,3.3788,3.3788,3.254,3.0234,3.1005,3.0081,2.786,2.8656,2.8077,2.6712,2.8315,2.8022,2.673,2.8352,2.8994,2.8792,2.7196,2.6602,2.6363,0.0,0.0,0.0,0.0,0.0,0.0,0.0,1.5984,1.6503,1.6896,1.6708,1.6553,1.662,1.586,1.5918,1.7387,1.8045,0.0,0.0,0.0,0.0,0.0,0.0,0.0,0.0,0.0,1.9015,1.9015,1.9819,2.0202,2.0183,1.9297,1.8786,1.8534,1.6982,1.6215,0.0,0.0,0.0,0.0,0.0,0.0,2.1284,0.0,0.0,0.0,0.0,0.0,0.0,0.0,0.0,0.0,0.0,0.0,0.0,2.0804,2.192,2.2986,2.2618,2.4523,2.6803,2.759,2.6942,2.6029,2.5741,2.4606,2.3274,2.2139,2.2605,2.3394,2.3995,2.4755,2.5922,2.7838,2.8461,3.0106,3.4201,3.5097,3.5763,3.6901,3.5704,3.4936,3.5333,3.3722,3.3053,3.3963,3.286,3.2551,3.3476,3.3615,3.3592,3.3435,3.3115,3.3238,3.3788,3.3256,3.2968,3.2968,3.2968,3.172,2.9427,3.0779,3.0075,2.7842,2.8638,2.8088,2.6712,2.8345,2.8051,2.6749,2.8363,2.9005,2.895,2.8436,2.7886,2.7346,0.0,0.0,0.0,0.0,0.0,0.0,0.0,1.5623,1.5933,1.638,1.6138,1.598,1.6108,1.5626,1.5997,1.7741,1.7942,0.0,0.0,0.0,0.0,0.0,0.0,0.0,1.9165,1.9165,1.9323,1.9655,2.0157,2.0233,1.9899,1.9314,1.893,1.8661,1.7488,1.6834,0.0,0.0,0.0,0.0,0.0,0.0,2.1205,0.0,0.0,0.0,0.0,0.0,0.0,0.0,0.0,0.0,0.0,0.0,0.0,0.0,2.1448,2.1877,2.1112,2.2499,2.437,2.5155,2.448,2.3706,2.4033,2.3163,2.2254,2.2023,2.3447,2.4683,2.4567,2.5755,2.689,2.7332,2.8756,3.0794,3.3654,3.4615,3.51,3.5339,3.4857,3.4549,3.4598,3.3625,3.3335,3.4139,3.3364,3.3144,3.3856,3.4421,3.4376,3.366,3.3474,3.3467,3.3647,3.3147,3.2698,3.2312,3.2613,3.1427,2.906,3.0668,3.0075,2.7842,2.8638,2.8436,0.0,2.8601,2.8418,2.7611,2.8601,2.9005,2.8968,2.8656,2.8227,2.775,0.0,0.0,0.0,0.0,0.0,0.0,0.0,1.5403,1.522,1.6086,1.5514,1.5085,1.526,1.5293,1.5993,1.7729,0.0,0.0,0.0,0.0,0.0,0.0,0.0,0.0,1.9198,1.9195,1.9588,2.0391,2.0331,1.9899,1.9115,1.9036,1.8611,1.7895,1.7837,1.7395,1.6746,0.0,0.0,0.0,2.0408,2.0408,0.0,0.0,0.0,0.0,0.0,0.0,0.0,0.0,0.0,0.0,0.0,0.0,0.0,0.0,0.0,0.0,0.0,2.2601,2.3855,2.4731,2.3735,2.2759,2.3629,2.2586,0.0,2.2754,2.551,2.7255,2.5769,2.7563,2.8723,2.6986,3.014,3.2545,3.1814,3.3199,3.3622,3.1814,3.3256,3.4183,3.3697,3.3807,3.3821,3.3573,3.3554,3.3904,3.4716,3.4697,3.4281,3.3468,3.4187,3.4148,3.3315,3.3315,3.2753,3.1648,3.2456,3.1447,2.8934,3.06,3.0079,2.7889,2.8706,2.9044,2.9044,2.9044,2.9033,2.904,2.904,2.9017,2.8913,2.8154,2.7879,2.7769,0.0,0.0,0.0,0.0,0.0,0.0,0.0,0.0,0.0,0.0,1.5222,1.5161,1.5215,1.5221,1.5904,0.0,0.0,0.0,0.0,0.0,0.0,0.0,0.0,0.0,2.0094,2.0095,2.0193,2.0407,1.9787,1.9378,1.9163,1.8485,1.8076,1.786,1.7196,1.7152,1.765,1.8472,0.0,0.0,2.0408,2.0408,0.0,0.0,0.0,0.0,2.0408,2.0527,0.0,0.0,0.0,0.0,0.0,0.0,0.0,0.0,2.1479,2.0477,2.1301,0.0,1.9565,2.1096,2.0677,2.0127,0.0,2.0889,2.1365,2.4135,2.5346,2.6192,2.7121,2.9371,3.0314,2.7986,3.0063,3.1929,3.1737,3.3718,3.4077,3.1058,3.3904,3.5089,3.2455,3.3965,3.5065,3.5013,3.5013,3.5109,3.5312,3.468,3.422,3.4028,3.3561,3.3018,3.2401,3.2468,3.1685,3.0133,3.0969,3.0077,2.7705,2.9992,3.0039,2.8387,2.9186,2.9533,2.9533,2.9533,2.9436,2.931,2.931,2.9171,2.8987,2.8785,2.8712,2.8693,0.0,0.0,0.0,0.0,0.0,0.0,0.0,0.0,0.0,0.0,0.0,1.4989,1.5068,1.5052,0.0,0.0,0.0,0.0,0.0,0.0,0.0,0.0,0.0,1.9793,1.9801,1.9801,1.9823,1.9848,1.9772,1.9151,1.8008,1.793,1.7699,1.7275,1.6805,1.7485,1.8986,1.8649,1.9216,2.0357,2.0357,0.0,0.0,0.0,0.0,0.0,2.0357,2.0357,0.0,2.0357,2.0357,2.0352,0.0,0.0,0.0,0.0,2.16,2.0654,2.2254,2.0546,1.8796,2.0927,2.0219,1.953,2.1585,2.1427,2.1692,2.4673,2.5942,2.6774,2.7741,2.9333,3.0198,2.9217,2.9871,3.0794,3.1583,3.2885,3.3077,3.1212,3.2654,3.3558,3.291,3.4795,3.5904,3.5538,3.55,3.5327,3.493,3.4834,3.443,3.3622,3.3526,3.3163,3.2463,3.2129,3.1225,2.9786,3.0665,2.9904,2.7811,2.9932,3.0224,2.9043,2.9082,2.9319,2.9667,2.9262,2.9286,2.9542,2.9542,2.9455,2.9314,2.9225,2.9171,2.9178,0.0,0.0,0.0,0.0,0.0,0.0,0.0,0.0,0.0,0.0,0.0,0.0,0.0,0.0,0.0,0.0,0.0,0.0,0.0,0.0,0.0,0.0,1.9204,1.9146,1.9022,1.9139,1.9163,1.9102,1.9663,1.8811,1.6718,1.7217,1.7046,1.6355,1.6765,1.8029,1.9777,1.8596,1.8934,2.0225,2.026,0.0,0.0,0.0,0.0,0.0,0.0,0.0,0.0,2.0308,2.0308,2.0308,2.0308,0.0,0.0,0.0,0.0,0.0,2.2797,2.1397,1.9992,2.2547,2.1162,2.0069,2.336,0.0,2.2173,2.525,2.7063,2.8165,2.8429,2.9665,3.0569,3.025,2.991,3.0242,3.1852,3.2295,3.2275,3.1756,3.1615,3.2192,3.384,3.5526,3.6231,3.5558,3.55,3.5173,3.443,3.4853,3.4423,3.2949,3.3372,3.3333,3.2718,3.2045,3.1085,2.9877,3.076,3.0232,2.8569,3.0112,3.0461,2.9769,2.9031,2.9126,2.975,2.9004,2.912,2.9756,2.9756,2.9731,2.9678,2.9504,2.9444,2.9414,0.0,0.0,0.0,0.0,0.0,0.0,0.0,0.0,0.0,0.0,0.0,0.0,0.0,0.0,0.0,0.0,0.0,0.0,0.0,0.0,0.0,1.9709,1.969,1.937,1.8683,1.9333,1.9352,1.8688,1.8084,1.7585,1.7177,1.5946,1.5281,1.5266,1.7461,1.8209,1.7843,1.8994,1.9641,1.9888,1.9993,0.0,0.0,0.0,0.0,0.0,0.0,0.0,0.0,2.0308,2.0308,2.0308,2.0308,0.0,0.0,0.0,0.0,0.0,2.0069,2.0431,2.1735,2.4288,2.2481,2.0792,2.3494,2.222,2.2004,2.7409,2.8723,2.9377,3.0833,3.4737,3.5879,3.0223,3.1006,3.266,3.3667,3.5045,3.4885,3.2045,3.4737,3.5853,3.3333,3.4673,3.5635,3.5519,3.55,3.5442,3.5308,3.4026,3.3179,3.291,3.1654,3.1269,3.1891,3.1756,3.0879,2.924,3.0118,3.001,2.9032,3.0024,3.0401,3.0292,3.0158,3.0177,3.0273,3.0158,3.0047,2.9954,2.9954,2.9853,2.9696,2.9661,2.9652,2.9625,0.0,0.0,0.0,0.0,0.0,0.0,0.0,0.0,0.0,0.0,0.0,0.0,0.0,0.0,0.0,0.0,0.0,0.0,0.0,0.0,1.952,1.952,1.952,1.9444,1.9249,1.9607,1.9394,1.8553,1.862,1.82,1.7288,1.6549,1.6201,1.6248,1.7458,1.8247,1.8664,1.8968,1.9364,1.9834,0.0,0.0,0.0,0.0,0.0,0.0,0.0,0.0,0.0,0.0,1.9549,1.9519,1.9042,0.0,0.0,0.0,0.0,0.0,1.9661,1.9912,2.12,2.5601,2.3481,2.1788,2.7549,2.4755,2.2889,2.9737,2.8626,2.7337,3.0423,3.291,3.4064,3.2776,3.5064,3.6661,3.5699,3.543,3.5103,3.4487,3.5315,3.5507,3.4404,3.5423,3.5962,3.5538,3.55,3.5288,3.4814,3.4045,3.3391,3.291,3.1737,3.1288,3.1698,3.1231,3.0596,2.9813,3.0212,2.9948,2.9127,3.0,3.0404,3.0365,2.991,2.9962,3.0365,2.989,2.9901,3.0209,3.0209,3.0162,3.0052,2.9927,2.9788,2.9677,0.0,0.0,0.0,0.0,0.0,0.0,0.0,0.0,0.0,0.0,0.0,0.0,0.0,0.0,0.0,0.0,0.0,0.0,0.0,1.9062,1.9172,1.9238,1.9238,1.9276,1.9395,1.9588,1.9257,1.8409,1.907,1.8651,1.7219,1.724,1.7243,1.7224,1.7645,1.8419,1.9363,1.8883,1.9076,1.9757,0.0,0.0,0.0,0.0,0.0,0.0,0.0,0.0,0.0,0.0,0.0,0.0,0.0,0.0,0.0,1.828,1.8222,1.8219,1.9158,1.935,2.0508,2.5471,2.3485,2.25,3.0968,2.6986,2.3774,3.1852,2.9429,2.7049,3.0885,3.1269,3.2096,3.5519,3.8238,3.9431,3.8077,3.6603,3.6091,3.718,3.6007,3.5276,3.5731,3.6173,3.6154,3.5558,3.5308,3.4911,3.4244,3.384,3.3391,3.291,3.1929,3.1487,3.1698,3.0846,3.0404,3.0404,3.0404,3.0038,2.9429,3.0096,3.0404,3.0365,2.9698,2.9775,3.0346,2.9679,2.9794,3.0404,3.0404,3.0404,3.0386,3.0163,2.9996,2.9837,0.0,0.0,0.0,0.0,0.0,0.0,0.0,0.0,0.0,0.0,0.0,0.0,0.0,0.0,0.0,0.0,0.0,0.0,0.0,1.8342,1.8753,1.9009,1.9018,1.8764,1.8224,1.8949,1.893,1.8132,1.8187,1.7783,1.6923,1.7114,1.7108,1.6992,1.868,1.8975,1.8268,1.8949,1.928,1.9413,2.0414,0.0,0.0,0.0,0.0,0.0,0.0,0.0,0.0,0.0,0.0,0.0,0.0,0.0,1.7564,1.6872,1.7741,1.8588,1.716,1.8446,2.0677,2.2663,2.1716,2.25,3.0968,2.6986,2.4135,3.3404,3.3096,3.1968,3.4635,3.3808,3.3833,3.7257,3.8027,3.895,4.1135,4.0623,3.9804,3.9188,3.8296,3.743,3.6692,3.5981,3.5558,3.55,3.4757,3.4263,3.4205,3.2737,3.2199,3.2872,3.1327,3.0885,3.1698,3.0846,3.0404,3.0404,3.0404,3.0365,3.0308,3.0365,3.0404,3.0404,3.0327,3.0346,3.0404,3.0327,3.0346,3.0404,3.0404,3.0404,3.0404,3.0373,3.0361,3.0349,0.0,0.0,0.0,0.0,0.0,0.0,0.0,0.0,0.0,0.0,0.0,1.6282,1.661,0.0,0.0,0.0,0.0,0.0,0.0,1.7781,1.8172,1.8734,1.8752,1.8646,1.8412,1.8871,1.8955,1.8665,1.848,1.799,1.7229,1.8273,1.8268,1.747,1.9158,1.9504,1.8875,1.9168,1.9297,1.9415,2.0847,2.0325,0.0,0.0,0.0,0.0,0.0,0.0,0.0,0.0,1.6796,1.6853,1.6311,1.6157,1.6099,1.5772,1.6522,1.7411,1.7276,1.8353,2.0527,2.4894,2.3101,2.2654,3.166,2.8602,2.6365,3.5238,3.3333,3.0544,3.2058,3.4391,3.6661,3.8507,3.9681,4.0508,4.0931,4.0285,3.9438,3.8584,3.7719,3.7058,3.6731,3.5962,3.55,3.55,3.4699,3.4205,3.4205,3.2602,3.1833,3.2141,3.1,3.0558,3.0885,3.0558,3.0404,3.0404,3.0404,3.0404,3.0404,3.0404,3.0404,3.0404,3.0404,3.0404,3.0404,3.0404,3.0404,3.0404,3.0404,3.0731,3.1135,3.0597,3.0859,3.1352,0.0,0.0,0.0,0.0,0.0,0.0,0.0,0.0,1.6025,0.0,0.0,0.0,0.0,1.6818,0.0,0.0,0.0,0.0,1.7311,1.7501,1.7859,1.8452,1.8469,1.8508,1.8595,1.8706,1.8789,1.8861,1.8448,1.8072,1.7798,1.8601,1.851,1.7686,1.8789,1.9092,1.8741,1.8741,1.8911,1.936,2.1021,2.0396,0.0,0.0,0.0,0.0,0.0,0.0,0.0,0.0,1.6246,1.6265,1.5452,1.5192,1.525,1.5538,1.6215,1.7007,1.7545,1.8546,2.0527,2.5144,2.3062,2.2331,3.166,2.9602,2.7904,3.5622,3.4372,3.1929,3.2,3.4865,3.7411,3.8007,3.9277,4.0181,4.0131,3.9419,3.8565,3.77,3.7058,3.6596,3.6346,3.5827,3.5385,3.5122,3.4276,3.3686,3.341,3.2064,3.1429,3.1698,3.0846,3.0538,3.0808,3.0538,3.0404,3.0404,3.0404,3.0404,3.0404,3.0404,3.0404,3.0404,3.0404,3.0404,3.0404,3.0404,3.0404,3.0404,3.0404,3.0763,3.1282,3.1212,3.1346,3.1462,0.0,0.0,0.0,0.0,0.0,0.0,0.0,0.0,1.8688,1.8958,1.8236,0.0,0.0,0.0,0.0,0.0,0.0,0.0,1.6996,1.749,1.7916,1.8177,1.8198,1.832,1.8585,1.833,1.833,1.8585,1.7789,1.7806,1.8567,1.7771,1.7445,1.7506,1.7506,1.7506,1.7515,1.7515,1.8083,1.9137,2.0734,2.0543,1.9363,0.0,0.0,0.0,0.0,0.0,0.0,0.0,1.6139,1.607,1.5408,1.5212,1.5404,1.6272,1.7083,1.7718,1.7738,1.8984,2.0692,2.2393,2.0916,2.1455,3.0717,2.9602,2.8294,3.425,3.6815,3.745,3.575,3.55,3.5538,3.5481,3.6173,3.7315,3.9034,3.8534,3.7668,3.6796,3.668,3.6372,3.5577,3.5488,3.5122,3.4263,3.3397,3.2545,3.1737,3.0865,3.0808,3.166,3.0846,3.0808,3.1679,3.0827,3.0404,3.0404,3.0404,3.0404,3.0404,3.0404,3.0404,3.0404,3.0404,3.0404,3.0404,3.0404,3.0404,3.0404,3.0404,3.0405,3.063,3.2279,3.1857,3.0451,0.0,0.0,0.0,0.0,0.0,0.0,0.0,0.0,1.7288,1.7808,1.7657,0.0,0.0,0.0,0.0,0.0,0.0,0.0,1.6792,1.6951,1.7296,1.7888,1.7916,1.796,1.8046,1.7452,1.7452,1.8046,1.7813,1.7802,1.8029,1.7785,1.7797,1.8026,1.854,1.857,1.8312,1.8825,1.8916,1.8814,1.9859,1.9085,1.7555,0.0,0.0,0.0,0.0,0.0,0.0,0.0,0.0,0.0,1.5434,1.6003,1.7253,1.8734,1.8911,1.9011,2.0796,2.0354,2.0085,2.299,2.2682,2.2566,2.5933,2.7126,2.8852,3.3603,3.4968,3.4622,3.2327,3.5334,3.7392,3.4988,3.6839,3.8369,3.7705,3.7427,3.6963,3.6095,3.5997,3.5883,3.559,3.5103,3.4637,3.4218,3.2916,3.2,3.1724,3.0865,3.0519,3.0788,3.0538,3.0519,3.0788,3.0538,3.0404,3.0404,3.0404,3.0404,3.0404,3.0404,3.0404,3.0404,3.0404,3.0404,3.0404,3.0404,3.0404,3.0404,3.0405,3.0899,3.1552,3.1245,3.2359,3.3634,0.0,0.0,0.0,0.0,0.0,0.0,1.7584,1.7243,1.7194,1.7667,1.7447,1.7495,0.0,0.0,0.0,1.6753,1.6699,0.0,0.0,1.6546,1.6891,1.7337,1.7631,1.7648,1.7371,1.6925,1.6773,1.6931,1.6931,1.6931,1.6931,1.6931,1.6856,1.6762,1.7501,1.7679,1.7457,1.8196,1.8308,1.8065,1.8878,1.8333,1.7225,0.0,0.0,0.0,0.0,0.0,0.0,0.0,0.0,0.0,1.6802,1.7865,1.9215,1.9254,1.96,2.0258,2.1485,2.1162,2.1416,2.5144,2.4683,2.3721,2.526,2.7049,2.9781,3.4706,3.543,3.4718,3.3192,3.5834,3.7613,3.5605,3.7035,3.805,3.7085,3.667,3.6287,3.5762,3.5707,3.5565,3.5202,3.4769,3.4152,3.3344,3.24,3.1672,3.127,3.0737,3.0442,3.0472,3.0447,3.0436,3.0436,3.0436,3.0428,3.0404,3.0404,3.0404,3.0404,3.0404,3.0404,3.0404,3.0404,3.0404,3.0404,3.0404,3.0404,3.0404,3.0405,3.0822,3.1335,3.0657,3.2564,3.5007,0.0,0.0,1.81,1.7828,0.0,0.0,1.78,1.7822,1.7899,1.8049,1.7428,1.7228,0.0,0.0,0.0,1.6607,1.6597,1.6316,0.0,1.6231,1.6597,1.6597,1.7236,1.7287,1.6604,1.6519,1.6164,1.5494,1.5561,1.5595,1.5595,1.5528,1.5189,1.4639,1.5308,1.5595,1.5646,1.6451,1.6894,1.7126,1.7867,1.7947,1.772,1.8527,0.0,0.0,0.0,0.0,0.0,0.0,0.0,0.0,1.8911,2.0096,2.0966,1.8796,1.9792,2.1523,2.1115,2.1812,2.3644,2.7656,2.6367,2.4912,2.7922,2.8986,3.0951,3.661,3.7026,3.6392,3.6559,3.6663,3.6723,3.6781,3.6851,3.692,3.6899,3.6223,3.5729,3.5729,3.5651,3.5353,3.4698,3.4413,3.367,3.2137,3.1887,3.1442,3.0642,3.0548,3.0541,3.0603,3.0545,3.0516,3.0516,3.0516,3.0477,3.0425,3.0425,3.0425,3.0425,3.0416,3.0404,3.0404,3.0404,3.0404,3.0404,3.0404,3.0404,3.0404,3.0398,3.0398,3.0392,3.0398,3.2376,3.4588,0.0,0.0,1.7861,1.7811,0.0,0.0,1.7833,1.7982,1.7855,1.7126,1.6874,1.6618,1.6193,1.5996,0.0,1.5842,1.5842,1.5774,1.5612,1.5757,1.5842,1.5842,1.5984,1.6001,1.5842,1.5274,1.4892,1.474,1.5325,1.5595,1.5578,1.5011,1.496,1.5375,1.5528,1.5595,1.568,1.6999,1.7262,1.6809,1.6973,1.675,1.6343,1.6753,1.6125,0.0,0.0,0.0,0.0,0.0,0.0,0.0,1.8908,1.9715,2.0712,2.1489,2.2085,2.3067,2.5582,2.4062,2.2333,2.4605,2.4701,2.597,3.2459,3.2566,3.219,3.5387,3.4795,3.4141,3.556,3.6394,3.6651,3.6064,3.6583,3.684,3.6213,3.6014,3.5931,3.5931,3.5326,3.5103,3.5559,3.3848,3.2768,3.2911,3.1707,3.0856,3.0606,3.0587,3.0587,3.0603,3.0587,3.0578,3.0578,3.0578,3.0568,3.0567,3.0567,3.0567,3.054,3.0451,3.0404,3.0404,3.0404,3.0404,3.0404,3.0404,3.0404,3.0404,3.0399,3.0392,3.0394,3.0398,3.0873,3.1385,0.0,0.0,0.0,0.0,0.0,0.0,0.0,0.0,1.7161,1.6285,1.6164,1.6028,1.5629,1.5595,0.0,0.0,1.5061,1.4919,1.4573,1.4885,1.524,1.5578,1.5595,1.5426,1.5088,1.4706,1.4334,1.3971,1.4369,1.4556,1.4539,1.4023,1.3985,1.4353,1.4596,1.4695,1.4761,1.5884,1.601,1.5429,1.5067,1.512,1.5384,1.5143,1.4944,1.4943,1.6271,0.0,0.0,0.0,0.0,0.0,0.0,0.0,2.197,2.12,2.1835,2.3105,2.4466,2.4409,2.4556,2.7148,2.8764,3.0431,3.3208,3.3773,3.4072,3.534,3.487,3.441,3.4965,3.5754,3.6064,3.5299,3.5921,3.6394,3.6004,3.5975,3.5859,3.543,3.498,3.455,3.4171,3.2967,3.2165,3.2097,3.1293,3.0787,3.075,3.0689,3.0687,3.0749,3.0689,3.0655,3.0655,3.0655,3.0641,3.0603,3.0603,3.0603,3.06,3.0485,3.0456,3.0456,3.0456,3.0472,3.0505,3.0505,3.0466,3.0408,3.0399,3.0395,3.0417,3.0586,3.0585,3.0498,0.0,0.0,0.0,0.0,0.0,0.0,0.0,0.0,0.0,1.5511,1.5409,1.5358,1.5223,1.5233,1.4969,0.0,0.0,0.0,1.3447,1.3971,1.458,1.5189,1.5233,1.4936,1.4318,1.4301,1.4005,1.3396,1.3532,1.3675,1.3831,1.3604,1.3481,1.3466,1.3843,1.3818,1.356,1.4293,1.4388,1.3972,1.3416,1.3816,1.4674,1.3966,1.4273,1.5203,1.6085,1.6064,1.6121,1.9322,0.0,0.0,0.0,0.0,2.2893,2.005,2.1027,2.2898,2.2337,2.4587,2.784,3.1011,3.3085,3.4027,3.2867,3.3896,3.5218,3.5669,3.5609,3.5298,3.4646,3.4944,3.5146,3.4695,3.523,3.5767,3.5976,3.5996,3.5723,3.5019,3.4668,3.3984,3.2754,3.2226,3.1738,3.1172,3.0996,3.0898,3.0898,3.0657,3.0636,3.0898,3.0656,3.0587,3.0723,3.0723,3.0707,3.0641,3.0641,3.0636,3.0623,3.0554,3.0529,3.0528,3.0528,3.0556,3.0603,3.0603,3.0525,3.0408,3.0467,3.0495,3.0525,3.0767,3.077,3.0623,0.0,0.0,0.0,0.0,0.0,0.0,0.0,0.0,0.0,0.0,1.4656,1.4402,1.376,1.3701,1.3642,1.3566,1.3549,1.3515,1.3413,0.0,0.0,1.3701,1.3701,1.365,1.354,1.3549,1.3498,1.3396,1.4039,1.4767,1.557,1.5536,1.5416,1.5253,1.5253,1.432,1.2803,1.3528,1.3816,1.3771,1.3894,1.4062,1.4159,1.3758,1.3708,1.3998,1.5146,1.5506,1.5776,1.7988,1.8161,0.0,0.0,0.0,2.0716,2.025,2.1932,2.4075,2.4703,2.6912,2.9479,3.1348,3.0538,3.034,3.4438,3.3968,3.3298,3.5505,3.5264,3.4649,3.4593,3.4055,3.3856,3.4568,3.4784,3.5136,3.5898,3.5996,3.5957,3.584,3.4492,3.3789,3.4316,3.2363,3.1348,3.1973,3.1328,3.0898,3.0898,3.0176,3.0097,3.0879,3.0156,3.0117,3.0878,3.0878,3.0878,3.0857,3.0857,3.0791,3.0686,3.068,3.0631,3.0587,3.0587,3.0594,3.0603,3.0603,3.0525,3.0428,3.0722,3.084,3.0819,3.0747,3.0782,3.0837,0.0,0.0,0.0,0.0,0.0,0.0,0.0,0.0,0.0,0.0,0.0,1.376,1.3447,1.3277,1.3173,1.3173,1.3042,1.3024,1.3165,1.3173,1.3234,1.3388,1.3396,1.3396,1.3396,1.3396,1.3396,1.3396,1.4141,1.5483,1.7368,1.7777,1.7031,1.5427,1.6331,1.5031,1.2246,1.3702,1.3748,1.2857,1.2697,1.2976,1.3438,1.3032,1.3171,1.3667,1.4204,1.4549,1.4999,1.6785,1.6997,1.6918,1.9211,0.0,0.0,0.0,2.1104,2.1964,2.524,2.6303,2.7588,3.2222,3.0788,2.9596,3.4778,3.4002,3.293,3.5469,3.5266,3.447,3.4014,3.4016,3.3902,3.3379,3.3672,3.4101,3.4492,3.4531,3.4531,3.4531,3.3867,3.3555,3.3926,3.2969,3.2266,3.2207,3.1836,3.1426,3.0937,3.0547,3.0508,3.0898,3.0527,3.0508,3.0898,3.0898,3.0898,3.0898,3.0898,3.0878,3.0815,3.0815,3.0743,3.0663,3.0663,3.0698,3.0778,3.0778,3.0739,3.07,3.0837,3.0903,3.0892,3.0822,3.0845,3.0892,0.0,0.0,0.0,0.0,0.0,0.0,0.0,0.0,0.0,0.0,0.0,1.3269,1.3192,0.0,0.0,0.0,1.2722,1.2706,1.297,1.3004,1.3121,1.3388,1.3396,1.3396,1.3396,1.3396,1.3396,1.3396,1.4141,1.5737,1.8141,1.9137,1.8389,1.6267,1.7256,1.6069,1.3376,1.4363,1.4056,1.2834,1.2556,1.2623,1.2875,1.2598,1.292,1.3556,1.3594,1.3834,1.4316,1.5572,1.5808,1.598,1.8179,1.8426,0.0,0.0,0.0,2.0943,2.5203,2.5826,2.6539,3.1931,3.0398,2.8753,3.3339,3.2734,3.1992,3.4766,3.5176,3.4766,3.3887,3.4082,3.4023,3.3008,3.3144,3.3476,3.3691,3.373,3.373,3.373,3.373,3.373,3.373,3.3535,3.3066,3.2266,3.2207,3.1816,3.0957,3.0684,3.0664,3.0898,3.0684,3.0684,3.0898,3.0684,3.0566,3.0566,3.0566,3.0684,3.0898,3.0898,3.0857,3.0746,3.0746,3.0814,3.0898,3.0898,3.0898,3.0898,3.0898,3.0898,3.0898,3.0898,3.0898,3.0898,0.0,0.0,0.0,0.0,0.0,0.0,0.0,0.0,0.0,0.0,0.0,1.2924,1.2668,1.263,1.262,1.262,1.261,1.2706,1.297,1.3004,1.3121,1.3388,1.3396,0.0,1.3396,1.3396,1.3396,1.3396,1.4141,1.5383,1.7119,1.8798,1.9373,1.8945,1.8086,1.7594,1.728,1.5545,1.4751,1.4686,1.4911,1.4049,1.2649,1.2882,1.3149,1.3438,1.3556,1.3746,1.3966,1.4232,1.4513,1.4942,1.5965,1.7424,1.8797,0.0,0.0,0.0,2.4972,2.6759,2.8337,2.9403,2.7721,2.6543,2.9316,2.9199,2.9453,3.2832,3.4805,3.5664,3.4785,3.3984,3.3711,3.4453,3.3906,3.3691,3.4512,3.4629,3.4629,3.4629,3.4629,3.4629,3.4629,3.3887,3.3066,3.2266,3.2207,3.1816,3.0957,3.0117,3.0059,3.0879,3.0098,3.0059,3.0898,3.0078,2.9668,2.9668,2.9668,3.0098,3.0898,3.0898,3.0898,3.0898,3.0898,3.0898,3.0898,3.0898,3.0898,3.0898,3.0898,3.0898,3.0898,3.0898,3.0898,3.0898,0.0,0.0,0.0,0.0,0.0,0.0,0.0,0.0,0.0,0.0,0.0,0.0,0.0,1.2445,1.2342,1.2342,1.22,1.2276,1.2706,1.275,1.2935,1.3379,1.3396,1.3396,1.3396,1.3396,1.3396,1.3396,1.4141,1.5121,1.6317,1.7419,1.8127,1.8575,2.0583,1.9373,1.5964,1.7805,1.6383,1.3115,1.5929,1.5277,1.2764,1.428,1.5139,1.5336,1.3965,1.4503,1.5697,1.4423,1.417,1.4579,1.5623,1.6121,1.654,1.7795,1.9663,2.1813,2.4076,2.4443,2.5058,2.8629,2.6795,2.5195,2.9408,2.9725,2.9452,3.0605,3.3555,3.5313,3.3285,3.3608,3.4092,3.3906,3.3569,3.3467,3.3828,3.3867,3.4062,3.4629,3.4707,3.4922,3.5488,3.5254,3.4492,3.3086,3.1973,3.123,3.0918,2.9531,2.9414,3.0859,3.0605,3.0312,3.0078,2.9199,2.8769,2.8769,2.9336,2.9766,3.0078,3.0644,3.0898,3.0898,3.0898,3.0898,3.0898,3.0898,3.0898,3.0898,3.0898,3.0898,3.0898,3.0898,3.0898,3.0898,0.0,0.0,0.0,1.2987,0.0,1.2806,1.263,1.2601,1.2572,1.2475,0.0,0.0,0.0,0.0,1.2081,1.2081,1.1897,1.1992,1.2435,1.2553,1.2806,1.326,1.3354,1.3515,1.376,1.3777,1.3777,1.3777,1.425,1.4823,1.5457,1.6242,1.6987,1.7757,2.0521,1.99,1.6952,1.9567,1.8401,1.5004,1.7471,1.686,1.457,1.5723,1.6439,1.6714,1.6002,1.6607,1.7613,1.687,1.6393,1.6186,1.6583,1.6288,1.6113,1.768,1.9408,2.1247,2.3305,2.3315,2.3495,2.666,2.5723,2.4765,2.7571,2.9158,3.0018,2.992,3.3123,3.5386,3.3589,3.4192,3.4794,3.4258,3.3906,3.3725,3.3782,3.3804,3.4138,3.5039,3.5137,3.5488,3.6348,3.6172,3.5391,3.3945,3.2539,3.1621,3.1348,2.9961,2.957,3.0449,3.0742,3.0195,2.873,2.8437,2.8144,2.7871,2.875,2.9316,2.9629,3.0508,3.0898,3.0898,3.0898,3.0898,3.0898,3.0898,3.0898,3.0898,3.0898,3.0898,3.0898,3.0898,3.0898,3.0898,1.3673,1.3091,1.2601,1.2591,1.2591,1.2591,1.2582,1.2582,1.2485,1.222,0.0,0.0,0.0,0.0,0.0,1.1805,1.1805,1.1908,1.2169,1.2445,1.2731,1.2995,1.3285,1.3777,1.4487,1.452,1.452,1.4504,1.4504,1.4487,1.4494,1.5408,1.6092,1.6632,1.7587,1.8958,2.0572,2.0658,2.0598,2.0397,1.9668,1.8806,1.7915,1.717,1.6966,1.734,1.9617,1.9946,1.9567,2.1399,2.1068,1.9702,1.8616,1.7947,1.7752,1.8712,2.0205,2.1743,0.0,0.0,0.0,2.3417,2.4453,2.5234,2.3594,2.7187,3.0859,3.082,3.3555,3.5916,3.5791,3.5736,3.5703,3.5703,3.5035,3.4555,3.4624,3.4651,3.5019,3.5937,3.6055,3.6406,3.7266,3.6543,3.5684,3.4805,3.3867,3.3008,3.2246,3.1367,3.0508,2.9668,3.041,2.9609,2.7051,2.7832,2.7793,2.6973,2.7871,2.873,2.959,3.0488,3.0898,3.0898,3.0898,3.0898,3.0898,3.0898,3.0898,3.0898,3.0898,3.0898,3.0898,3.0898,3.0898,3.0898,1.2899,1.2739,1.2543,1.2352,1.2312,1.2251,1.2055,1.2009,1.1992,0.0,0.0,0.0,0.0,0.0,1.1805,1.1805,1.1805,1.1908,1.2169,1.2445,1.2731,1.2995,1.378,1.4284,1.4504,1.5011,1.5028,0.0,0.0,0.0,0.0,0.0,1.4069,1.41,1.5605,1.669,1.7516,1.9747,1.8493,1.5455,2.0907,2.0098,1.6053,1.9814,2.0051,1.8618,2.0469,2.1259,2.1547,2.2203,2.1208,1.9424,1.7911,1.6999,1.6818,1.8385,1.9291,2.0114,2.1598,0.0,0.0,0.0,0.0,0.0,2.5675,2.7985,2.9745,2.9017,3.2122,3.4581,3.3254,3.4446,3.5633,3.5693,3.5465,3.5341,3.5518,3.6077,3.6601,3.6894,3.75,3.7988,3.8223,3.7441,3.6582,3.5703,3.3125,3.1777,3.2187,3.1367,3.0781,3.0547,2.9551,2.8672,2.7949,2.6934,2.6309,2.6074,2.7578,2.8437,2.8711,3.0215,3.0898,3.0898,3.0898,3.0898,3.0898,3.0898,3.0898,3.0898,3.0898,3.0898,3.0898,3.0898,3.0898,3.0898,1.2266,1.2266,1.2215,1.2055,1.2024,1.1971,1.1811,1.1805,1.1805,0.0,0.0,0.0,0.0,0.0,0.0,1.1805,1.1805,1.188,1.2013,1.2276,1.2543,1.2815,1.38,1.4529,1.4943,1.568,0.0,0.0,0.0,0.0,0.0,0.0,0.0,1.3044,1.4066,1.4648,1.5057,1.7698,1.8099,1.7297,2.1495,2.1595,1.9563,2.2412,2.2496,2.1391,2.3558,2.4276,2.4393,2.5552,2.3846,2.1067,2.014,1.8567,1.742,1.9257,1.9641,1.9878,0.0,0.0,2.2599,2.4018,0.0,0.0,2.5874,2.8612,3.0819,2.9534,3.2425,3.4509,3.2301,3.3377,3.4481,3.4136,3.435,3.487,3.5771,3.6645,3.7364,3.7793,3.8281,3.873,3.9101,3.8359,3.748,3.6601,3.4355,3.2793,3.2226,3.1367,3.0723,3.0371,2.9375,2.8496,2.7754,2.6758,2.6055,2.5723,2.7109,2.7949,2.8359,2.9726,3.0566,3.0898,3.0898,3.0898,3.0898,3.0898,3.0898,3.0898,3.0898,3.0898,3.0898,3.0898,3.0898,3.0957,0.0,1.1805,1.1805,1.1805,1.1805,1.1805,1.1805,1.1805,1.1805,0.0,0.0,0.0,0.0,0.0,0.0,0.0,1.1805,1.1805,1.1805,1.2045,1.2322,1.2591,1.3632,1.4655,1.5578,1.64,0.0,0.0,0.0,0.0,0.0,0.0,0.0,0.0,1.3013,1.3138,1.3533,1.5284,1.8478,2.2305,2.1713,2.2965,2.5183,2.4739,2.4351,2.4431,2.7429,2.7818,2.725,2.9553,2.7457,2.3849,2.3617,2.134,1.9026,2.058,2.0532,0.0,0.0,0.0,0.0,2.4011,2.5969,0.0,2.537,2.9043,3.248,3.1289,3.3457,3.486,3.25,3.26,3.2782,3.1969,3.2378,3.346,3.5336,3.6604,3.7577,3.8222,3.8652,3.9199,3.9961,3.9258,3.8379,3.7519,3.6465,3.4785,3.2324,3.1465,3.0644,2.9766,2.9551,2.8711,2.7168,2.6953,2.6523,2.5859,2.6738,2.7598,2.8476,2.9258,3.0078,3.0898,3.0801,3.0801,3.0898,3.0898,3.0898,3.0898,3.0898,3.0898,3.0898,3.0898,3.0957,3.1152,1.1805,1.1805,1.1805,1.1805,1.1805,1.1805,1.1805,1.1805,1.1805,1.1805,1.1805,0.0,0.0,0.0,0.0,0.0,1.1805,1.1805,1.1805,1.2045,1.2322,1.2591,1.4132,1.5177,1.5595,1.6898,1.7287,0.0,0.0,0.0,0.0,0.0,0.0,0.0,1.3103,1.3645,1.4729,1.492,1.704,2.0451,2.2358,2.302,2.3153,2.59,2.5306,2.3531,2.7716,2.8214,2.7083,2.827,2.7612,2.588,2.3353,2.1737,2.0626,2.0066,1.9951,2.0079,2.046,2.0673,2.1368,2.3653,2.415,0.0,2.7832,2.8902,2.9805,3.1582,3.248,3.2988,3.3083,3.2572,3.2133,3.204,3.1466,3.1639,3.3471,3.6294,3.7726,3.6569,3.8943,4.0762,4.0937,4.0156,3.9277,3.8418,3.623,3.4141,3.2305,3.2031,3.1543,3.0664,2.9297,2.8398,2.8047,2.6641,2.6211,2.6758,2.7637,2.8496,2.9355,2.9512,3.0078,3.0859,3.0156,3.0254,3.0898,3.0898,3.0898,3.0898,3.0898,3.0898,3.0898,3.0898,3.1348,3.1973,1.1805,1.1805,1.191,1.2235,1.2295,1.2415,1.2747,1.2807,1.2807,1.2807,1.2508,0.0,0.0,0.0,0.0,0.0,0.0,0.0,0.0,0.0,1.2322,1.2591,1.392,1.4954,1.5595,1.6678,1.7253,0.0,0.0,0.0,0.0,0.0,0.0,0.0,1.3813,1.4463,1.5638,1.5505,1.7088,1.9894,2.2034,2.3209,2.3942,2.6591,2.6581,2.5518,2.8373,2.9251,2.8941,2.825,2.781,2.7287,2.5543,2.3517,2.1675,2.0984,2.0325,1.9919,2.0487,2.0727,2.1359,2.3633,2.4549,0.0,0.0,2.9204,3.0405,3.1367,3.2226,3.2519,3.1619,3.1401,3.1086,3.0293,3.0063,3.0166,3.0642,3.4436,3.719,3.7241,3.9589,4.1191,4.1191,4.0801,4.0019,3.8691,3.6582,3.4785,3.3516,3.2656,3.1992,3.1562,2.9434,2.8301,2.8301,2.6562,2.5918,2.6367,2.6797,2.7695,2.8945,2.8945,2.9668,3.0859,2.998,3.0098,3.0879,3.043,3.0508,3.0898,3.0898,3.1172,3.1543,3.1543,3.207,3.2851,1.1984,1.1984,1.2194,1.2879,1.2984,1.3178,1.3722,1.3797,1.3797,1.3797,0.0,0.0,0.0,0.0,0.0,0.0,0.0,0.0,0.0,1.2621,1.2932,1.2825,1.3903,1.4921,1.5798,1.6536,1.7202,1.78,0.0,0.0,0.0,0.0,0.0,0.0,0.0,1.553,1.6938,1.6938,1.8356,2.0765,2.2436,2.3723,2.4869,2.697,2.7578,2.7494,2.9021,3.0272,3.0852,2.8568,2.7947,2.8012,2.735,2.4882,2.2192,2.2089,2.0889,1.9805,2.0721,2.0999,2.1507,2.3597,2.5147,2.6371,0.0,0.0,0.0,3.0954,3.1933,3.2246,3.015,3.0201,3.0099,2.8675,2.8884,2.9113,2.8747,3.2423,3.569,3.7144,3.871,3.9824,4.0155,4.0332,4.0,3.8926,3.7383,3.6055,3.5019,3.3359,3.2363,3.2207,2.9824,2.8476,2.8301,2.6738,2.5957,2.5957,2.6113,2.7031,2.8555,2.8555,2.9414,3.0859,2.998,3.0098,3.0859,3.0137,3.0273,3.0898,3.0898,3.1328,3.1973,3.2148,3.2715,3.3516,1.2696,1.2696,1.2894,1.357,1.369,1.3707,1.3782,1.3797,0.0,0.0,0.0,0.0,1.595,1.4619,1.4275,1.5995,1.565,1.4584,1.2804,1.4651,1.5164,1.3636,1.5162,1.6208,1.657,1.7304,1.7715,1.78,0.0,0.0,0.0,0.0,0.0,0.0,1.5189,1.7011,1.9563,1.9563,2.1268,2.4102,2.5726,2.5008,2.3384,2.7016,2.7486,2.653,2.9214,3.0638,3.0852,2.8568,2.7824,2.7538,2.5775,2.3711,2.1993,2.2199,2.0994,1.964,1.9754,1.9882,2.0589,2.3193,2.4034,2.5056,2.8214,0.0,2.9815,3.0576,0.0,3.0944,3.0762,0.0,0.0,2.9374,2.8743,2.8788,3.0289,3.166,3.2567,3.2655,3.3618,3.4861,3.6363,3.7242,3.8301,3.9648,3.8848,3.7598,3.5937,3.4219,3.2949,3.2226,3.041,2.9082,2.8301,2.7344,2.6855,2.6855,2.7637,2.8516,2.9453,2.9453,2.998,3.0859,2.998,3.0098,3.0898,3.0781,3.0801,3.0898,3.0898,3.0957,3.1133,3.1914,3.2715,3.3516,1.3376,1.3376,1.3585,1.4259,1.4378,1.4513,1.4901,0.0,0.0,0.0,0.0,1.4963,1.6517,1.598,1.6114,1.7728,1.764,1.6952,1.5725,1.6198,0.0,1.5471,1.5726,1.6145,1.6699,1.6993,1.7371,1.78,1.78,0.0,0.0,0.0,0.0,0.0,1.6258,1.8045,2.0699,2.082,2.2276,2.4563,2.5306,2.4868,2.4129,2.7662,2.8802,2.8477,2.8374,2.9559,3.0688,2.7265,2.7743,2.9217,2.6102,2.4549,2.3942,2.4296,2.2033,1.9752,2.1276,2.1387,2.1601,2.3775,2.4784,2.6031,2.903,2.9107,2.8945,3.0346,0.0,0.0,0.0,0.0,0.0,0.0,2.9229,2.9051,2.9312,2.9664,3.0794,3.3244,3.4333,3.537,3.6596,3.6151,3.6094,3.6836,3.7012,3.6328,3.457,3.4277,3.3769,3.293,3.123,2.9941,2.9062,2.7695,2.6992,2.6992,2.6855,2.7519,2.8848,2.8848,2.9609,3.0859,2.998,3.0098,3.0859,3.0351,3.0449,3.0898,3.0898,3.1484,3.2383,3.2754,3.375,3.4961,1.4318,1.4199,1.4288,1.496,1.5065,1.523,1.5724,1.6263,1.6428,1.5919,1.5874,1.6428,1.7906,1.7179,1.739,1.9346,1.9434,1.9114,1.8499,1.8219,1.8087,1.8114,1.6897,1.6756,1.7918,1.7314,1.7253,1.78,1.78,0.0,0.0,0.0,0.0,0.0,1.7468,1.9188,2.1773,2.2373,2.3981,2.6145,2.6397,2.6415,2.6539,2.8296,2.962,3.034,2.8671,2.941,3.0637,2.694,2.7726,2.9759,2.6887,2.5623,2.539,2.6423,2.4064,2.1551,2.3583,2.3718,2.3481,2.4417,2.5525,2.6726,2.802,2.7915,2.7978,2.9484,2.9383,0.0,0.0,0.0,0.0,0.0,0.0,2.9686,2.9101,2.9004,3.0234,3.3572,3.5154,3.6034,3.6211,3.5723,3.5215,3.4746,3.5723,3.5605,3.3848,3.4355,3.4297,3.3437,3.2012,3.0723,2.9609,2.834,2.7461,2.6992,2.6836,2.7305,2.832,2.8789,2.9707,3.0859,3.0234,3.0312,3.0859,3.0215,3.0332,3.0918,3.1152,3.2129,3.3398,3.3398,3.4355,3.5684,1.5619,1.5215,1.4975,1.5649,1.5769,1.5784,1.5799,1.7401,1.8597,1.8583,1.8568,1.9331,2.1321,1.84,1.7746,2.13,2.1303,2.0923,2.0448,2.1117,2.16,2.1738,1.9148,1.8775,2.1004,1.8894,1.7783,1.78,1.78,0.0,0.0,0.0,0.0,0.0,1.8704,2.065,2.3156,2.4765,2.735,3.0349,3.0817,3.1004,3.0768,2.865,2.9224,3.1154,3.1086,3.1103,3.0835,2.8501,2.779,2.7891,2.7757,2.6429,2.5423,2.8032,2.7312,2.5816,2.6333,2.6465,2.6152,2.4834,2.5695,2.6333,2.4284,2.5127,2.663,2.76,2.7929,2.857,3.0283,0.0,0.0,0.0,0.0,0.0,0.0,3.082,3.113,3.1999,3.436,3.5274,3.3672,3.5762,3.6523,3.4824,3.6289,3.6504,3.4746,3.4687,3.4297,3.3437,3.2598,3.1328,2.9629,2.9531,2.8672,2.7012,2.8672,2.9062,2.8359,3.0059,3.0859,3.0898,3.0879,3.0879,3.0898,3.0879,3.0879,3.0976,3.1836,3.2676,3.3398,3.3398,3.3965,3.4863,1.6628,1.6273,1.6049,1.5839,1.5799,1.5799,1.5799,1.6368,1.7237,1.8538,1.8702,1.9959,2.3259,2.253,2.2218,2.3249,2.4594,2.4672,2.2998,2.3922,2.4568,2.4612,2.3081,2.1918,2.1207,2.0446,1.9299,1.78,1.78,0.0,0.0,0.0,0.0,0.0,0.0,2.0582,2.3247,2.5592,2.832,3.1039,3.1201,3.0661,2.9771,2.9973,3.0531,3.119,3.119,3.119,3.0806,2.8203,2.8542,2.9739,2.7913,2.7208,2.7594,3.0073,2.8464,2.6285,2.8098,2.839,2.8146,2.7934,2.7774,2.7706,2.7764,2.6047,2.5011,2.7018,2.7158,2.7463,2.9226,0.0,0.0,0.0,0.0,0.0,0.0,3.1345,3.1855,3.2106,3.189,3.2166,3.3281,3.1621,3.0723,3.1289,3.1348,3.1094,3.0508,3.2617,3.3203,3.1797,3.2559,3.2187,3.0488,2.9883,2.9297,2.8711,2.873,2.8887,2.918,2.9766,3.0351,3.0898,3.0898,3.0898,3.0898,3.0898,3.123,3.1797,3.207,3.3047,3.4258,3.4258,3.4805,3.5605,1.7125,1.7007,1.7048,1.6614,1.6446,1.6513,1.694,1.7015,1.8001,2.0755,2.0607,2.1544,2.4881,2.473,2.4549,2.4947,2.568,2.6061,2.5912,2.4695,2.5007,2.7361,2.4789,2.3408,2.3528,2.202,2.0869,2.0179,1.8677,1.8473,0.0,0.0,0.0,0.0,0.0,2.0873,2.2851,2.634,2.8905,3.0711,3.1103,3.1024,3.066,3.0595,3.0832,3.119,3.119,3.119,3.0942,2.9158,2.975,3.0891,2.9124,2.8886,2.9606,3.1302,3.0106,2.8568,3.0052,3.0592,3.0497,2.9621,2.933,2.9193,2.8919,2.7017,2.5826,2.7783,2.8142,2.8252,2.8727,0.0,0.0,0.0,0.0,0.0,0.0,3.1259,3.1678,3.1738,3.209,3.2383,3.25,3.1113,2.9648,2.8301,2.8848,2.8828,2.7891,3.1367,3.2773,3.1406,3.2695,3.2734,3.1387,3.0508,2.9902,2.9609,2.9336,2.9355,2.9609,2.9922,3.0371,3.0898,3.0898,3.0898,3.0898,3.0898,3.1406,3.2226,3.2519,3.3476,3.4707,3.4707,3.5254,3.6035,1.7274,1.7551,1.8057,1.8009,1.7769,1.7955,1.9086,1.9333,2.0837,2.4823,2.4144,2.4051,2.6156,2.5126,2.4821,2.6138,2.4736,2.5245,2.8731,2.3768,2.3521,2.9867,2.4728,2.3613,2.7722,2.3714,2.2527,2.4491,2.0426,0.0,0.0,0.0,0.0,0.0,2.0671,2.147,2.2126,2.701,2.9312,2.9717,3.0754,3.2095,3.3226,3.0506,3.0207,3.1269,3.121,3.119,3.119,3.1157,3.1157,3.121,3.1179,3.1196,3.131,3.1715,3.2161,3.2472,3.2146,3.2897,3.3073,2.9972,3.0308,3.0661,2.7833,2.7855,2.8718,2.9594,3.0491,3.0602,2.8965,3.0679,0.0,0.0,0.0,0.0,0.0,3.0614,3.0666,3.0761,3.4375,3.5273,3.1289,3.3613,3.2695,2.625,2.8711,2.9492,2.7129,3.0957,3.2891,3.2226,3.2812,3.2832,3.2207,3.125,3.0391,2.9668,3.0508,3.0469,2.9687,3.0527,3.0898,3.0898,3.0898,3.0898,3.0898,3.0898,3.1445,3.2344,3.3105,3.3965,3.4766,3.4766,3.5293,3.6113,1.9399,1.98,2.0147,1.9582,1.9878,2.0177,2.0038,2.1365,2.2549,2.2983,2.4511,2.5692,2.6062,2.7254,2.7017,2.4526,2.5386,2.5949,2.5715,2.5816,2.7379,3.0784,2.9448,2.8366,2.7824,2.7266,2.6183,2.4491,2.2523,0.0,2.1855,0.0,0.0,0.0,0.0,2.112,2.2116,2.6968,2.9924,3.1315,3.0699,3.0675,3.0983,3.0599,3.1156,3.2092,3.1428,3.119,3.1106,3.0565,3.0751,3.1167,3.0913,3.1194,3.1733,3.2196,3.2648,3.3009,3.2916,3.333,3.3519,3.2405,3.1759,3.1131,0.0,0.0,2.8215,2.9044,2.9555,3.0087,3.0827,3.0659,0.0,0.0,0.0,0.0,2.8683,2.9285,2.9513,2.897,2.9869,3.0636,3.0879,2.8184,2.6484,2.6641,2.5742,2.5703,2.6934,2.9277,3.1074,3.2168,3.0508,3.0449,3.2187,3.0059,2.9512,3.0566,3.0781,3.0781,3.0566,3.0801,3.0898,3.0898,3.0898,3.0898,3.0898,3.0898,3.1777,3.3105,3.332,3.4336,3.5664,3.5664,3.5801,3.6113,2.0249,2.0653,2.1156,2.1028,2.2709,2.3654,2.2413,2.3351,2.4562,2.5603,2.649,2.7339,2.8178,2.9411,2.9304,2.7125,2.6277,2.6299,2.7368,2.5845,2.6793,3.1004,3.026,2.9165,2.7998,2.8493,2.8066,2.6601,2.4295,0.0,2.4313,0.0,0.0,0.0,2.0474,2.1171,2.2611,2.7097,3.0472,3.2679,3.129,3.1328,0.0,3.1178,3.1637,3.2713,3.2021,3.1786,3.17,3.1285,3.144,3.1736,3.1551,3.1759,3.2161,3.2417,3.2825,3.3127,3.2769,3.3239,3.3661,3.3071,3.2688,3.2431,3.2361,3.1441,3.0774,3.1228,3.172,3.1875,3.1226,3.0841,3.0396,2.9722,2.8697,2.7974,2.8005,2.9415,2.9748,2.7819,2.8592,2.9251,2.9155,2.5839,2.459,2.6836,2.5312,2.4746,2.5801,2.9297,3.0684,2.9394,3.0117,3.0156,2.9375,2.7891,2.7851,2.9199,2.9199,2.9785,3.0898,3.0898,3.0898,3.0898,3.0898,3.0898,3.0898,3.0898,3.1894,3.3476,3.4238,3.5137,3.5996,3.5996,3.5996,3.6113,2.0632,2.094,2.1749,2.2584,2.5373,2.7042,2.5617,2.5774,2.6974,2.9523,2.8925,2.8889,3.0565,3.1021,3.1072,3.0784,2.7199,2.6589,3.0497,2.5287,2.4795,3.092,2.9294,2.8353,2.8596,2.8918,2.9298,2.9693,2.6122,0.0,0.0,0.0,0.0,0.0,2.1015,2.1777,2.3831,2.7134,3.0448,3.3366,3.1966,3.2669,3.4266,3.2037,3.205,3.3229,3.2809,3.2599,3.2501,3.2501,3.2501,3.2517,3.2567,3.2599,3.2599,3.2648,3.2968,3.3128,3.2426,3.2994,3.3623,3.2931,3.3293,3.3877,3.4175,3.4228,3.4228,3.4228,3.4785,3.4365,3.1382,3.1113,3.0478,2.7799,2.7284,2.7186,2.7012,2.9552,3.0152,2.6704,2.8591,0.0,2.7104,2.5289,2.5,2.6855,2.6191,2.5469,2.4941,2.9883,3.0723,2.6348,3.0332,3.0625,2.6582,2.6094,2.6523,2.7832,2.7383,2.8476,3.0898,3.0898,3.0898,3.0898,3.0898,3.0898,3.0898,3.0898,3.1894,3.3574,3.5312,3.5996,3.5996,3.5996,3.5996,3.6113,2.2198,2.2496,2.3427,2.4797,2.5559,2.6708,2.8829,3.0232,3.0197,2.7803,2.9309,3.004,2.8551,3.0074,3.0446,2.8551,2.7672,2.7553,2.8331,2.73,2.801,3.1055,3.0818,3.0618,3.0675,3.1674,3.2053,3.178,2.8863,0.0,0.0,0.0,0.0,0.0,2.1647,2.3575,2.6924,2.6292,2.8275,3.1801,3.1507,3.1654,3.2118,3.297,3.3456,3.3694,3.3606,3.3103,3.2501,3.2501,3.2501,3.2567,3.2968,3.3075,3.3136,3.3462,3.362,3.3657,3.3511,3.3625,3.377,3.3623,3.3697,3.383,3.3858,3.3881,3.3881,3.3881,3.3991,3.4096,3.4147,0.0,2.8296,2.6427,2.4745,2.321,2.1845,2.6217,2.8073,2.4058,2.5846,2.7262,2.6923,2.4723,2.4355,2.6816,2.6191,2.6269,2.7559,2.8613,2.9101,2.8926,2.8398,2.9062,0.0,0.0,2.8633,3.2246,2.9414,2.9062,3.0898,3.0898,3.0898,3.0898,3.0898,3.0898,3.0898,3.0898,3.1894,3.3574,3.5312,3.5996,3.5996,3.5996,3.5996,3.6113,2.4644,2.3646,2.3231,2.4511,2.6179,2.7776,2.8988,3.1596,3.2529,3.0028,3.0578,3.092,3.0209,3.0768,3.0751,2.9668,2.8483,2.8297,2.9499,2.8466,2.8821,3.1089,3.119,3.0709,2.9668,3.1671,3.2405,3.1718,2.963,0.0,0.0,0.0,0.0,2.3079,2.3914,2.5136,2.6678,2.8393,3.0008,3.1507,3.2761,3.3018,3.2724,3.3513,3.3807,3.3807,3.3807,3.3518,3.3163,3.3163,3.3163,3.3211,3.3433,3.3508,3.355,3.3734,3.3807,3.3807,3.3807,3.3807,3.3807,3.3807,3.3807,3.3807,3.3807,3.3807,3.3807,3.3807,3.3807,3.3532,3.2674,3.1508,2.9731,2.685,2.5707,2.4612,2.296,2.566,2.6896,2.445,2.6414,2.7679,2.6876,2.5746,2.5425,2.6269,2.5937,2.5684,2.5664,2.8613,2.9666,2.8247,2.9108,0.0,3.0064,0.0,2.8237,3.0723,2.8633,2.8789,3.0898,3.0898,3.0898,3.0898,3.0898,3.0898,3.0976,3.1836,3.2676,3.3574,3.5312,3.5996,3.5996,3.5996,3.6289,3.668,2.7131,2.5575,2.4516,2.5504,2.7604,2.9279,2.9713,3.2252,3.3748,3.2669,3.1884,3.1698,3.2462,3.1752,3.1094,3.083,2.9417,2.8926,2.9887,2.9046,2.9183,3.066,3.1096,3.063,2.9159,3.1433,3.2336,3.1713,3.04,0.0,0.0,0.0,0.0,0.0,2.6319,2.6943,0.0,0.0,3.2284,3.232,3.4234,3.4509,3.3807,3.3807,3.3807,3.3807,3.3807,3.3807,3.3807,3.3807,3.3807,3.3807,3.3807,3.3807,3.3807,3.3807,3.3807,3.3807,3.3807,3.3807,3.3807,3.3807,3.3807,3.3807,3.3807,3.3807,3.3807,3.3807,3.3807,3.3275,3.1537,3.1715,0.0,2.7677,2.683,2.5923,2.3947,2.5362,2.6135,2.4904,2.7224,2.8195,2.6347,2.6412,2.6101,2.496,2.5391,2.5429,2.4822,2.8808,2.9897,2.725,2.9809,3.05,2.8988,0.0,2.7839,2.9648,2.8047,2.8555,3.0898,3.0898,3.0898,3.0898,3.0898,3.1016,3.1289,3.2793,3.3516,3.3828,3.5391,3.5996,3.5996,3.5996,3.6426,3.6953,2.9027,2.9653,3.0618,3.1368,3.0468,3.0768,3.4131,3.3634,3.2985,3.3243,3.2645,3.2479,3.322,3.2036,3.0747,2.9572,3.0326,2.9448,2.6066,2.9006,3.0358,2.9162,3.0803,3.1864,3.21,3.278,3.3225,3.3387,3.2639,3.1349,0.0,0.0,0.0,0.0,0.0,0.0,0.0,3.1323,3.2724,3.4692,3.4912,3.4509,3.3807,3.3807,3.3807,3.3807,3.3807,3.3807,3.3807,3.3807,3.3807,3.3807,3.3807,3.3807,3.3807,3.3807,3.3807,3.3807,3.3807,3.3807,3.3807,3.3807,3.3807,3.3807,3.3807,3.3807,3.3807,3.3807,3.3807,3.3954,3.4454,3.1802,2.9177,2.8077,2.5724,2.293,1.9734,2.3514,2.5717,2.3312,2.6001,2.707,2.467,2.5117,2.4607,2.2331,2.4354,2.6969,2.983,2.8393,2.7672,2.806,2.8449,2.9667,3.1796,2.8613,2.9375,3.4043,3.0078,2.9121,3.0898,3.0898,3.0898,3.0898,3.0898,3.1348,3.2148,3.3027,3.3867,3.4668,3.5625,3.5996,3.5996,3.5996,3.6055,3.6211,3.2097,3.1141,3.0698,3.1964,3.2171,3.2733,3.4446,3.5102,3.5472,3.5669,3.4619,3.4149,3.4878,3.4045,3.3018,3.2021,3.2406,3.183,2.9759,3.1095,3.1707,3.1092,3.1823,3.2316,3.2501,3.2968,3.3486,3.4085,3.2129,3.0985,0.0,0.0,0.0,0.0,0.0,3.1788,3.2908,3.3899,3.4596,3.5004,3.5004,3.4509,3.3807,3.3807,3.3807,3.3807,3.3807,3.3807,3.3807,3.3807,3.3807,3.3807,3.3807,3.3807,3.3807,3.3807,3.3807,3.3807,3.3807,3.3807,3.3807,3.3807,3.3807,3.3807,3.3807,3.3807,3.3807,3.3807,3.3807,3.3752,3.3592,3.3075,3.1654,2.8511,2.8275,2.7193,2.3477,2.5368,2.6943,2.6396,2.6335,2.6545,2.7099,2.6087,2.5635,2.6198,2.684,2.7355,2.7688,2.8679,3.0292,3.2626,0.0,3.1363,3.6531,3.1687,3.0794,3.3887,3.1699,3.0723,3.0898,3.0898,3.0898,3.0957,3.1953,3.2324,3.2305,3.3633,3.4394,3.4785,3.5664,3.5996,3.5996,3.5996,3.6328,3.6894,3.4929,3.3525,3.2526,3.344,3.439,3.484,3.4371,3.6194,3.7381,3.6647,3.6233,3.6111,3.6343,3.5474,3.4515,3.3603,3.3628,3.297,3.1234,3.1993,3.2298,3.1839,3.2386,3.2761,3.2887,3.3211,3.3648,3.4213,3.2464,3.1531,0.0,0.0,0.0,0.0,3.322,3.4407,3.5085,3.6284,3.6468,3.597,3.5729,3.5136,3.4389,3.4154,3.4049,3.4049,3.4049,3.3986,3.3928,3.3928,3.3868,3.3807,3.3807,3.3807,3.3807,3.3807,3.3807,3.3807,3.3807,3.3807,3.3807,3.3807,3.3807,3.3807,3.3807,3.3807,3.3807,3.3807,3.3807,3.3623,3.3073,3.3885,3.3406,2.961,3.0298,3.0182,2.6906,2.7263,2.798,2.8303,2.6998,2.6678,2.8222,2.7012,2.6675,2.7974,2.8362,2.8112,2.7192,2.8712,3.0907,0.0,0.0,0.0,3.7286,3.2204,3.1026,3.3769,3.2949,3.2226,3.1641,3.1641,3.1641,3.1699,3.2891,3.3223,3.3027,3.4219,3.4844,3.5137,3.5762,3.5996,3.5996,3.5996,3.6543,3.7422,3.7201,3.772,3.7966,3.7262,3.7542,3.7047,3.4655,3.6786,3.7796,3.5357,3.7136,3.8283,3.7304,3.5829,3.4404,3.3204,3.3474,3.2033,2.8116,3.0768,3.1819,3.029,3.2123,3.3375,3.378,3.3775,3.3807,3.3807,3.4564,3.372,3.1433,0.0,3.3733,3.3862,3.6336,3.7599,3.7864,3.7882,3.8072,3.8271,3.7411,3.6591,3.579,3.4996,3.4684,3.4684,3.4684,3.4486,3.4206,3.4206,3.4018,3.3807,3.3807,3.3807,3.3807,3.3807,3.3807,3.3807,3.3807,3.3807,3.3807,3.3807,3.3807,3.3807,3.3807,3.3807,3.3807,3.3807,3.3807,3.3807,3.3788,3.3807,3.3275,3.1635,0.0,2.9842,2.8192,2.838,2.8398,2.7599,2.7719,2.7544,2.6717,2.7376,2.7205,2.5563,2.7825,2.966,3.049,0.0,0.0,2.9429,2.6204,0.0,3.2246,2.8809,2.9629,3.4668,3.3809,3.3379,3.3379,3.3379,3.3379,3.3379,3.3398,3.3887,3.4668,3.4687,3.5215,3.5996,3.5996,3.5996,3.5996,3.5996,3.6543,3.7422,3.303,3.5609,3.754,3.5962,3.7223,3.8193,3.7426,3.8101,3.8432,3.7628,3.8212,3.858,3.8269,3.778,3.7116,3.6185,3.4677,3.3468,3.2753,3.2115,3.227,3.3413,3.2509,3.2033,3.2155,3.2155,3.1898,3.1347,0.0,0.0,0.0,3.3543,3.473,3.5843,3.7412,3.847,3.9024,3.8472,3.7966,3.744,3.6602,3.5809,3.5044,3.4788,3.4694,3.4694,3.4694,3.4632,3.454,3.454,3.4475,3.4409,3.4409,3.4123,3.3807,3.3807,3.3807,3.3807,3.3807,3.3807,3.3807,3.3807,3.3807,3.3807,3.3807,3.3807,3.3807,3.3807,3.3807,3.3807,3.3807,3.3807,3.3327,3.1844,3.2232,0.0,3.097,3.0443,2.995,2.9292,2.7904,2.7351,2.8222,2.8569,2.8989,2.9648,3.0505,3.0653,2.9822,0.0,0.0,0.0,3.2088,0.0,3.7136,3.2762,3.1934,3.4707,3.4414,3.3984,3.3418,3.4023,3.3965,3.3476,3.4668,3.498,3.4746,3.5332,3.5742,3.5996,3.5996,3.6367,3.6816,3.6211,3.6934,3.8223,3.3906,3.6116,3.7826,3.6593,3.7664,3.8395,3.7444,3.8102,3.8377,3.7426,3.8105,3.8707,3.8707,3.8707,3.8505,3.7991,3.6248,3.5275,3.5481,3.377,3.3293,3.4491,3.3109,3.2302,3.2302,3.2596,0.0,3.1708,3.3135,3.3993,3.4309,3.5355,3.6534,3.7822,3.8531,3.9195,3.9748,3.9248,3.8779,3.8271,3.7129,3.6577,3.6368,3.5692,3.5455,3.5455,3.5455,3.5191,3.486,3.486,3.4774,3.4694,3.4694,3.4431,3.4111,3.3986,3.4037,3.4087,3.3868,3.3863,3.3928,3.3815,3.3807,3.3807,3.3807,3.3807,3.3807,3.3807,3.3807,3.3807,3.3807,3.3876,3.3777,3.3208,3.3702,3.3995,3.3583,3.21,3.1025,3.0944,2.8925,2.8332,3.0339,3.0531,3.0852,3.1641,3.1797,3.1514,0.0,0.0,3.3604,3.5718,3.3456,3.3806,3.7147,3.3872,3.3203,3.5195,3.5527,3.5215,3.4414,3.5273,3.5195,3.4434,3.5527,3.5684,3.5234,3.5781,3.6191,3.6484,3.6484,3.7012,3.7715,3.7187,3.7871,3.9082,3.8135,3.856,3.8799,3.8579,3.8726,3.8086,3.5793,3.7371,3.8031,3.5738,3.7426,3.8854,3.8799,3.8781,3.8762,3.8707,0.0,0.0,3.6413,3.5463,3.4656,3.4082,3.3907,3.3829,3.3829,3.4595,3.4805,3.4403,3.5475,3.6356,3.712,3.8021,3.8833,3.9539,3.9637,3.984,4.0129,4.0129,4.0239,4.0285,3.8719,3.8546,3.9034,3.7411,3.6788,3.6769,3.6712,3.6063,3.5198,3.5198,3.5058,3.4849,3.4905,3.4924,3.4845,3.4364,3.4464,3.458,3.4018,3.4043,3.4171,3.3928,3.3868,3.3868,3.3868,3.3868,3.3868,3.3868,3.3905,3.396,3.396,3.4198,3.4694,3.5569,3.5176,3.5006,3.566,3.3171,3.1516,3.2111,3.0458,3.0204,3.2583,3.2987,3.2776,3.2025,3.2091,3.2486,0.0,0.0,3.2364,3.2415,3.1638,3.2017,3.3628,3.2925,3.3769,3.6191,3.6992,3.6973,3.6211,3.7012,3.6953,3.6172,3.6172,3.6172,3.6172,3.6172,3.666,3.7383,3.7383,3.793,3.8672,3.8613,3.9199,3.998,3.3592,3.7129,3.9756,3.7294,3.8909,4.0325,3.9756,4.0141,4.0306,3.9738,4.0159,4.0304,3.968,3.9625,3.9368,3.8762,3.6784,3.6064,3.7144,3.5238,3.4835,3.6556,3.5055,3.4177,3.4177,3.4618,3.5391,3.65,3.6753,3.6992,3.72,3.8288,3.889,3.9099,3.9925,4.0328,4.0417,4.0417,4.0084,3.9554,3.915,3.8719,3.8257,3.7853,3.77,3.7603,3.6942,3.6529,3.6319,3.6319,3.627,3.6347,3.7006,3.7217,3.6875,3.5103,3.4643,3.4663,3.4526,3.4529,3.458,3.4497,3.4494,3.4494,3.4494,3.4494,3.4494,3.4494,3.4985,3.5409,3.5409,3.6001,3.6753,3.7589,3.6521,3.5293,3.4357,3.2534,3.0722,2.9173,3.0232,3.1314,3.1929,3.3731,3.4808,0.0,3.4623,3.5326,3.685,3.6788,3.6975,3.7527,3.6871,3.6699,3.7115,3.6431,3.6738,3.7988,3.8184,3.8184,3.7988,3.8203,3.8184,3.7988,3.7988,3.7988,3.7988,3.7988,3.8105,3.8281,3.8281,3.8828,3.9512,3.8848,3.957,4.0801,3.6101,3.8689,4.0545,3.8799,3.9955,4.1095,4.1095,4.1095,4.1095,4.1095,4.1095,4.0993,4.0714,4.0688,4.0559,4.0282,3.8178,3.7105,3.7641,3.6575,3.6329,3.7316,3.6244,3.5627,3.5627,3.6155,3.6923,3.7934,3.808,3.8165,3.8184,3.9169,3.9632,3.9651,4.0238,4.0496,4.0496,4.0496,4.0246,3.9823,3.9457,3.9246,3.9104,3.8719,3.8584,3.8527,3.8065,3.7623,3.7296,3.7296,3.7296,3.7373,3.7853,3.8007,3.7759,3.6549,3.5926,3.5568,3.5322,3.5067,3.4841,3.4724,3.4694,3.4694,3.4694,3.4987,3.5251,3.5251,3.5914,3.6491,3.6491,3.6982,3.7669,3.8495,3.6653,3.498,3.4572,3.2089,3.0414,3.075,3.1641,3.2852,3.443,3.5834,3.6635,3.6635,3.6299,0.0,3.8642,3.8423,3.8612,3.9414,3.9105,3.875,3.8344,3.8055,3.8125,3.8594,3.9004,3.8984,3.8613,3.9004,3.8984,3.8594,3.8594,3.8594,3.8594,3.8594,3.8828,3.9199,3.9199,3.9726,4.0449,3.9961,4.0391,4.1133,4.0985,4.1297,4.1407,4.1297,4.137,4.1462,4.1462,4.1509,4.154,4.154,4.1588,4.1684,4.1848,4.1871,4.1919,4.2095,4.0578,3.9313,3.857,3.8691,3.8463,3.7797,3.7678,3.7652,3.7652,3.8344,3.8819,3.906,3.9344,3.9477,3.9496,4.0189,4.0496,4.0496,4.0496,4.0496,4.0496,4.0496,4.0496,4.0439,3.9765,3.99,4.0439,3.9746,3.9477,3.9477,3.9342,3.8815,3.82,3.82,3.82,3.8219,3.8334,3.8373,3.8373,3.8373,3.7777,3.6953,3.6378,3.5874,3.5456,3.5097,3.5106,3.5201,3.5201,3.5722,3.6225,3.6225,3.6898,3.7524,3.7524,3.7804,3.8199,3.8685,3.6309,3.4564,3.5038,0.0,3.0897,3.3667,3.3814,3.4757,3.7526,3.7911,3.8046,3.818,3.7578,3.7909,3.9522,3.9045,3.9068,3.9815,3.9745,3.9359,3.8629,3.8747,3.8867,3.9004,3.9863,3.9883,3.9199,3.9941,3.9863,3.918,3.9043,3.8984,3.8984,3.8984,3.9434,4.0098,4.0098,4.0547,4.1191,4.1191,4.1191,4.1191,4.1205,4.2194,4.291,4.2231,4.2671,4.313,4.313,4.3372,4.3553,4.3553,4.3849,4.3802,4.3101,4.3038,4.2781,4.2145,4.206,4.1881,4.1474,4.0856,4.0464,4.0325,3.9901,3.9651,3.9651,3.999,4.0186,4.023,4.0288,4.0304,4.0323,4.0439,4.0496,4.0496,4.0496,4.0496,4.0496,4.0496,4.0496,4.0496,4.0362,4.04,4.0496,4.0362,4.0304,4.0227,3.9534,3.9207,3.9111,3.9111,3.9111,3.9227,3.99,4.0112,4.0112,4.0112,3.9534,3.8731,3.7901,3.7613,3.736,3.6581,3.6938,3.7494,3.7494,3.7571,3.7667,3.7667,3.8366,3.8961,3.8961,3.9569,3.9623,3.8355,3.6543,3.4827,3.3487,0.0,3.334,3.3122,3.5526,3.7123,3.6923,3.7565,3.8315,3.9034,3.9045,3.9465,4.0539,4.0574,4.0691,4.0933,4.0133,3.9686,3.9667,3.9687,4.0078,4.0801,4.1621,4.1933,4.1816,4.1953,4.1933,4.1777,4.1094,4.0801,4.0801,4.0801,4.0879,4.0996,4.0996,4.1074,4.1191,4.1191,4.1191,4.1191,4.2378,4.2983,4.3436,4.3243,4.3577,4.3927,4.4065,4.4223,4.4318,4.4318,4.4487,4.4518,4.4291,4.4277,4.4194,4.4005,4.4125,4.4145,4.4006,4.2793,4.2077,4.2077,4.1398,4.0801,4.0321,4.0902,4.0969,4.0496,4.0496,4.0496,4.0496,4.0496,4.0496,4.0496,4.0496,4.0496,4.0496,4.0496,4.0496,4.0535,4.1008,4.0912,4.0554,4.1027,4.0912,4.0516,4.0604,4.0642,4.0642,4.0642,4.095,4.1335,4.1219,4.1527,4.1893,4.1893,4.0669,3.9111,3.8238,3.8007,3.7892,3.7507,3.77,3.8007,3.8007,3.8354,3.87,3.87,3.9361,3.9958,3.9958,4.0246,4.04,4.0104,3.7846,3.6019,3.5699,3.5218,3.4911,3.4949,3.7161,3.87,3.8738,3.9104,3.9533,4.0024,4.0081,4.0335,4.0886,4.0962,4.125,4.1836,4.0973,4.0543,4.0605,4.1035,4.1445,4.1855,4.2226,4.2402,4.2383,4.1953,4.1758,4.1738,4.1367,4.1191,4.1191,4.1191,4.1191,4.1191,4.1191,4.1191,4.125,4.1699,4.1855,4.1914,4.3599,4.3679,4.3726,4.4091,4.4219,4.4359,4.4567,4.4676,4.4726,4.4726,4.4781,4.4931,4.5191,4.5211,4.5322,4.5577,4.5594,4.5594,4.5594,4.4393,4.3585,4.3393,4.2566,4.1797,4.1131,4.1758,4.1681,4.0804,4.0804,4.0708,4.0496,4.0496,4.0612,4.0804,4.0804,4.092,4.1112,4.1112,4.1112,4.117,4.1835,4.17,4.1189,4.1854,4.1681,4.1189,4.1854,4.2104,4.2104,4.2104,4.2547,4.2989,4.2316,4.2566,4.3104,4.3104,4.172,3.9912,3.8642,3.843,3.8546,3.8354,3.8604,3.8834,3.8623,3.9411,4.0073,3.9669,4.04,4.1035,4.0843,4.0804,4.0893,4.1181,0.0,3.7,3.7873,3.6712,3.6154,3.718,3.8642,3.9746,4.0189,4.0419,4.0582,4.0692,4.0745,4.0843,4.0992,4.1202,4.1669,4.2383,4.1797,4.1484,4.1484,4.209,4.25,4.2695,4.291,4.3008,4.2988,4.2168,4.1777,4.1758,4.1367,4.1191,4.1191,4.1191,4.1308,4.1484,4.1484,4.1484,4.1582,4.2402,4.2578,4.2519,4.4359,4.4223,4.4091,4.4487,4.4553,4.458,4.4612,4.4861,4.5063,4.5063,4.5332,4.555,4.5568,4.5568,4.5577,4.5594,4.5594,4.5594,4.5594,4.5479,4.5056,4.4239,4.3431,4.297,4.2912,4.297,4.2585,4.1692,4.1692,4.1296,4.0496,4.0496,4.0931,4.1692,4.1692,4.2162,4.2912,4.2912,4.2912,4.2912,4.2989,4.297,4.2912,4.2989,4.2951,4.2912,4.2989,4.3008,4.3008,4.3008,4.3047,4.3085,4.3028,4.3047,4.3104,4.3104,4.297,4.2297,3.9854,3.9746,4.015,3.94,4.0373,4.1316,4.0496,4.1604,4.2354,4.0746,4.1739,4.2662,4.1854,4.1692,4.1219,3.9719,0.0,0.0,3.7873,3.7199,3.7238,3.8911,3.9881,4.015,3.9457,4.0165,4.0686,4.0697,4.0859,4.0988,4.0996,4.1829,4.2324,4.2402,4.2344,4.2305,4.2305,4.2363,4.2812,4.3613,4.4414,4.4805,4.4785,4.3906,4.3516,4.3437,4.1875,4.1191,4.1191,4.1191,4.1641,4.2305,4.2305,4.2305,4.2422,4.3281,4.3086,4.2519,4.454,4.4574,4.4632,4.4884,4.5085,4.5232,4.5232,4.5332,4.541,4.541,4.5513,4.5594,4.5594,4.5594,4.5594,4.5594,4.5594,4.5594,4.5594,4.5594,4.521,4.4335,4.4528,4.4162,4.3124,4.3104,4.2662,4.1788,4.1258,4.0816,4.0516,4.1046,4.1181,4.1008,4.1566,4.2021,4.2414,4.2414,4.275,4.333,4.3873,4.3776,4.3338,4.3788,4.3631,4.3231,4.3673,4.3835,4.3835,4.3835,4.4201,4.4547,4.4008,4.422,4.4528,4.3989,4.3835,4.3528,4.2066,4.1873,4.2047,4.172,4.2143,4.2527,4.2181,4.2624,4.2912,4.2239,4.2643,4.2835,4.1962,4.1788,4.1577,4.095,0.0,3.9354,4.0239,3.9604,3.9296,3.9977,4.0304,4.0381,4.0073,4.043,4.0937,4.1514,4.1727,4.2064,4.263,4.3534,4.3769,4.3223,4.373,4.3496,4.2402,4.3476,4.418,4.4512,4.4844,4.5,4.4961,4.4101,4.3691,4.3633,4.2461,4.2246,4.2715,4.2168,4.2441,4.3203,4.3203,4.3203,4.3301,4.418,4.4297,4.4141,4.4865,4.4935,4.5033,4.5222,4.5438,4.5594,4.5594,4.5594,4.5594,4.5594,4.5594,4.5594,4.5594,4.5594,4.5594,4.5594,4.5594,4.5594,4.5594,4.5594,4.5325,4.472,4.5287,4.5056,4.3912,4.3893,4.3451,4.2585,4.1989,4.1554,4.1324,4.1643,4.1778,4.1769,4.209,4.2608,4.3211,4.3211,4.3598,4.4238,4.4837,4.472,4.4249,4.4757,4.4564,4.412,4.4595,4.477,4.4762,4.4726,4.5114,4.5498,4.4893,4.5133,4.5479,4.4874,4.4701,4.4586,4.4028,4.3893,4.3758,4.3239,4.3297,4.3412,4.3162,4.3508,4.3739,4.3201,4.3528,4.3624,4.2758,4.2585,4.2585,4.2585,4.1873,4.1431,4.175,4.1296,4.0804,4.0535,4.0549,4.0663,4.094,4.11,4.1574,4.2503,4.2672,4.3135,4.4062,4.4687,4.4726,4.4121,4.4941,4.4707,4.3223,4.4394,4.5137,4.541,4.541,4.541,4.5371,4.4512,4.4101,4.4062,4.3183,4.3144,4.3652,4.3047,4.332,4.4101,4.4101,4.4101,4.4219,4.5098,4.5234,4.5117,4.5457,4.5332,4.5211,4.5531,4.5594,4.5594,4.5594,4.5594,4.5594,4.5594,4.5594,4.5594,4.5594,4.5594,4.5594,4.5594,4.5594,4.5594,4.5594,4.5594,4.5594,4.5594,4.5594,4.5594,4.5594,4.5594,4.5171,4.4306,4.4306,4.3882,4.3074,4.222,4.2779,4.4453,4.3582,4.4212,4.5884,4.5884,4.5884,4.5903,4.5903,4.5903,4.5903,4.5903,4.5903,4.5885,4.582,4.5803,4.5776,4.5651,4.5594,4.5594,4.5594,4.5594,4.5594,4.5594,4.5594,4.5594,4.5594,4.5594,4.521,4.3547,4.372,4.4105,4.3297,4.4412,4.5133,4.3451,4.4432,4.5325,4.4451,4.4297,4.4297,4.4297,4.3624,4.2797,4.1923,4.1788,4.1489,4.0612,4.0623,4.1033,4.1922,4.2181,4.2657,4.3537,4.3686,4.4101,4.4961,4.5019,4.5019,4.5019,4.5859,4.5879,4.5019,4.5019,4.5449,4.6308,4.6308,4.6308,4.6269,4.5391,4.5019,4.4961,4.4082,4.3711,4.3711,4.3711,4.4219,4.5019,4.5019,4.5019,4.5117,4.5976,4.5742,4.5137,4.5568,4.5513,4.5485,4.5577,4.5594,4.5594,4.5594,4.5594,4.5594,4.5594,4.5594,4.5594,4.5594,4.5594,4.5594,4.5594,4.5594,4.5594,4.5594,4.5594,4.5594,4.5594,4.5594,4.5594,4.5594,4.5086,4.4696,4.4445,4.3914,4.3543,4.3329,4.3679,4.3797,4.3738,4.4108,4.4596,4.5167,4.4543,4.5016,4.6136,4.5512,4.5629,4.6173,4.608,4.6039,4.603,4.5909,4.5862,4.5857,4.5814,4.5803,4.5799,4.5763,4.568,4.5594,4.5594,4.5594,4.5594,4.5594,4.5594,4.5479,4.4979,4.5037,4.5152,4.4921,4.5248,4.546,4.496,4.5248,4.5325,4.4451,4.4297,4.4124,4.3547,4.3258,4.3008,4.2758,4.22,4.1728,4.1576,4.1054,4.1053,4.1975,4.2217,4.2912,4.4397,4.5131,4.5644,4.5898,4.5918,4.5918,4.5918,4.6152,4.6172,4.5918,4.5918,4.6035,4.6308,4.6308,4.6308,4.6289,4.6035,4.5918,4.5859,4.498,4.4961,4.5488,4.4863,4.5137,4.5918,4.5918,4.5918,4.5937,4.6191,4.6133,4.5957,4.5537,4.5594,4.5594,4.5594,4.5594,4.5594,4.5594,4.5594,4.5594,4.5594,4.5594,4.5594,4.5594,4.5594,4.5594,4.5594,4.5594,4.5594,4.5594,4.5594,4.561,4.568,4.5688,4.5688,4.5688,4.5273,4.5046,4.5046,4.4608,4.4394,4.4394,4.4604,4.4628,4.4472,4.4686,4.5038,4.5417,4.4889,4.5308,4.625,4.5723,4.582,4.6289,4.6202,4.6175,4.6152,4.6033,4.5981,4.5978,4.5916,4.5899,4.5885,4.5845,4.577,4.5708,4.5692,4.5688,4.5665,4.562,4.5594,4.5594,4.5594,4.5594,4.5594,4.5594,4.5594,4.5594,4.5594,4.5594,4.5441,4.4913,4.4797,4.4643,4.4162,4.4085,4.3984,4.3686,4.2903,4.2407,4.2541,4.183,4.1828,4.3082,4.3303,4.3951,4.5358,4.5975,4.6308,4.6308,4.6308,4.6308,4.6308,4.6308,4.6308,4.6308,4.6308,4.6308,4.6308,4.6308,4.6308,4.6308,4.6308,4.6308,4.6269,4.5742,4.5801,4.6269,4.5723,4.582,4.6308,4.6308,4.6308,4.6308,4.6308,4.6308,4.6308,4.5441,4.5594,4.5594,4.5594,4.5594,4.5594,4.5594,4.5594,4.5594,4.5594,4.5594,4.5594,4.5594,4.5594,4.5594,4.5594,4.5594,4.5603,4.562,4.562,4.568,4.5796,4.5815,4.5828,4.5828,4.5896,4.5916,4.5916,4.5924,4.5948,4.5909,4.5196,4.53,4.6097,4.5359,4.5496,4.6289,4.6133,4.6152,4.6289,4.6133,4.6152,4.6308,4.6308,4.6308,4.6289,4.6152,4.6117,4.6108,4.5981,4.5924,4.5916,4.5916,4.5907,4.59,4.5826,4.579,4.5763,4.566,4.5612,4.5594,4.5594,4.5594,4.5594,4.5594,4.5594,4.5594,4.5594,4.5594,4.5594,4.5594,4.5594,4.5594,4.5594,4.5612,4.5387,4.4718,4.3885,4.3375,4.3502,4.2877,4.307,4.4754,4.5034,4.5449,4.623,4.6308,4.6308,4.6308,4.6308,4.6308,4.6308,4.6308,4.6308,4.6308,4.6308,4.6308,4.6308,4.6308,4.6308,4.6308,4.6308,4.6308,4.6308,4.6308,4.6308,4.6308,4.6308,4.6308,4.6308,4.6308,4.6308,4.6308,4.6308,4.6308,4.6308,4.5556,4.5594,4.5594,4.5594,4.5594,4.5594,4.5594,4.5594,4.5594,4.5594,4.5594,4.5594,4.5594,4.5594,4.5594,4.5594,4.5594,4.5651,4.5754,4.5761,4.5783,4.5877,4.5986,4.6024,4.6024,4.6042,4.6069,4.6069,4.6152,4.6203,4.6203,4.6027,4.6069,4.6248,4.6072,4.6112,4.6211,4.4844,4.5058,4.6172,4.4805,4.5078,4.6308,4.6308,4.6308,4.6308,4.6268,4.6267,4.6248,4.6224,4.6145,4.6069,4.6069,4.5985,4.5894,4.5886,4.5842,4.579,4.5749,4.5688,4.5594,4.5594,4.5594,4.5594,4.5594,4.5594,4.5594,4.5594,4.5594,4.5594,4.5594,4.5594,4.5594,4.5594,4.5696,4.5698,4.5544,4.4863,4.4409,4.4482,4.3802,4.3766,4.4861,4.5605,4.6094,4.6289,4.6308,4.6308,4.6308,4.6308,4.6308,4.6308,4.6308,4.6308,4.6308,4.6308,4.6308,4.6308,4.6308,4.6308,4.6308,4.6308,4.6308,4.6308,4.6308,4.6308,4.6308,4.6308,4.6308,4.6308,4.6308,4.6308,4.6308,4.6308,4.6308,4.6308,4.5518,4.5594,4.5594,4.5594,4.5594,4.5594,4.5594,4.5594,4.5594,4.5594,4.5594,4.5594,4.5594,4.5594,4.5637,4.5685,4.5715,4.577,4.5834,4.5859,4.5896,4.5988,4.6053,4.612,4.6199,4.6199,4.6199,4.6199,4.6268,4.6308,4.6308,4.6308,4.6308,4.6308,4.6308,4.6308,4.623,4.5332,4.5469,4.6211,4.5312,4.5488,4.6308,4.6308,4.6308,4.6308,4.6308,4.6308,4.6308,4.6308,4.6248,4.6199,4.6199,4.6147,4.608,4.6005,4.5979,4.5939,4.5875,4.5795,4.5751,4.5751,4.5751,4.5722,4.5627,4.5594,4.5594,4.5594,4.5594,4.5594,4.5594,4.564,4.5692,4.5692,4.577,4.5861,4.5924,4.5243,4.4933,4.5453,4.4774,4.4624,4.5527,4.6035,4.6308,4.6308,4.6308,4.6308,4.6308,4.6308,4.6308,4.6308,4.6308,4.6308,4.6308,4.6308,4.6308,4.6308,4.6308,4.6308,4.6308,4.6308,4.6308,4.6308,4.6308,4.6308,4.6308,4.6308,4.6308,4.6308,4.6308,4.6308,4.6308,4.6308,4.6308,4.6308,4.546,4.5594,4.5594,4.5594,4.5594,4.5594,4.5594,4.5594,4.5594,4.5594,4.5594,4.5594,4.5594,4.5629,4.5677,4.5809,4.5881,4.5907,4.5928,4.5928,4.5992,4.612,4.6122,4.6196,4.6308,4.6308,4.6308,4.6308,4.6308,4.6308,4.6308,4.6308,4.6308,4.6308,4.6308,4.6308,4.6289,4.6133,4.6152,4.6289,4.6133,4.6172,4.6308,4.6308,4.6308,4.6308,4.6308,4.6308,4.6308,4.6308,4.6308,4.6308,4.6308,4.6308,4.6289,4.6173,4.6117,4.6077,4.5951,4.5916,4.5899,4.5899,4.5899,4.5867,4.5684,4.5645,4.5657,4.5643,4.564,4.5645,4.5645,4.5742,4.5821,4.5821,4.5872,4.5978,4.6082,4.5492,4.5374,4.6191,4.5664,4.5508,4.623,4.6308,4.6308,4.6308,4.6308,4.6308,4.6308,4.6308,4.6308,4.6308,4.6308,4.6308,4.6308,4.6308,4.6308,4.6308,4.6308,4.6308,4.6308,4.6308,4.6308,4.6308,4.6308,4.6308,4.6308,4.6308,4.6308,4.6308,4.6308,4.6308,4.6308,4.6308,4.6308,4.6308,4.5575,4.5594,4.5594,4.5594,4.5594,4.5594,4.5594,4.5594,4.5594,4.5594,4.5594,4.5594,4.5594,4.57,4.5796,4.5886,4.589,4.594,4.6072,4.6077,4.6122,4.6268,4.6269,4.6289,4.6308,4.6308,4.6308,4.6308,4.6308,4.6308,4.6308,4.6308,4.6308,4.6308,4.6308,4.6308,4.625,4.5508,4.5605,4.623,4.5488,4.5625,4.6308,4.6308,4.6308,4.6308,4.6308,4.6308,4.6308,4.6308,4.6308,4.6308,4.6308,4.6308,4.6308,4.6289,4.6198,4.6106,4.608,4.5988,4.5899,4.5899,4.5899,4.589,4.5877,4.5872,4.5836,4.5777,4.5819,4.5872,4.5872,4.5862,4.5896,4.5896,4.5985,4.608,4.6108,4.6102,4.6152,4.6289,4.6191,4.6172,4.6289,4.6308,4.6308,4.6308,4.6308,4.6308,4.6308,4.6308,4.6308,4.6308,4.6308,4.6308,4.6308,4.6308,4.6308,4.6308,4.6308,4.6308,4.6308,4.6308,4.6308,4.6308,4.6308,4.6308,4.6308,4.6308,4.6308,4.6308,4.6308,4.6308,4.6308,4.6308,4.6308,4.6308,4.5594,4.5594,4.5594,4.5594,4.5594,4.5594,4.5594,4.5594,4.5594,4.5594,4.5665,4.5715,4.5715,4.5859,4.5979,4.6001,4.608,4.6147,4.6202,4.6202,4.6246,4.6308,4.6308,4.6308,4.6308,4.6308,4.6308,4.6308,4.6308,4.6308,4.6308,4.6308,4.6308,4.6308,4.6308,4.6308,4.6269,4.5898,4.5957,4.6269,4.5879,4.5957,4.6308,4.6308,4.6308,4.6308,4.6308,4.6308,4.6308,4.6308,4.6308,4.6308,4.6308,4.6308,4.6308,4.6308,4.6268,4.6202,4.6202,4.6173,4.6119,4.6119,4.6119,4.6091,4.6033,4.6075,4.6072,4.5896,4.5881,4.5899,4.5899,4.5971,4.6005,4.6005,4.6119,4.6202,4.6202,4.6268,4.6308,4.6308,4.6308,4.6308,4.6308,4.6308,4.6308,4.6308,4.6308,4.6308,4.6308,4.6308,4.6308,4.6308,4.6308,4.6308,4.6308,4.6308,4.6308,4.6308,4.6308,4.6308,4.6308,4.6308,4.6308,4.6308,4.6308,4.6308,4.6308,4.6308,4.6308,4.6308,4.6308,4.6308,4.6308,4.6308,4.6308,4.6308]}]]